<?xml version="1.0" encoding="UTF-8"?>
<gpx xmlns="http://www.topografix.com/GPX/1/1" version="1.1" creator="MyGPSFiles" xsi:schemaLocation="http://www.topografix.com/GPX/1/1 http://www.topografix.com/GPX/1/1/gpx.xsd" xmlns:xsi="http://www.w3.org/2001/XMLSchema-instance">
  <trk>
    <name>Tracé actuel: 23 OCT 2015 16:16</name>
    <desc>Total: 20.5km</desc>
    <trkseg>
      <trkpt lat="43.2357025892" lon="-0.2709503844">
        <ele>208.26</ele>
        <time>2015-10-23T14:16:07Z</time>
      </trkpt>
      <trkpt lat="43.2357023377" lon="-0.2709503006">
        <ele>208.26</ele>
        <time>2015-10-23T14:16:08Z</time>
      </trkpt>
    </trkseg>
  </trk>
  <trk>
    <name>Tracé actuel: 23 OCT 2015 16:16</name>
    <trkseg>
      <trkpt lat="43.2357004937" lon="-0.270953821">
        <ele>209.22</ele>
        <time>2015-10-23T14:16:09Z</time>
      </trkpt>
      <trkpt lat="43.2356883399" lon="-0.2709738538">
        <ele>210.67</ele>
        <time>2015-10-23T14:16:14Z</time>
      </trkpt>
      <trkpt lat="43.2356840651" lon="-0.2709745243">
        <ele>212.11</ele>
        <time>2015-10-23T14:16:16Z</time>
      </trkpt>
      <trkpt lat="43.2356830593" lon="-0.2709575929">
        <ele>215.95</ele>
        <time>2015-10-23T14:16:18Z</time>
      </trkpt>
      <trkpt lat="43.2356833946" lon="-0.2709489595">
        <ele>213.55</ele>
        <time>2015-10-23T14:16:19Z</time>
      </trkpt>
      <trkpt lat="43.2356922794" lon="-0.2709188685">
        <ele>216.91</ele>
        <time>2015-10-23T14:16:29Z</time>
      </trkpt>
      <trkpt lat="43.2356973924" lon="-0.2709170245">
        <ele>217.88</ele>
        <time>2015-10-23T14:16:32Z</time>
      </trkpt>
      <trkpt lat="43.2357419003" lon="-0.2709560003">
        <ele>218.84</ele>
        <time>2015-10-23T14:16:36Z</time>
      </trkpt>
      <trkpt lat="43.2358278148" lon="-0.2710355446">
        <ele>223.16</ele>
        <time>2015-10-23T14:16:51Z</time>
      </trkpt>
      <trkpt lat="43.2358335983" lon="-0.2710493747">
        <ele>226.53</ele>
        <time>2015-10-23T14:17:10Z</time>
      </trkpt>
      <trkpt lat="43.2358356938" lon="-0.2710454352">
        <ele>227.01</ele>
        <time>2015-10-23T14:17:22Z</time>
      </trkpt>
      <trkpt lat="43.2358894218" lon="-0.2710505482">
        <ele>227.01</ele>
        <time>2015-10-23T14:17:26Z</time>
      </trkpt>
      <trkpt lat="43.2361291442" lon="-0.2706221491">
        <ele>227.49</ele>
        <time>2015-10-23T14:17:38Z</time>
      </trkpt>
      <trkpt lat="43.2364318985" lon="-0.2699595597">
        <ele>227.01</ele>
        <time>2015-10-23T14:17:56Z</time>
      </trkpt>
      <trkpt lat="43.2363452297" lon="-0.2696573082">
        <ele>227.01</ele>
        <time>2015-10-23T14:18:05Z</time>
      </trkpt>
      <trkpt lat="43.2362535316" lon="-0.269272076">
        <ele>227.97</ele>
        <time>2015-10-23T14:18:17Z</time>
      </trkpt>
      <trkpt lat="43.2364555355" lon="-0.2687626239">
        <ele>227.97</ele>
        <time>2015-10-23T14:18:29Z</time>
      </trkpt>
      <trkpt lat="43.2364923321" lon="-0.2686444391">
        <ele>228.45</ele>
        <time>2015-10-23T14:18:31Z</time>
      </trkpt>
      <trkpt lat="43.2366080023" lon="-0.2683043852">
        <ele>227.97</ele>
        <time>2015-10-23T14:18:38Z</time>
      </trkpt>
      <trkpt lat="43.2365961839" lon="-0.2682529204">
        <ele>227.49</ele>
        <time>2015-10-23T14:18:39Z</time>
      </trkpt>
      <trkpt lat="43.2365725469" lon="-0.2682085801">
        <ele>227.49</ele>
        <time>2015-10-23T14:18:40Z</time>
      </trkpt>
      <trkpt lat="43.2365388516" lon="-0.268172035">
        <ele>227.49</ele>
        <time>2015-10-23T14:18:41Z</time>
      </trkpt>
      <trkpt lat="43.2365049887" lon="-0.2681430336">
        <ele>227.49</ele>
        <time>2015-10-23T14:18:42Z</time>
      </trkpt>
      <trkpt lat="43.2358856499" lon="-0.2675707173">
        <ele>227.49</ele>
        <time>2015-10-23T14:19:00Z</time>
      </trkpt>
      <trkpt lat="43.2352753635" lon="-0.2670087107">
        <ele>228.45</ele>
        <time>2015-10-23T14:19:19Z</time>
      </trkpt>
      <trkpt lat="43.2346482296" lon="-0.2664342988">
        <ele>228.45</ele>
        <time>2015-10-23T14:19:39Z</time>
      </trkpt>
      <trkpt lat="43.2341576368" lon="-0.2659866214">
        <ele>228.93</ele>
        <time>2015-10-23T14:19:56Z</time>
      </trkpt>
      <trkpt lat="43.2335394714" lon="-0.2654132154">
        <ele>229.41</ele>
        <time>2015-10-23T14:20:16Z</time>
      </trkpt>
      <trkpt lat="43.2329096552" lon="-0.2647865005">
        <ele>230.37</ele>
        <time>2015-10-23T14:20:37Z</time>
      </trkpt>
      <trkpt lat="43.2324836869" lon="-0.2643674891">
        <ele>230.37</ele>
        <time>2015-10-23T14:20:51Z</time>
      </trkpt>
      <trkpt lat="43.2321883086" lon="-0.2641193848">
        <ele>230.37</ele>
        <time>2015-10-23T14:21:00Z</time>
      </trkpt>
      <trkpt lat="43.231689753" lon="-0.2637430374">
        <ele>230.85</ele>
        <time>2015-10-23T14:21:14Z</time>
      </trkpt>
      <trkpt lat="43.2310574222" lon="-0.2632460743">
        <ele>231.33</ele>
        <time>2015-10-23T14:21:32Z</time>
      </trkpt>
      <trkpt lat="43.2304032147" lon="-0.2627359517">
        <ele>231.81</ele>
        <time>2015-10-23T14:21:50Z</time>
      </trkpt>
      <trkpt lat="43.2297946047" lon="-0.2622551657">
        <ele>232.3</ele>
        <time>2015-10-23T14:22:07Z</time>
      </trkpt>
      <trkpt lat="43.2292374596" lon="-0.2618063986">
        <ele>233.26</ele>
        <time>2015-10-23T14:22:23Z</time>
      </trkpt>
      <trkpt lat="43.2287205476" lon="-0.2614080906">
        <ele>232.78</ele>
        <time>2015-10-23T14:22:39Z</time>
      </trkpt>
      <trkpt lat="43.228117805" lon="-0.2609237842">
        <ele>233.26</ele>
        <time>2015-10-23T14:22:58Z</time>
      </trkpt>
      <trkpt lat="43.2278279588" lon="-0.2606419008">
        <ele>233.74</ele>
        <time>2015-10-23T14:23:08Z</time>
      </trkpt>
      <trkpt lat="43.2278261147" lon="-0.2605982311">
        <ele>234.22</ele>
        <time>2015-10-23T14:23:09Z</time>
      </trkpt>
      <trkpt lat="43.2278307248" lon="-0.2605512086">
        <ele>234.22</ele>
        <time>2015-10-23T14:23:10Z</time>
      </trkpt>
      <trkpt lat="43.2278453931" lon="-0.2605071198">
        <ele>234.22</ele>
        <time>2015-10-23T14:23:11Z</time>
      </trkpt>
      <trkpt lat="43.2278676052" lon="-0.2604659647">
        <ele>234.22</ele>
        <time>2015-10-23T14:23:12Z</time>
      </trkpt>
      <trkpt lat="43.2278939243" lon="-0.2604264859">
        <ele>233.74</ele>
        <time>2015-10-23T14:23:13Z</time>
      </trkpt>
      <trkpt lat="43.2284676656" lon="-0.2598218154">
        <ele>233.26</ele>
        <time>2015-10-23T14:23:31Z</time>
      </trkpt>
      <trkpt lat="43.2286265027" lon="-0.2596615534">
        <ele>233.26</ele>
        <time>2015-10-23T14:23:36Z</time>
      </trkpt>
      <trkpt lat="43.2292304188" lon="-0.2591068391">
        <ele>232.78</ele>
        <time>2015-10-23T14:23:54Z</time>
      </trkpt>
      <trkpt lat="43.2297335006" lon="-0.2586956229">
        <ele>231.33</ele>
        <time>2015-10-23T14:24:09Z</time>
      </trkpt>
      <trkpt lat="43.2301248517" lon="-0.2583844028">
        <ele>232.3</ele>
        <time>2015-10-23T14:24:18Z</time>
      </trkpt>
      <trkpt lat="43.2303606346" lon="-0.2581887692">
        <ele>232.78</ele>
        <time>2015-10-23T14:24:25Z</time>
      </trkpt>
      <trkpt lat="43.2309481222" lon="-0.2576635592">
        <ele>232.3</ele>
        <time>2015-10-23T14:24:41Z</time>
      </trkpt>
      <trkpt lat="43.2316152379" lon="-0.2570645884">
        <ele>232.3</ele>
        <time>2015-10-23T14:24:59Z</time>
      </trkpt>
      <trkpt lat="43.2323301304" lon="-0.2564210258">
        <ele>232.3</ele>
        <time>2015-10-23T14:25:18Z</time>
      </trkpt>
      <trkpt lat="43.2326131873" lon="-0.2561464347">
        <ele>231.81</ele>
        <time>2015-10-23T14:25:26Z</time>
      </trkpt>
      <trkpt lat="43.2331901137" lon="-0.2557732724">
        <ele>231.33</ele>
        <time>2015-10-23T14:25:41Z</time>
      </trkpt>
      <trkpt lat="43.2337533776" lon="-0.2550976072">
        <ele>230.85</ele>
        <time>2015-10-23T14:25:58Z</time>
      </trkpt>
      <trkpt lat="43.2343533542" lon="-0.2547547035">
        <ele>230.37</ele>
        <time>2015-10-23T14:26:13Z</time>
      </trkpt>
      <trkpt lat="43.2344347425" lon="-0.2547212597">
        <ele>230.85</ele>
        <time>2015-10-23T14:26:15Z</time>
      </trkpt>
      <trkpt lat="43.234517388" lon="-0.2546943538">
        <ele>230.85</ele>
        <time>2015-10-23T14:26:17Z</time>
      </trkpt>
      <trkpt lat="43.235162124" lon="-0.2541168407">
        <ele>230.37</ele>
        <time>2015-10-23T14:26:34Z</time>
      </trkpt>
      <trkpt lat="43.2356205303" lon="-0.2534420136">
        <ele>229.41</ele>
        <time>2015-10-23T14:26:50Z</time>
      </trkpt>
      <trkpt lat="43.2358957082" lon="-0.2529926598">
        <ele>228.45</ele>
        <time>2015-10-23T14:27:03Z</time>
      </trkpt>
      <trkpt lat="43.2358863205" lon="-0.2529196534">
        <ele>229.41</ele>
        <time>2015-10-23T14:27:06Z</time>
      </trkpt>
      <trkpt lat="43.2358618453" lon="-0.2528991178">
        <ele>228.93</ele>
        <time>2015-10-23T14:27:07Z</time>
      </trkpt>
      <trkpt lat="43.2358303294" lon="-0.2528881375">
        <ele>229.41</ele>
        <time>2015-10-23T14:27:08Z</time>
      </trkpt>
      <trkpt lat="43.2357973047" lon="-0.2528738044">
        <ele>229.41</ele>
        <time>2015-10-23T14:27:09Z</time>
      </trkpt>
      <trkpt lat="43.2357649505" lon="-0.2528565377">
        <ele>229.41</ele>
        <time>2015-10-23T14:27:10Z</time>
      </trkpt>
      <trkpt lat="43.2354721706" lon="-0.2526880614">
        <ele>229.89</ele>
        <time>2015-10-23T14:27:19Z</time>
      </trkpt>
      <trkpt lat="43.2354605198" lon="-0.2526517678">
        <ele>229.41</ele>
        <time>2015-10-23T14:27:20Z</time>
      </trkpt>
      <trkpt lat="43.2354665548" lon="-0.252612289">
        <ele>228.93</ele>
        <time>2015-10-23T14:27:21Z</time>
      </trkpt>
      <trkpt lat="43.2354847435" lon="-0.2525745705">
        <ele>228.93</ele>
        <time>2015-10-23T14:27:22Z</time>
      </trkpt>
      <trkpt lat="43.2355093025" lon="-0.2525407076">
        <ele>229.41</ele>
        <time>2015-10-23T14:27:23Z</time>
      </trkpt>
      <trkpt lat="43.2355368789" lon="-0.2525098622">
        <ele>229.41</ele>
        <time>2015-10-23T14:27:24Z</time>
      </trkpt>
      <trkpt lat="43.2355649583" lon="-0.2524768375">
        <ele>229.41</ele>
        <time>2015-10-23T14:27:25Z</time>
      </trkpt>
      <trkpt lat="43.2355914451" lon="-0.2524335869">
        <ele>229.41</ele>
        <time>2015-10-23T14:27:26Z</time>
      </trkpt>
      <trkpt lat="43.2356170099" lon="-0.2523872349">
        <ele>229.41</ele>
        <time>2015-10-23T14:27:27Z</time>
      </trkpt>
      <trkpt lat="43.2356417365" lon="-0.2523447387">
        <ele>229.41</ele>
        <time>2015-10-23T14:27:28Z</time>
      </trkpt>
      <trkpt lat="43.2359797787" lon="-0.2516935486">
        <ele>229.41</ele>
        <time>2015-10-23T14:27:42Z</time>
      </trkpt>
      <trkpt lat="43.2361106202" lon="-0.2513911296">
        <ele>228.93</ele>
        <time>2015-10-23T14:27:48Z</time>
      </trkpt>
      <trkpt lat="43.2361383643" lon="-0.2513474599">
        <ele>228.93</ele>
        <time>2015-10-23T14:27:49Z</time>
      </trkpt>
      <trkpt lat="43.2361638453" lon="-0.2513017785">
        <ele>228.93</ele>
        <time>2015-10-23T14:27:50Z</time>
      </trkpt>
      <trkpt lat="43.2362780068" lon="-0.2511027083">
        <ele>229.41</ele>
        <time>2015-10-23T14:27:54Z</time>
      </trkpt>
      <trkpt lat="43.2365517598" lon="-0.2506360039">
        <ele>228.93</ele>
        <time>2015-10-23T14:28:04Z</time>
      </trkpt>
      <trkpt lat="43.2368029654" lon="-0.2500035893">
        <ele>228.93</ele>
        <time>2015-10-23T14:28:17Z</time>
      </trkpt>
      <trkpt lat="43.2368712779" lon="-0.2497333568">
        <ele>227.97</ele>
        <time>2015-10-23T14:28:25Z</time>
      </trkpt>
      <trkpt lat="43.2369024586" lon="-0.2492981683">
        <ele>228.45</ele>
        <time>2015-10-23T14:28:36Z</time>
      </trkpt>
      <trkpt lat="43.2370345574" lon="-0.2486698609">
        <ele>228.45</ele>
        <time>2015-10-23T14:28:52Z</time>
      </trkpt>
      <trkpt lat="43.2372052129" lon="-0.2483166475">
        <ele>228.93</ele>
        <time>2015-10-23T14:29:06Z</time>
      </trkpt>
      <trkpt lat="43.2373948116" lon="-0.2480267175">
        <ele>228.93</ele>
        <time>2015-10-23T14:29:17Z</time>
      </trkpt>
      <trkpt lat="43.2377296686" lon="-0.2475897688">
        <ele>229.41</ele>
        <time>2015-10-23T14:29:29Z</time>
      </trkpt>
      <trkpt lat="43.2378843985" lon="-0.2475650422">
        <ele>228.45</ele>
        <time>2015-10-23T14:29:35Z</time>
      </trkpt>
      <trkpt lat="43.2380377874" lon="-0.2475763578">
        <ele>228.45</ele>
        <time>2015-10-23T14:29:46Z</time>
      </trkpt>
      <trkpt lat="43.2380455825" lon="-0.2475813031">
        <ele>228.45</ele>
        <time>2015-10-23T14:29:54Z</time>
      </trkpt>
      <trkpt lat="43.238080116" lon="-0.2474963106">
        <ele>228.45</ele>
        <time>2015-10-23T14:30:03Z</time>
      </trkpt>
      <trkpt lat="43.238093527" lon="-0.2474719193">
        <ele>228.93</ele>
        <time>2015-10-23T14:30:11Z</time>
      </trkpt>
      <trkpt lat="43.2380804513" lon="-0.2473845799">
        <ele>229.41</ele>
        <time>2015-10-23T14:30:16Z</time>
      </trkpt>
      <trkpt lat="43.2381897513" lon="-0.2469493914">
        <ele>229.89</ele>
        <time>2015-10-23T14:30:29Z</time>
      </trkpt>
      <trkpt lat="43.238562746" lon="-0.2466468886">
        <ele>230.37</ele>
        <time>2015-10-23T14:30:42Z</time>
      </trkpt>
      <trkpt lat="43.2390186377" lon="-0.2461997978">
        <ele>229.89</ele>
        <time>2015-10-23T14:30:56Z</time>
      </trkpt>
      <trkpt lat="43.2396211289" lon="-0.2458327543">
        <ele>229.89</ele>
        <time>2015-10-23T14:31:12Z</time>
      </trkpt>
      <trkpt lat="43.2400769368" lon="-0.2453003358">
        <ele>230.85</ele>
        <time>2015-10-23T14:31:27Z</time>
      </trkpt>
      <trkpt lat="43.2405841257" lon="-0.2449046262">
        <ele>230.85</ele>
        <time>2015-10-23T14:31:42Z</time>
      </trkpt>
      <trkpt lat="43.2411239203" lon="-0.2445311286">
        <ele>233.26</ele>
        <time>2015-10-23T14:32:01Z</time>
      </trkpt>
      <trkpt lat="43.2414593641" lon="-0.2440967783">
        <ele>235.18</ele>
        <time>2015-10-23T14:32:17Z</time>
      </trkpt>
      <trkpt lat="43.2415477931" lon="-0.2437848877">
        <ele>237.1</ele>
        <time>2015-10-23T14:32:28Z</time>
      </trkpt>
      <trkpt lat="43.2414704282" lon="-0.2435517032">
        <ele>238.54</ele>
        <time>2015-10-23T14:32:41Z</time>
      </trkpt>
      <trkpt lat="43.2414078154" lon="-0.2433970571">
        <ele>240.47</ele>
        <time>2015-10-23T14:32:50Z</time>
      </trkpt>
      <trkpt lat="43.2413749583" lon="-0.2433388866">
        <ele>240.47</ele>
        <time>2015-10-23T14:32:53Z</time>
      </trkpt>
      <trkpt lat="43.2413708512" lon="-0.2433213685">
        <ele>240.95</ele>
        <time>2015-10-23T14:32:54Z</time>
      </trkpt>
      <trkpt lat="43.2413691748" lon="-0.2433047723">
        <ele>240.47</ele>
        <time>2015-10-23T14:32:55Z</time>
      </trkpt>
      <trkpt lat="43.2413478009" lon="-0.2432625275">
        <ele>240.47</ele>
        <time>2015-10-23T14:32:59Z</time>
      </trkpt>
      <trkpt lat="43.2413443644" lon="-0.2432320174">
        <ele>240.95</ele>
        <time>2015-10-23T14:33:01Z</time>
      </trkpt>
      <trkpt lat="43.2412816677" lon="-0.2429840807">
        <ele>242.87</ele>
        <time>2015-10-23T14:33:18Z</time>
      </trkpt>
      <trkpt lat="43.2412595395" lon="-0.2429185342">
        <ele>242.87</ele>
        <time>2015-10-23T14:33:24Z</time>
      </trkpt>
      <trkpt lat="43.2412547618" lon="-0.2429027762">
        <ele>243.35</ele>
        <time>2015-10-23T14:33:25Z</time>
      </trkpt>
      <trkpt lat="43.2412494812" lon="-0.2428828273">
        <ele>243.35</ele>
        <time>2015-10-23T14:33:26Z</time>
      </trkpt>
      <trkpt lat="43.2412435301" lon="-0.242867237">
        <ele>243.83</ele>
        <time>2015-10-23T14:33:27Z</time>
      </trkpt>
      <trkpt lat="43.2411665004" lon="-0.2427227329">
        <ele>244.79</ele>
        <time>2015-10-23T14:33:40Z</time>
      </trkpt>
      <trkpt lat="43.2411266025" lon="-0.2426291909">
        <ele>245.75</ele>
        <time>2015-10-23T14:33:50Z</time>
      </trkpt>
      <trkpt lat="43.2410987746" lon="-0.242592562">
        <ele>246.23</ele>
        <time>2015-10-23T14:33:53Z</time>
      </trkpt>
      <trkpt lat="43.2410702761" lon="-0.2425331343">
        <ele>246.23</ele>
        <time>2015-10-23T14:33:58Z</time>
      </trkpt>
      <trkpt lat="43.2410580385" lon="-0.2425268479">
        <ele>246.72</ele>
        <time>2015-10-23T14:33:59Z</time>
      </trkpt>
      <trkpt lat="43.2409830205" lon="-0.2424464654">
        <ele>247.68</ele>
        <time>2015-10-23T14:34:09Z</time>
      </trkpt>
      <trkpt lat="43.2409729622" lon="-0.2424144465">
        <ele>247.68</ele>
        <time>2015-10-23T14:34:11Z</time>
      </trkpt>
      <trkpt lat="43.2409636583" lon="-0.2423830144">
        <ele>248.64</ele>
        <time>2015-10-23T14:34:13Z</time>
      </trkpt>
      <trkpt lat="43.2409576233" lon="-0.2423649933">
        <ele>248.64</ele>
        <time>2015-10-23T14:34:14Z</time>
      </trkpt>
      <trkpt lat="43.2409037277" lon="-0.2422608901">
        <ele>249.12</ele>
        <time>2015-10-23T14:34:22Z</time>
      </trkpt>
      <trkpt lat="43.2408578787" lon="-0.2421319764">
        <ele>250.08</ele>
        <time>2015-10-23T14:34:31Z</time>
      </trkpt>
      <trkpt lat="43.2408213336" lon="-0.2420838643">
        <ele>251.04</ele>
        <time>2015-10-23T14:34:36Z</time>
      </trkpt>
      <trkpt lat="43.2407828607" lon="-0.2420334052">
        <ele>251.52</ele>
        <time>2015-10-23T14:34:42Z</time>
      </trkpt>
      <trkpt lat="43.2407764066" lon="-0.2419849578">
        <ele>252</ele>
        <time>2015-10-23T14:34:44Z</time>
      </trkpt>
      <trkpt lat="43.240775317" lon="-0.2419167291">
        <ele>252.48</ele>
        <time>2015-10-23T14:34:46Z</time>
      </trkpt>
      <trkpt lat="43.2407712936" lon="-0.241904743">
        <ele>252.48</ele>
        <time>2015-10-23T14:34:47Z</time>
      </trkpt>
      <trkpt lat="43.2407555357" lon="-0.2418799326">
        <ele>252.96</ele>
        <time>2015-10-23T14:34:49Z</time>
      </trkpt>
      <trkpt lat="43.2407432143" lon="-0.2418514341">
        <ele>253.44</ele>
        <time>2015-10-23T14:34:50Z</time>
      </trkpt>
      <trkpt lat="43.2407388557" lon="-0.2418172359">
        <ele>253.44</ele>
        <time>2015-10-23T14:34:51Z</time>
      </trkpt>
      <trkpt lat="43.2407417055" lon="-0.2417920064">
        <ele>253.44</ele>
        <time>2015-10-23T14:34:52Z</time>
      </trkpt>
      <trkpt lat="43.2406941801" lon="-0.2416484244">
        <ele>254.89</ele>
        <time>2015-10-23T14:35:02Z</time>
      </trkpt>
      <trkpt lat="43.2406861335" lon="-0.2416365221">
        <ele>254.89</ele>
        <time>2015-10-23T14:35:03Z</time>
      </trkpt>
      <trkpt lat="43.2406789251" lon="-0.2416243684">
        <ele>254.89</ele>
        <time>2015-10-23T14:35:04Z</time>
      </trkpt>
      <trkpt lat="43.2406455651" lon="-0.2415210195">
        <ele>256.33</ele>
        <time>2015-10-23T14:35:10Z</time>
      </trkpt>
      <trkpt lat="43.2406288013" lon="-0.241493443">
        <ele>256.33</ele>
        <time>2015-10-23T14:35:12Z</time>
      </trkpt>
      <trkpt lat="43.240622934" lon="-0.2414723206">
        <ele>256.81</ele>
        <time>2015-10-23T14:35:13Z</time>
      </trkpt>
      <trkpt lat="43.2405981235" lon="-0.241305856">
        <ele>257.77</ele>
        <time>2015-10-23T14:35:21Z</time>
      </trkpt>
      <trkpt lat="43.2406013925" lon="-0.2411533892">
        <ele>258.25</ele>
        <time>2015-10-23T14:35:27Z</time>
      </trkpt>
      <trkpt lat="43.2405941002" lon="-0.2411395591">
        <ele>258.25</ele>
        <time>2015-10-23T14:35:28Z</time>
      </trkpt>
      <trkpt lat="43.2405905798" lon="-0.2411198616">
        <ele>258.73</ele>
        <time>2015-10-23T14:35:29Z</time>
      </trkpt>
      <trkpt lat="43.2405908313" lon="-0.2410933748">
        <ele>258.73</ele>
        <time>2015-10-23T14:35:30Z</time>
      </trkpt>
      <trkpt lat="43.2405966148" lon="-0.2410640381">
        <ele>258.73</ele>
        <time>2015-10-23T14:35:31Z</time>
      </trkpt>
      <trkpt lat="43.2406023983" lon="-0.2410349529">
        <ele>259.21</ele>
        <time>2015-10-23T14:35:32Z</time>
      </trkpt>
      <trkpt lat="43.2405902445" lon="-0.2408673987">
        <ele>260.65</ele>
        <time>2015-10-23T14:35:42Z</time>
      </trkpt>
      <trkpt lat="43.2405847125" lon="-0.2408053726">
        <ele>261.14</ele>
        <time>2015-10-23T14:35:45Z</time>
      </trkpt>
      <trkpt lat="43.2405842934" lon="-0.2407839149">
        <ele>261.14</ele>
        <time>2015-10-23T14:35:46Z</time>
      </trkpt>
      <trkpt lat="43.24058773" lon="-0.2407598589">
        <ele>261.14</ele>
        <time>2015-10-23T14:35:47Z</time>
      </trkpt>
      <trkpt lat="43.2405934297" lon="-0.2407337911">
        <ele>261.14</ele>
        <time>2015-10-23T14:35:48Z</time>
      </trkpt>
      <trkpt lat="43.2405905798" lon="-0.2407013532">
        <ele>261.14</ele>
        <time>2015-10-23T14:35:50Z</time>
      </trkpt>
      <trkpt lat="43.2405815274" lon="-0.2406897023">
        <ele>261.62</ele>
        <time>2015-10-23T14:35:51Z</time>
      </trkpt>
      <trkpt lat="43.240573816" lon="-0.2406762913">
        <ele>262.1</ele>
        <time>2015-10-23T14:35:52Z</time>
      </trkpt>
      <trkpt lat="43.2405697927" lon="-0.2406596113">
        <ele>262.1</ele>
        <time>2015-10-23T14:35:53Z</time>
      </trkpt>
      <trkpt lat="43.2405702118" lon="-0.2406411711">
        <ele>262.1</ele>
        <time>2015-10-23T14:35:54Z</time>
      </trkpt>
      <trkpt lat="43.2405711338" lon="-0.2406221442">
        <ele>262.58</ele>
        <time>2015-10-23T14:35:55Z</time>
      </trkpt>
      <trkpt lat="43.2405682001" lon="-0.2406042069">
        <ele>262.58</ele>
        <time>2015-10-23T14:35:56Z</time>
      </trkpt>
      <trkpt lat="43.2405651826" lon="-0.240589371">
        <ele>263.06</ele>
        <time>2015-10-23T14:35:57Z</time>
      </trkpt>
      <trkpt lat="43.2405593153" lon="-0.240574535">
        <ele>262.58</ele>
        <time>2015-10-23T14:35:58Z</time>
      </trkpt>
      <trkpt lat="43.2405527774" lon="-0.2405563463">
        <ele>263.06</ele>
        <time>2015-10-23T14:35:59Z</time>
      </trkpt>
      <trkpt lat="43.2405324932" lon="-0.2404829208">
        <ele>263.54</ele>
        <time>2015-10-23T14:36:03Z</time>
      </trkpt>
      <trkpt lat="43.2405289728" lon="-0.2404597029">
        <ele>264.02</ele>
        <time>2015-10-23T14:36:04Z</time>
      </trkpt>
      <trkpt lat="43.2405262068" lon="-0.2404411789">
        <ele>264.5</ele>
        <time>2015-10-23T14:36:05Z</time>
      </trkpt>
      <trkpt lat="43.2405180763" lon="-0.2403989341">
        <ele>264.98</ele>
        <time>2015-10-23T14:36:08Z</time>
      </trkpt>
      <trkpt lat="43.2405166514" lon="-0.2403741237">
        <ele>264.98</ele>
        <time>2015-10-23T14:36:09Z</time>
      </trkpt>
      <trkpt lat="43.2405185793" lon="-0.2402995247">
        <ele>265.46</ele>
        <time>2015-10-23T14:36:12Z</time>
      </trkpt>
      <trkpt lat="43.2405204233" lon="-0.2402575314">
        <ele>265.94</ele>
        <time>2015-10-23T14:36:14Z</time>
      </trkpt>
      <trkpt lat="43.2405378576" lon="-0.2400765661">
        <ele>267.38</ele>
        <time>2015-10-23T14:36:25Z</time>
      </trkpt>
      <trkpt lat="43.2405370194" lon="-0.2400362492">
        <ele>267.86</ele>
        <time>2015-10-23T14:36:28Z</time>
      </trkpt>
      <trkpt lat="43.2405401208" lon="-0.2399700321">
        <ele>268.35</ele>
        <time>2015-10-23T14:36:30Z</time>
      </trkpt>
      <trkpt lat="43.2405508496" lon="-0.239929799">
        <ele>268.35</ele>
        <time>2015-10-23T14:36:32Z</time>
      </trkpt>
      <trkpt lat="43.2405604888" lon="-0.2399118617">
        <ele>268.35</ele>
        <time>2015-10-23T14:36:33Z</time>
      </trkpt>
      <trkpt lat="43.2405831199" lon="-0.2398552839">
        <ele>268.83</ele>
        <time>2015-10-23T14:36:35Z</time>
      </trkpt>
      <trkpt lat="43.2406130433" lon="-0.2397036552">
        <ele>269.79</ele>
        <time>2015-10-23T14:36:42Z</time>
      </trkpt>
      <trkpt lat="43.2406184915" lon="-0.2396868914">
        <ele>269.31</ele>
        <time>2015-10-23T14:36:43Z</time>
      </trkpt>
      <trkpt lat="43.240622934" lon="-0.2396674454">
        <ele>269.79</ele>
        <time>2015-10-23T14:36:44Z</time>
      </trkpt>
      <trkpt lat="43.2406277955" lon="-0.2396485861">
        <ele>269.79</ele>
        <time>2015-10-23T14:36:45Z</time>
      </trkpt>
      <trkpt lat="43.2406329084" lon="-0.2396293078">
        <ele>270.27</ele>
        <time>2015-10-23T14:36:46Z</time>
      </trkpt>
      <trkpt lat="43.2406398654" lon="-0.2395659406">
        <ele>270.27</ele>
        <time>2015-10-23T14:36:49Z</time>
      </trkpt>
      <trkpt lat="43.2406393625" lon="-0.2395449858">
        <ele>270.75</ele>
        <time>2015-10-23T14:36:50Z</time>
      </trkpt>
      <trkpt lat="43.2406422962" lon="-0.2395229414">
        <ele>270.75</ele>
        <time>2015-10-23T14:36:51Z</time>
      </trkpt>
      <trkpt lat="43.24064699" lon="-0.2394983824">
        <ele>270.75</ele>
        <time>2015-10-23T14:36:52Z</time>
      </trkpt>
      <trkpt lat="43.2406541146" lon="-0.2394796908">
        <ele>270.75</ele>
        <time>2015-10-23T14:36:53Z</time>
      </trkpt>
      <trkpt lat="43.2406639215" lon="-0.2394627593">
        <ele>271.23</ele>
        <time>2015-10-23T14:36:54Z</time>
      </trkpt>
      <trkpt lat="43.2406845409" lon="-0.239387909">
        <ele>271.71</ele>
        <time>2015-10-23T14:36:59Z</time>
      </trkpt>
      <trkpt lat="43.2406877261" lon="-0.239366116">
        <ele>271.71</ele>
        <time>2015-10-23T14:37:00Z</time>
      </trkpt>
      <trkpt lat="43.2406878099" lon="-0.2393470891">
        <ele>271.71</ele>
        <time>2015-10-23T14:37:01Z</time>
      </trkpt>
      <trkpt lat="43.2406868879" lon="-0.2391128987">
        <ele>273.63</ele>
        <time>2015-10-23T14:37:14Z</time>
      </trkpt>
      <trkpt lat="43.2406811044" lon="-0.2391007449">
        <ele>274.11</ele>
        <time>2015-10-23T14:37:15Z</time>
      </trkpt>
      <trkpt lat="43.2406694535" lon="-0.2389457636">
        <ele>275.07</ele>
        <time>2015-10-23T14:37:26Z</time>
      </trkpt>
      <trkpt lat="43.2406629995" lon="-0.238920534">
        <ele>276.04</ele>
        <time>2015-10-23T14:37:28Z</time>
      </trkpt>
      <trkpt lat="43.2406616583" lon="-0.2388852462">
        <ele>276.04</ele>
        <time>2015-10-23T14:37:30Z</time>
      </trkpt>
      <trkpt lat="43.2406145521" lon="-0.2386498824">
        <ele>277.96</ele>
        <time>2015-10-23T14:37:43Z</time>
      </trkpt>
      <trkpt lat="43.2406101935" lon="-0.2386392374">
        <ele>277.48</ele>
        <time>2015-10-23T14:37:44Z</time>
      </trkpt>
      <trkpt lat="43.2405548729" lon="-0.2384396642">
        <ele>278.92</ele>
        <time>2015-10-23T14:37:57Z</time>
      </trkpt>
      <trkpt lat="43.2405351754" lon="-0.2383985929">
        <ele>279.4</ele>
        <time>2015-10-23T14:38:00Z</time>
      </trkpt>
      <trkpt lat="43.2405148912" lon="-0.2383720223">
        <ele>279.88</ele>
        <time>2015-10-23T14:38:03Z</time>
      </trkpt>
      <trkpt lat="43.2405224349" lon="-0.2381255943">
        <ele>281.32</ele>
        <time>2015-10-23T14:38:16Z</time>
      </trkpt>
      <trkpt lat="43.2405566331" lon="-0.2380440384">
        <ele>281.8</ele>
        <time>2015-10-23T14:38:20Z</time>
      </trkpt>
      <trkpt lat="43.2405975368" lon="-0.2379894722">
        <ele>282.28</ele>
        <time>2015-10-23T14:38:23Z</time>
      </trkpt>
      <trkpt lat="43.2406270411" lon="-0.2379607223">
        <ele>282.77</ele>
        <time>2015-10-23T14:38:26Z</time>
      </trkpt>
      <trkpt lat="43.2407090161" lon="-0.2379052341">
        <ele>283.73</ele>
        <time>2015-10-23T14:38:32Z</time>
      </trkpt>
      <trkpt lat="43.240734078" lon="-0.2378764842">
        <ele>283.73</ele>
        <time>2015-10-23T14:38:35Z</time>
      </trkpt>
      <trkpt lat="43.2408259436" lon="-0.2378188167">
        <ele>284.69</ele>
        <time>2015-10-23T14:38:41Z</time>
      </trkpt>
      <trkpt lat="43.2409256883" lon="-0.2378097642">
        <ele>285.17</ele>
        <time>2015-10-23T14:38:47Z</time>
      </trkpt>
      <trkpt lat="43.2410169672" lon="-0.2378251031">
        <ele>285.17</ele>
        <time>2015-10-23T14:38:54Z</time>
      </trkpt>
      <trkpt lat="43.2411602978" lon="-0.2378799208">
        <ele>287.09</ele>
        <time>2015-10-23T14:39:08Z</time>
      </trkpt>
      <trkpt lat="43.2413044665" lon="-0.2379178908">
        <ele>288.05</ele>
        <time>2015-10-23T14:39:22Z</time>
      </trkpt>
      <trkpt lat="43.241336653" lon="-0.2379254345">
        <ele>288.05</ele>
        <time>2015-10-23T14:39:25Z</time>
      </trkpt>
      <trkpt lat="43.241363056" lon="-0.2379254345">
        <ele>288.53</ele>
        <time>2015-10-23T14:39:27Z</time>
      </trkpt>
      <trkpt lat="43.2414418459" lon="-0.237972457">
        <ele>289.01</ele>
        <time>2015-10-23T14:39:35Z</time>
      </trkpt>
      <trkpt lat="43.2415917143" lon="-0.2380603831">
        <ele>289.97</ele>
        <time>2015-10-23T14:39:49Z</time>
      </trkpt>
      <trkpt lat="43.2416024432" lon="-0.2380692679">
        <ele>289.97</ele>
        <time>2015-10-23T14:39:50Z</time>
      </trkpt>
      <trkpt lat="43.2417012658" lon="-0.2381304558">
        <ele>291.42</ele>
        <time>2015-10-23T14:40:04Z</time>
      </trkpt>
      <trkpt lat="43.241726663" lon="-0.2381571941">
        <ele>291.42</ele>
        <time>2015-10-23T14:40:07Z</time>
      </trkpt>
      <trkpt lat="43.2418642938" lon="-0.2383005247">
        <ele>292.86</ele>
        <time>2015-10-23T14:40:21Z</time>
      </trkpt>
      <trkpt lat="43.2418913674" lon="-0.2383426856">
        <ele>293.34</ele>
        <time>2015-10-23T14:40:26Z</time>
      </trkpt>
      <trkpt lat="43.2419106457" lon="-0.2383580245">
        <ele>293.82</ele>
        <time>2015-10-23T14:40:28Z</time>
      </trkpt>
      <trkpt lat="43.2419259846" lon="-0.2383791469">
        <ele>294.3</ele>
        <time>2015-10-23T14:40:30Z</time>
      </trkpt>
      <trkpt lat="43.2419632841" lon="-0.2384124231">
        <ele>294.3</ele>
        <time>2015-10-23T14:40:34Z</time>
      </trkpt>
      <trkpt lat="43.2420567423" lon="-0.2384343836">
        <ele>295.26</ele>
        <time>2015-10-23T14:40:40Z</time>
      </trkpt>
      <trkpt lat="43.2421771064" lon="-0.2384664863">
        <ele>296.22</ele>
        <time>2015-10-23T14:40:48Z</time>
      </trkpt>
      <trkpt lat="43.2422066946" lon="-0.2384801488">
        <ele>296.7</ele>
        <time>2015-10-23T14:40:50Z</time>
      </trkpt>
      <trkpt lat="43.2423384581" lon="-0.2385297697">
        <ele>297.67</ele>
        <time>2015-10-23T14:40:59Z</time>
      </trkpt>
      <trkpt lat="43.2424874883" lon="-0.2385475393">
        <ele>299.11</ele>
        <time>2015-10-23T14:41:11Z</time>
      </trkpt>
      <trkpt lat="43.2425421383" lon="-0.2385438513">
        <ele>299.11</ele>
        <time>2015-10-23T14:41:15Z</time>
      </trkpt>
      <trkpt lat="43.2427946012" lon="-0.2385478746">
        <ele>301.03</ele>
        <time>2015-10-23T14:41:32Z</time>
      </trkpt>
      <trkpt lat="43.2428919151" lon="-0.2385306079">
        <ele>302.47</ele>
        <time>2015-10-23T14:41:39Z</time>
      </trkpt>
      <trkpt lat="43.2429666817" lon="-0.238514347">
        <ele>302.47</ele>
        <time>2015-10-23T14:41:44Z</time>
      </trkpt>
      <trkpt lat="43.243193496" lon="-0.2384733595">
        <ele>303.91</ele>
        <time>2015-10-23T14:41:58Z</time>
      </trkpt>
      <trkpt lat="43.2434230763" lon="-0.2384225652">
        <ele>304.88</ele>
        <time>2015-10-23T14:42:13Z</time>
      </trkpt>
      <trkpt lat="43.2436481304" lon="-0.2383903787">
        <ele>305.84</ele>
        <time>2015-10-23T14:42:28Z</time>
      </trkpt>
      <trkpt lat="43.2437921315" lon="-0.2382727806">
        <ele>306.8</ele>
        <time>2015-10-23T14:42:42Z</time>
      </trkpt>
      <trkpt lat="43.2438404113" lon="-0.2381580323">
        <ele>307.76</ele>
        <time>2015-10-23T14:42:51Z</time>
      </trkpt>
      <trkpt lat="43.2438217197" lon="-0.2379738819">
        <ele>309.2</ele>
        <time>2015-10-23T14:43:05Z</time>
      </trkpt>
      <trkpt lat="43.243822474" lon="-0.2379390132">
        <ele>309.68</ele>
        <time>2015-10-23T14:43:07Z</time>
      </trkpt>
      <trkpt lat="43.2438155171" lon="-0.2379012946">
        <ele>309.68</ele>
        <time>2015-10-23T14:43:09Z</time>
      </trkpt>
      <trkpt lat="43.2438106555" lon="-0.2378781606">
        <ele>310.16</ele>
        <time>2015-10-23T14:43:11Z</time>
      </trkpt>
      <trkpt lat="43.2438022736" lon="-0.2377993707">
        <ele>310.64</ele>
        <time>2015-10-23T14:43:19Z</time>
      </trkpt>
      <trkpt lat="43.2437907066" lon="-0.2377766557">
        <ele>311.12</ele>
        <time>2015-10-23T14:43:21Z</time>
      </trkpt>
      <trkpt lat="43.243708564" lon="-0.2375978697">
        <ele>312.09</ele>
        <time>2015-10-23T14:43:33Z</time>
      </trkpt>
      <trkpt lat="43.2435917202" lon="-0.2374266274">
        <ele>313.53</ele>
        <time>2015-10-23T14:43:42Z</time>
      </trkpt>
      <trkpt lat="43.2435388304" lon="-0.2373445686">
        <ele>314.01</ele>
        <time>2015-10-23T14:43:48Z</time>
      </trkpt>
      <trkpt lat="43.2434950769" lon="-0.2372811176">
        <ele>314.49</ele>
        <time>2015-10-23T14:43:53Z</time>
      </trkpt>
      <trkpt lat="43.2434783131" lon="-0.2372499369">
        <ele>314.49</ele>
        <time>2015-10-23T14:43:55Z</time>
      </trkpt>
      <trkpt lat="43.2433678396" lon="-0.2370588295">
        <ele>315.93</ele>
        <time>2015-10-23T14:44:03Z</time>
      </trkpt>
      <trkpt lat="43.2433245052" lon="-0.2370101307">
        <ele>315.93</ele>
        <time>2015-10-23T14:44:06Z</time>
      </trkpt>
      <trkpt lat="43.2432795782" lon="-0.2370128967">
        <ele>316.41</ele>
        <time>2015-10-23T14:44:19Z</time>
      </trkpt>
      <trkpt lat="43.2432747167" lon="-0.2369268145">
        <ele>316.41</ele>
        <time>2015-10-23T14:44:31Z</time>
      </trkpt>
      <trkpt lat="43.2434503175" lon="-0.2366865892">
        <ele>317.37</ele>
        <time>2015-10-23T14:45:01Z</time>
      </trkpt>
      <trkpt lat="43.2434343081" lon="-0.2366780397">
        <ele>317.85</ele>
        <time>2015-10-23T14:45:21Z</time>
      </trkpt>
      <trkpt lat="43.243427854" lon="-0.236680638">
        <ele>317.85</ele>
        <time>2015-10-23T14:45:38Z</time>
      </trkpt>
      <trkpt lat="43.24344269" lon="-0.2366756089">
        <ele>318.33</ele>
        <time>2015-10-23T14:46:09Z</time>
      </trkpt>
      <trkpt lat="43.2434439473" lon="-0.2366698254">
        <ele>319.3</ele>
        <time>2015-10-23T14:46:32Z</time>
      </trkpt>
      <trkpt lat="43.2434309553" lon="-0.2366447635">
        <ele>319.78</ele>
        <time>2015-10-23T14:46:36Z</time>
      </trkpt>
      <trkpt lat="43.2432567794" lon="-0.2365224715">
        <ele>319.78</ele>
        <time>2015-10-23T14:46:46Z</time>
      </trkpt>
      <trkpt lat="43.2432437874" lon="-0.2365073841">
        <ele>319.78</ele>
        <time>2015-10-23T14:46:47Z</time>
      </trkpt>
      <trkpt lat="43.2431799173" lon="-0.2364121657">
        <ele>320.26</ele>
        <time>2015-10-23T14:46:50Z</time>
      </trkpt>
      <trkpt lat="43.2431572862" lon="-0.2363614552">
        <ele>319.3</ele>
        <time>2015-10-23T14:46:51Z</time>
      </trkpt>
      <trkpt lat="43.2431491558" lon="-0.2363202162">
        <ele>319.3</ele>
        <time>2015-10-23T14:46:52Z</time>
      </trkpt>
      <trkpt lat="43.2429773267" lon="-0.2358856983">
        <ele>318.33</ele>
        <time>2015-10-23T14:47:03Z</time>
      </trkpt>
      <trkpt lat="43.2427814417" lon="-0.2355278749">
        <ele>317.85</ele>
        <time>2015-10-23T14:47:12Z</time>
      </trkpt>
      <trkpt lat="43.2426858041" lon="-0.2354163118">
        <ele>318.33</ele>
        <time>2015-10-23T14:47:16Z</time>
      </trkpt>
      <trkpt lat="43.2425569743" lon="-0.2352055069">
        <ele>317.85</ele>
        <time>2015-10-23T14:47:21Z</time>
      </trkpt>
      <trkpt lat="43.242508946" lon="-0.2351632621">
        <ele>317.37</ele>
        <time>2015-10-23T14:47:22Z</time>
      </trkpt>
      <trkpt lat="43.2424569782" lon="-0.2351200953">
        <ele>317.37</ele>
        <time>2015-10-23T14:47:23Z</time>
      </trkpt>
      <trkpt lat="43.2424045913" lon="-0.2350740787">
        <ele>316.41</ele>
        <time>2015-10-23T14:47:24Z</time>
      </trkpt>
      <trkpt lat="43.2423501927" lon="-0.2350250445">
        <ele>316.41</ele>
        <time>2015-10-23T14:47:25Z</time>
      </trkpt>
      <trkpt lat="43.2422979735" lon="-0.2349674609">
        <ele>315.93</ele>
        <time>2015-10-23T14:47:26Z</time>
      </trkpt>
      <trkpt lat="43.242253717" lon="-0.2349106316">
        <ele>315.93</ele>
        <time>2015-10-23T14:47:27Z</time>
      </trkpt>
      <trkpt lat="43.2421136554" lon="-0.2347338572">
        <ele>317.37</ele>
        <time>2015-10-23T14:47:31Z</time>
      </trkpt>
      <trkpt lat="43.2420832291" lon="-0.2346702386">
        <ele>319.3</ele>
        <time>2015-10-23T14:47:33Z</time>
      </trkpt>
      <trkpt lat="43.2418712508" lon="-0.2344127465">
        <ele>321.22</ele>
        <time>2015-10-23T14:47:46Z</time>
      </trkpt>
      <trkpt lat="43.2415596116" lon="-0.234174449">
        <ele>320.74</ele>
        <time>2015-10-23T14:47:57Z</time>
      </trkpt>
      <trkpt lat="43.2415365614" lon="-0.2341640554">
        <ele>320.26</ele>
        <time>2015-10-23T14:47:58Z</time>
      </trkpt>
      <trkpt lat="43.2415181212" lon="-0.2341569308">
        <ele>320.74</ele>
        <time>2015-10-23T14:47:59Z</time>
      </trkpt>
      <trkpt lat="43.2414353918" lon="-0.2341231517">
        <ele>320.74</ele>
        <time>2015-10-23T14:48:03Z</time>
      </trkpt>
      <trkpt lat="43.2414189633" lon="-0.2341085672">
        <ele>321.22</ele>
        <time>2015-10-23T14:48:04Z</time>
      </trkpt>
      <trkpt lat="43.2413957454" lon="-0.2340983413">
        <ele>320.26</ele>
        <time>2015-10-23T14:48:05Z</time>
      </trkpt>
      <trkpt lat="43.2413782272" lon="-0.2340941504">
        <ele>320.74</ele>
        <time>2015-10-23T14:48:06Z</time>
      </trkpt>
      <trkpt lat="43.2413591165" lon="-0.2340843435">
        <ele>320.74</ele>
        <time>2015-10-23T14:48:07Z</time>
      </trkpt>
      <trkpt lat="43.2413361501" lon="-0.234065149">
        <ele>320.74</ele>
        <time>2015-10-23T14:48:08Z</time>
      </trkpt>
      <trkpt lat="43.2413131837" lon="-0.2340431884">
        <ele>320.74</ele>
        <time>2015-10-23T14:48:09Z</time>
      </trkpt>
      <trkpt lat="43.2412886247" lon="-0.2340225689">
        <ele>321.22</ele>
        <time>2015-10-23T14:48:10Z</time>
      </trkpt>
      <trkpt lat="43.2412509061" lon="-0.2340042125">
        <ele>320.74</ele>
        <time>2015-10-23T14:48:11Z</time>
      </trkpt>
      <trkpt lat="43.2412031293" lon="-0.2339854371">
        <ele>321.22</ele>
        <time>2015-10-23T14:48:12Z</time>
      </trkpt>
      <trkpt lat="43.2411577832" lon="-0.2339657396">
        <ele>320.74</ele>
        <time>2015-10-23T14:48:13Z</time>
      </trkpt>
      <trkpt lat="43.2411114313" lon="-0.233948892">
        <ele>321.22</ele>
        <time>2015-10-23T14:48:14Z</time>
      </trkpt>
      <trkpt lat="43.2410829328" lon="-0.2339335531">
        <ele>321.7</ele>
        <time>2015-10-23T14:48:15Z</time>
      </trkpt>
      <trkpt lat="43.2410473097" lon="-0.2339165378">
        <ele>321.22</ele>
        <time>2015-10-23T14:48:16Z</time>
      </trkpt>
      <trkpt lat="43.241013363" lon="-0.233886363">
        <ele>321.7</ele>
        <time>2015-10-23T14:48:17Z</time>
      </trkpt>
      <trkpt lat="43.2409777399" lon="-0.233857194">
        <ele>322.18</ele>
        <time>2015-10-23T14:48:18Z</time>
      </trkpt>
      <trkpt lat="43.2409434579" lon="-0.2338234987">
        <ele>322.66</ele>
        <time>2015-10-23T14:48:19Z</time>
      </trkpt>
      <trkpt lat="43.2406958565" lon="-0.2335043997">
        <ele>325.54</ele>
        <time>2015-10-23T14:48:30Z</time>
      </trkpt>
      <trkpt lat="43.2406625804" lon="-0.2334691957">
        <ele>325.54</ele>
        <time>2015-10-23T14:48:32Z</time>
      </trkpt>
      <trkpt lat="43.2406299748" lon="-0.2334545273">
        <ele>325.54</ele>
        <time>2015-10-23T14:48:33Z</time>
      </trkpt>
      <trkpt lat="43.2406065054" lon="-0.2334362548">
        <ele>325.06</ele>
        <time>2015-10-23T14:48:34Z</time>
      </trkpt>
      <trkpt lat="43.2405873109" lon="-0.2334181499">
        <ele>325.54</ele>
        <time>2015-10-23T14:48:35Z</time>
      </trkpt>
      <trkpt lat="43.2405716367" lon="-0.2333948482">
        <ele>326.02</ele>
        <time>2015-10-23T14:48:36Z</time>
      </trkpt>
      <trkpt lat="43.240552526" lon="-0.2333676908">
        <ele>326.02</ele>
        <time>2015-10-23T14:48:37Z</time>
      </trkpt>
      <trkpt lat="43.2405305654" lon="-0.2333437186">
        <ele>326.02</ele>
        <time>2015-10-23T14:48:38Z</time>
      </trkpt>
      <trkpt lat="43.2405113708" lon="-0.2333187405">
        <ele>326.02</ele>
        <time>2015-10-23T14:48:39Z</time>
      </trkpt>
      <trkpt lat="43.2404999714" lon="-0.2332934272">
        <ele>326.02</ele>
        <time>2015-10-23T14:48:40Z</time>
      </trkpt>
      <trkpt lat="43.2404882368" lon="-0.2332666889">
        <ele>326.5</ele>
        <time>2015-10-23T14:48:41Z</time>
      </trkpt>
      <trkpt lat="43.2404725626" lon="-0.2332473267">
        <ele>326.5</ele>
        <time>2015-10-23T14:48:42Z</time>
      </trkpt>
      <trkpt lat="43.2404532842" lon="-0.2332278807">
        <ele>326.5</ele>
        <time>2015-10-23T14:48:43Z</time>
      </trkpt>
      <trkpt lat="43.2404387835" lon="-0.2332105301">
        <ele>326.5</ele>
        <time>2015-10-23T14:48:44Z</time>
      </trkpt>
      <trkpt lat="43.2404269651" lon="-0.2331910003">
        <ele>326.99</ele>
        <time>2015-10-23T14:48:45Z</time>
      </trkpt>
      <trkpt lat="43.2404133864" lon="-0.2331681177">
        <ele>327.47</ele>
        <time>2015-10-23T14:48:46Z</time>
      </trkpt>
      <trkpt lat="43.2403966226" lon="-0.2331449836">
        <ele>327.95</ele>
        <time>2015-10-23T14:48:47Z</time>
      </trkpt>
      <trkpt lat="43.2403863966" lon="-0.2331241965">
        <ele>327.47</ele>
        <time>2015-10-23T14:48:48Z</time>
      </trkpt>
      <trkpt lat="43.2403748296" lon="-0.2330982126">
        <ele>327.95</ele>
        <time>2015-10-23T14:48:49Z</time>
      </trkpt>
      <trkpt lat="43.240365861" lon="-0.2330692112">
        <ele>327.95</ele>
        <time>2015-10-23T14:48:50Z</time>
      </trkpt>
      <trkpt lat="43.2403608318" lon="-0.2330469154">
        <ele>328.43</ele>
        <time>2015-10-23T14:48:51Z</time>
      </trkpt>
      <trkpt lat="43.2403666992" lon="-0.2330179978">
        <ele>328.43</ele>
        <time>2015-10-23T14:48:52Z</time>
      </trkpt>
      <trkpt lat="43.2403729018" lon="-0.2329917625">
        <ele>328.43</ele>
        <time>2015-10-23T14:48:53Z</time>
      </trkpt>
      <trkpt lat="43.2403681241" lon="-0.2329592407">
        <ele>328.43</ele>
        <time>2015-10-23T14:48:54Z</time>
      </trkpt>
      <trkpt lat="43.2402789406" lon="-0.2326775249">
        <ele>331.31</ele>
        <time>2015-10-23T14:49:05Z</time>
      </trkpt>
      <trkpt lat="43.2402434852" lon="-0.2325569093">
        <ele>332.27</ele>
        <time>2015-10-23T14:49:10Z</time>
      </trkpt>
      <trkpt lat="43.2402439043" lon="-0.2325198613">
        <ele>332.27</ele>
        <time>2015-10-23T14:49:11Z</time>
      </trkpt>
      <trkpt lat="43.2402331755" lon="-0.2324859146">
        <ele>332.75</ele>
        <time>2015-10-23T14:49:12Z</time>
      </trkpt>
      <trkpt lat="43.2402167469" lon="-0.2324506268">
        <ele>332.75</ele>
        <time>2015-10-23T14:49:13Z</time>
      </trkpt>
      <trkpt lat="43.2402010728" lon="-0.2324259002">
        <ele>333.23</ele>
        <time>2015-10-23T14:49:14Z</time>
      </trkpt>
      <trkpt lat="43.2401993964" lon="-0.2324048616">
        <ele>332.75</ele>
        <time>2015-10-23T14:49:15Z</time>
      </trkpt>
      <trkpt lat="43.2401244622" lon="-0.2323142532">
        <ele>333.71</ele>
        <time>2015-10-23T14:49:28Z</time>
      </trkpt>
      <trkpt lat="43.2401182596" lon="-0.232275445">
        <ele>334.68</ele>
        <time>2015-10-23T14:49:35Z</time>
      </trkpt>
      <trkpt lat="43.2401077822" lon="-0.2322570886">
        <ele>334.68</ele>
        <time>2015-10-23T14:49:36Z</time>
      </trkpt>
      <trkpt lat="43.2400931139" lon="-0.2322363853">
        <ele>335.16</ele>
        <time>2015-10-23T14:49:37Z</time>
      </trkpt>
      <trkpt lat="43.2400273997" lon="-0.2321761195">
        <ele>335.16</ele>
        <time>2015-10-23T14:49:40Z</time>
      </trkpt>
      <trkpt lat="43.2399710733" lon="-0.232106382">
        <ele>336.12</ele>
        <time>2015-10-23T14:49:42Z</time>
      </trkpt>
      <trkpt lat="43.2399351988" lon="-0.2320597786">
        <ele>335.16</ele>
        <time>2015-10-23T14:49:43Z</time>
      </trkpt>
      <trkpt lat="43.2398155052" lon="-0.2319306973">
        <ele>334.68</ele>
        <time>2015-10-23T14:49:46Z</time>
      </trkpt>
      <trkpt lat="43.2397787925" lon="-0.2319129277">
        <ele>335.16</ele>
        <time>2015-10-23T14:49:47Z</time>
      </trkpt>
      <trkpt lat="43.2397539821" lon="-0.231893314">
        <ele>335.16</ele>
        <time>2015-10-23T14:49:48Z</time>
      </trkpt>
      <trkpt lat="43.2397214603" lon="-0.2318578586">
        <ele>336.12</ele>
        <time>2015-10-23T14:49:50Z</time>
      </trkpt>
      <trkpt lat="43.2397062052" lon="-0.2318433579">
        <ele>336.6</ele>
        <time>2015-10-23T14:49:51Z</time>
      </trkpt>
      <trkpt lat="43.2396958955" lon="-0.2318306174">
        <ele>337.08</ele>
        <time>2015-10-23T14:49:52Z</time>
      </trkpt>
      <trkpt lat="43.2396841608" lon="-0.2318187151">
        <ele>338.04</ele>
        <time>2015-10-23T14:49:53Z</time>
      </trkpt>
      <trkpt lat="43.2396497112" lon="-0.2317721117">
        <ele>339.48</ele>
        <time>2015-10-23T14:49:57Z</time>
      </trkpt>
      <trkpt lat="43.2396185305" lon="-0.2317367401">
        <ele>339.96</ele>
        <time>2015-10-23T14:50:02Z</time>
      </trkpt>
      <trkpt lat="43.2393146865" lon="-0.2315242589">
        <ele>340.44</ele>
        <time>2015-10-23T14:50:11Z</time>
      </trkpt>
      <trkpt lat="43.2392409258" lon="-0.2314872108">
        <ele>341.89</ele>
        <time>2015-10-23T14:50:15Z</time>
      </trkpt>
      <trkpt lat="43.2391451206" lon="-0.2314489055">
        <ele>343.33</ele>
        <time>2015-10-23T14:50:20Z</time>
      </trkpt>
      <trkpt lat="43.2390523329" lon="-0.2314390987">
        <ele>344.29</ele>
        <time>2015-10-23T14:50:26Z</time>
      </trkpt>
      <trkpt lat="43.2388104312" lon="-0.2313368395">
        <ele>345.73</ele>
        <time>2015-10-23T14:50:38Z</time>
      </trkpt>
      <trkpt lat="43.2387240138" lon="-0.2313481551">
        <ele>345.25</ele>
        <time>2015-10-23T14:50:44Z</time>
      </trkpt>
      <trkpt lat="43.2386131212" lon="-0.2313994523">
        <ele>345.25</ele>
        <time>2015-10-23T14:50:52Z</time>
      </trkpt>
      <trkpt lat="43.2386182342" lon="-0.2313164715">
        <ele>348.62</ele>
        <time>2015-10-23T14:51:00Z</time>
      </trkpt>
      <trkpt lat="43.2386106066" lon="-0.2313066646">
        <ele>349.58</ele>
        <time>2015-10-23T14:51:02Z</time>
      </trkpt>
      <trkpt lat="43.2385558728" lon="-0.2312640846">
        <ele>351.02</ele>
        <time>2015-10-23T14:51:05Z</time>
      </trkpt>
      <trkpt lat="43.2385101914" lon="-0.2312137093">
        <ele>352.46</ele>
        <time>2015-10-23T14:51:08Z</time>
      </trkpt>
      <trkpt lat="43.2384088542" lon="-0.2310738154">
        <ele>353.9</ele>
        <time>2015-10-23T14:51:19Z</time>
      </trkpt>
      <trkpt lat="43.2383801881" lon="-0.2308267169">
        <ele>354.86</ele>
        <time>2015-10-23T14:51:46Z</time>
      </trkpt>
      <trkpt lat="43.2383189164" lon="-0.23079101">
        <ele>355.34</ele>
        <time>2015-10-23T14:52:14Z</time>
      </trkpt>
      <trkpt lat="43.2382951118" lon="-0.230784053">
        <ele>355.83</ele>
        <time>2015-10-23T14:52:36Z</time>
      </trkpt>
      <trkpt lat="43.2382179983" lon="-0.2307791077">
        <ele>353.42</ele>
        <time>2015-10-23T14:52:40Z</time>
      </trkpt>
      <trkpt lat="43.2380824629" lon="-0.2307294868">
        <ele>351.5</ele>
        <time>2015-10-23T14:52:46Z</time>
      </trkpt>
      <trkpt lat="43.2378548104" lon="-0.2305796184">
        <ele>350.54</ele>
        <time>2015-10-23T14:52:52Z</time>
      </trkpt>
      <trkpt lat="43.2378080394" lon="-0.2305404749">
        <ele>350.54</ele>
        <time>2015-10-23T14:52:53Z</time>
      </trkpt>
      <trkpt lat="43.2377595082" lon="-0.2304920275">
        <ele>350.06</ele>
        <time>2015-10-23T14:52:54Z</time>
      </trkpt>
      <trkpt lat="43.2377060317" lon="-0.2304388024">
        <ele>349.58</ele>
        <time>2015-10-23T14:52:55Z</time>
      </trkpt>
      <trkpt lat="43.2376624458" lon="-0.2303874213">
        <ele>348.62</ele>
        <time>2015-10-23T14:52:56Z</time>
      </trkpt>
      <trkpt lat="43.2376294211" lon="-0.2303441707">
        <ele>348.62</ele>
        <time>2015-10-23T14:52:57Z</time>
      </trkpt>
      <trkpt lat="43.23759933" lon="-0.2303016745">
        <ele>348.13</ele>
        <time>2015-10-23T14:52:58Z</time>
      </trkpt>
      <trkpt lat="43.237572005" lon="-0.2302564122">
        <ele>348.13</ele>
        <time>2015-10-23T14:52:59Z</time>
      </trkpt>
      <trkpt lat="43.2375460211" lon="-0.2302090544">
        <ele>347.65</ele>
        <time>2015-10-23T14:53:00Z</time>
      </trkpt>
      <trkpt lat="43.2375174388" lon="-0.2301688213">
        <ele>348.13</ele>
        <time>2015-10-23T14:53:01Z</time>
      </trkpt>
      <trkpt lat="43.2374807261" lon="-0.2301320247">
        <ele>347.17</ele>
        <time>2015-10-23T14:53:02Z</time>
      </trkpt>
      <trkpt lat="43.2374347094" lon="-0.2300975751">
        <ele>346.69</ele>
        <time>2015-10-23T14:53:03Z</time>
      </trkpt>
      <trkpt lat="43.2371525746" lon="-0.2298884466">
        <ele>346.69</ele>
        <time>2015-10-23T14:53:12Z</time>
      </trkpt>
      <trkpt lat="43.2370343897" lon="-0.2298508119">
        <ele>347.17</ele>
        <time>2015-10-23T14:53:23Z</time>
      </trkpt>
      <trkpt lat="43.2370120101" lon="-0.2298190445">
        <ele>348.13</ele>
        <time>2015-10-23T14:53:31Z</time>
      </trkpt>
      <trkpt lat="43.2369975932" lon="-0.2297699265">
        <ele>348.62</ele>
        <time>2015-10-23T14:53:34Z</time>
      </trkpt>
      <trkpt lat="43.2369903009" lon="-0.2297472954">
        <ele>348.62</ele>
        <time>2015-10-23T14:53:35Z</time>
      </trkpt>
      <trkpt lat="43.2369370759" lon="-0.2296115085">
        <ele>349.58</ele>
        <time>2015-10-23T14:53:40Z</time>
      </trkpt>
      <trkpt lat="43.2369001955" lon="-0.2295493148">
        <ele>350.06</ele>
        <time>2015-10-23T14:53:43Z</time>
      </trkpt>
      <trkpt lat="43.2368858624" lon="-0.229532551">
        <ele>350.06</ele>
        <time>2015-10-23T14:53:44Z</time>
      </trkpt>
      <trkpt lat="43.2368720323" lon="-0.2295185532">
        <ele>350.06</ele>
        <time>2015-10-23T14:53:45Z</time>
      </trkpt>
      <trkpt lat="43.2368606329" lon="-0.2295032982">
        <ele>350.54</ele>
        <time>2015-10-23T14:53:46Z</time>
      </trkpt>
      <trkpt lat="43.2368502393" lon="-0.2294860315">
        <ele>350.54</ele>
        <time>2015-10-23T14:53:47Z</time>
      </trkpt>
      <trkpt lat="43.236837415" lon="-0.229463568">
        <ele>350.54</ele>
        <time>2015-10-23T14:53:48Z</time>
      </trkpt>
      <trkpt lat="43.236824926" lon="-0.2294414397">
        <ele>350.54</ele>
        <time>2015-10-23T14:53:49Z</time>
      </trkpt>
      <trkpt lat="43.2368102577" lon="-0.2294193953">
        <ele>350.54</ele>
        <time>2015-10-23T14:53:50Z</time>
      </trkpt>
      <trkpt lat="43.2367926557" lon="-0.2293997817">
        <ele>351.02</ele>
        <time>2015-10-23T14:53:51Z</time>
      </trkpt>
      <trkpt lat="43.2367765624" lon="-0.2293818444">
        <ele>351.02</ele>
        <time>2015-10-23T14:53:52Z</time>
      </trkpt>
      <trkpt lat="43.2366978563" lon="-0.2292587142">
        <ele>350.54</ele>
        <time>2015-10-23T14:53:58Z</time>
      </trkpt>
      <trkpt lat="43.2366945874" lon="-0.2292325627">
        <ele>350.54</ele>
        <time>2015-10-23T14:53:59Z</time>
      </trkpt>
      <trkpt lat="43.2366872113" lon="-0.2292044833">
        <ele>350.54</ele>
        <time>2015-10-23T14:54:00Z</time>
      </trkpt>
      <trkpt lat="43.2366758119" lon="-0.2291720454">
        <ele>350.06</ele>
        <time>2015-10-23T14:54:01Z</time>
      </trkpt>
      <trkpt lat="43.236668352" lon="-0.2291401941">
        <ele>350.06</ele>
        <time>2015-10-23T14:54:02Z</time>
      </trkpt>
      <trkpt lat="43.2366624847" lon="-0.2291150484">
        <ele>349.58</ele>
        <time>2015-10-23T14:54:03Z</time>
      </trkpt>
      <trkpt lat="43.2366491575" lon="-0.2290686965">
        <ele>349.1</ele>
        <time>2015-10-23T14:54:06Z</time>
      </trkpt>
      <trkpt lat="43.2366276998" lon="-0.2290535253">
        <ele>348.62</ele>
        <time>2015-10-23T14:54:07Z</time>
      </trkpt>
      <trkpt lat="43.2366044819" lon="-0.2290279604">
        <ele>348.62</ele>
        <time>2015-10-23T14:54:08Z</time>
      </trkpt>
      <trkpt lat="43.2365878858" lon="-0.2289819438">
        <ele>349.1</ele>
        <time>2015-10-23T14:54:09Z</time>
      </trkpt>
      <trkpt lat="43.2365681045" lon="-0.2289286349">
        <ele>348.62</ele>
        <time>2015-10-23T14:54:10Z</time>
      </trkpt>
      <trkpt lat="43.2365543582" lon="-0.2288599033">
        <ele>348.13</ele>
        <time>2015-10-23T14:54:11Z</time>
      </trkpt>
      <trkpt lat="43.2365519274" lon="-0.2287741564">
        <ele>347.65</ele>
        <time>2015-10-23T14:54:12Z</time>
      </trkpt>
      <trkpt lat="43.2365561184" lon="-0.2285765111">
        <ele>345.25</ele>
        <time>2015-10-23T14:54:14Z</time>
      </trkpt>
      <trkpt lat="43.2365635782" lon="-0.228476515">
        <ele>345.25</ele>
        <time>2015-10-23T14:54:15Z</time>
      </trkpt>
      <trkpt lat="43.2365529332" lon="-0.2283833083">
        <ele>342.85</ele>
        <time>2015-10-23T14:54:17Z</time>
      </trkpt>
      <trkpt lat="43.2365420368" lon="-0.2283543907">
        <ele>343.33</ele>
        <time>2015-10-23T14:54:18Z</time>
      </trkpt>
      <trkpt lat="43.2365367562" lon="-0.2283295803">
        <ele>342.85</ele>
        <time>2015-10-23T14:54:19Z</time>
      </trkpt>
      <trkpt lat="43.2365340739" lon="-0.2282684762">
        <ele>343.33</ele>
        <time>2015-10-23T14:54:21Z</time>
      </trkpt>
      <trkpt lat="43.2365771569" lon="-0.2280465234">
        <ele>344.29</ele>
        <time>2015-10-23T14:54:30Z</time>
      </trkpt>
      <trkpt lat="43.2365862932" lon="-0.2279724274">
        <ele>345.25</ele>
        <time>2015-10-23T14:54:33Z</time>
      </trkpt>
      <trkpt lat="43.2365998719" lon="-0.2278779633">
        <ele>345.73</ele>
        <time>2015-10-23T14:54:37Z</time>
      </trkpt>
      <trkpt lat="43.2366080023" lon="-0.2278399933">
        <ele>346.21</ele>
        <time>2015-10-23T14:54:38Z</time>
      </trkpt>
      <trkpt lat="43.2366113551" lon="-0.2278128359">
        <ele>345.73</ele>
        <time>2015-10-23T14:54:39Z</time>
      </trkpt>
      <trkpt lat="43.2366131991" lon="-0.227786852">
        <ele>346.21</ele>
        <time>2015-10-23T14:54:40Z</time>
      </trkpt>
      <trkpt lat="43.2366251852" lon="-0.2276966628">
        <ele>346.21</ele>
        <time>2015-10-23T14:54:44Z</time>
      </trkpt>
      <trkpt lat="43.2366398536" lon="-0.2276676614">
        <ele>346.69</ele>
        <time>2015-10-23T14:54:45Z</time>
      </trkpt>
      <trkpt lat="43.2367058191" lon="-0.2275032084">
        <ele>347.17</ele>
        <time>2015-10-23T14:54:52Z</time>
      </trkpt>
      <trkpt lat="43.2367100101" lon="-0.2274810802">
        <ele>347.17</ele>
        <time>2015-10-23T14:54:53Z</time>
      </trkpt>
      <trkpt lat="43.2367143687" lon="-0.2274587844">
        <ele>347.65</ele>
        <time>2015-10-23T14:54:54Z</time>
      </trkpt>
      <trkpt lat="43.2368001156" lon="-0.2271372546">
        <ele>347.17</ele>
        <time>2015-10-23T14:55:06Z</time>
      </trkpt>
      <trkpt lat="43.2368361577" lon="-0.2270005457">
        <ele>346.69</ele>
        <time>2015-10-23T14:55:11Z</time>
      </trkpt>
      <trkpt lat="43.2368426956" lon="-0.2269702032">
        <ele>346.69</ele>
        <time>2015-10-23T14:55:12Z</time>
      </trkpt>
      <trkpt lat="43.236842528" lon="-0.2269366756">
        <ele>346.21</ele>
        <time>2015-10-23T14:55:13Z</time>
      </trkpt>
      <trkpt lat="43.2368261833" lon="-0.2265586518">
        <ele>345.73</ele>
        <time>2015-10-23T14:55:23Z</time>
      </trkpt>
      <trkpt lat="43.2368079107" lon="-0.2265202627">
        <ele>345.73</ele>
        <time>2015-10-23T14:55:24Z</time>
      </trkpt>
      <trkpt lat="43.2367926557" lon="-0.2264915965">
        <ele>345.25</ele>
        <time>2015-10-23T14:55:25Z</time>
      </trkpt>
      <trkpt lat="43.2367803343" lon="-0.2264615055">
        <ele>345.73</ele>
        <time>2015-10-23T14:55:26Z</time>
      </trkpt>
      <trkpt lat="43.2367780712" lon="-0.2264200989">
        <ele>345.73</ele>
        <time>2015-10-23T14:55:27Z</time>
      </trkpt>
      <trkpt lat="43.2367831003" lon="-0.2263743337">
        <ele>345.73</ele>
        <time>2015-10-23T14:55:28Z</time>
      </trkpt>
      <trkpt lat="43.2367880456" lon="-0.226343153">
        <ele>345.73</ele>
        <time>2015-10-23T14:55:29Z</time>
      </trkpt>
      <trkpt lat="43.2367941644" lon="-0.2263148222">
        <ele>346.69</ele>
        <time>2015-10-23T14:55:30Z</time>
      </trkpt>
      <trkpt lat="43.2368006185" lon="-0.2262823842">
        <ele>346.21</ele>
        <time>2015-10-23T14:55:31Z</time>
      </trkpt>
      <trkpt lat="43.2368087489" lon="-0.2262592502">
        <ele>346.69</ele>
        <time>2015-10-23T14:55:32Z</time>
      </trkpt>
      <trkpt lat="43.2368188072" lon="-0.2261830587">
        <ele>347.65</ele>
        <time>2015-10-23T14:55:35Z</time>
      </trkpt>
      <trkpt lat="43.2368214056" lon="-0.226157913">
        <ele>347.65</ele>
        <time>2015-10-23T14:55:36Z</time>
      </trkpt>
      <trkpt lat="43.23682677" lon="-0.2261253074">
        <ele>347.65</ele>
        <time>2015-10-23T14:55:37Z</time>
      </trkpt>
      <trkpt lat="43.2368306257" lon="-0.2260965575">
        <ele>348.13</ele>
        <time>2015-10-23T14:55:38Z</time>
      </trkpt>
      <trkpt lat="43.2369082421" lon="-0.2258263249">
        <ele>351.02</ele>
        <time>2015-10-23T14:55:49Z</time>
      </trkpt>
      <trkpt lat="43.2369337231" lon="-0.2257408295">
        <ele>352.46</ele>
        <time>2015-10-23T14:55:53Z</time>
      </trkpt>
      <trkpt lat="43.2369601261" lon="-0.2256183699">
        <ele>353.42</ele>
        <time>2015-10-23T14:55:59Z</time>
      </trkpt>
      <trkpt lat="43.2369794883" lon="-0.2255229">
        <ele>354.38</ele>
        <time>2015-10-23T14:56:03Z</time>
      </trkpt>
      <trkpt lat="43.2369840983" lon="-0.2255002689">
        <ele>354.86</ele>
        <time>2015-10-23T14:56:04Z</time>
      </trkpt>
      <trkpt lat="43.2370054722" lon="-0.2254250832">
        <ele>354.86</ele>
        <time>2015-10-23T14:56:07Z</time>
      </trkpt>
      <trkpt lat="43.237011591" lon="-0.2253804076">
        <ele>354.86</ele>
        <time>2015-10-23T14:56:09Z</time>
      </trkpt>
      <trkpt lat="43.2370070647" lon="-0.225345958">
        <ele>355.34</ele>
        <time>2015-10-23T14:56:11Z</time>
      </trkpt>
      <trkpt lat="43.2370287739" lon="-0.2250936627">
        <ele>355.83</ele>
        <time>2015-10-23T14:56:23Z</time>
      </trkpt>
      <trkpt lat="43.2370082382" lon="-0.2249681018">
        <ele>355.83</ele>
        <time>2015-10-23T14:56:31Z</time>
      </trkpt>
      <trkpt lat="43.2370187994" lon="-0.2247250266">
        <ele>355.83</ele>
        <time>2015-10-23T14:56:41Z</time>
      </trkpt>
      <trkpt lat="43.2370146085" lon="-0.2247164771">
        <ele>355.83</ele>
        <time>2015-10-23T14:56:42Z</time>
      </trkpt>
      <trkpt lat="43.2369751297" lon="-0.2246531937">
        <ele>355.34</ele>
        <time>2015-10-23T14:56:46Z</time>
      </trkpt>
      <trkpt lat="43.2369511575" lon="-0.2245518565">
        <ele>353.9</ele>
        <time>2015-10-23T14:56:50Z</time>
      </trkpt>
      <trkpt lat="43.236904135" lon="-0.2244449873">
        <ele>352.46</ele>
        <time>2015-10-23T14:56:55Z</time>
      </trkpt>
      <trkpt lat="43.2368642371" lon="-0.2243743278">
        <ele>352.46</ele>
        <time>2015-10-23T14:56:58Z</time>
      </trkpt>
      <trkpt lat="43.2367908116" lon="-0.2242377028">
        <ele>353.9</ele>
        <time>2015-10-23T14:57:06Z</time>
      </trkpt>
      <trkpt lat="43.2367038075" lon="-0.2241222002">
        <ele>357.27</ele>
        <time>2015-10-23T14:57:14Z</time>
      </trkpt>
      <trkpt lat="43.2364507578" lon="-0.2238912787">
        <ele>361.11</ele>
        <time>2015-10-23T14:57:24Z</time>
      </trkpt>
      <trkpt lat="43.2363342494" lon="-0.2237787936">
        <ele>360.63</ele>
        <time>2015-10-23T14:57:36Z</time>
      </trkpt>
      <trkpt lat="43.2362923399" lon="-0.2236878499">
        <ele>361.11</ele>
        <time>2015-10-23T14:57:58Z</time>
      </trkpt>
      <trkpt lat="43.2362966985" lon="-0.2235876862">
        <ele>362.07</ele>
        <time>2015-10-23T14:58:23Z</time>
      </trkpt>
      <trkpt lat="43.2363029849" lon="-0.2235593554">
        <ele>362.55</ele>
        <time>2015-10-23T14:58:33Z</time>
      </trkpt>
      <trkpt lat="43.2363192458" lon="-0.2233545855">
        <ele>363.04</ele>
        <time>2015-10-23T14:58:44Z</time>
      </trkpt>
      <trkpt lat="43.2362705469" lon="-0.2232017834">
        <ele>364</ele>
        <time>2015-10-23T14:58:51Z</time>
      </trkpt>
      <trkpt lat="43.236242719" lon="-0.2231700998">
        <ele>364.48</ele>
        <time>2015-10-23T14:58:53Z</time>
      </trkpt>
      <trkpt lat="43.2361261267" lon="-0.2229711134">
        <ele>366.4</ele>
        <time>2015-10-23T14:59:04Z</time>
      </trkpt>
      <trkpt lat="43.2360839657" lon="-0.2228866238">
        <ele>367.36</ele>
        <time>2015-10-23T14:59:09Z</time>
      </trkpt>
      <trkpt lat="43.2359693851" lon="-0.2227945067">
        <ele>369.76</ele>
        <time>2015-10-23T14:59:19Z</time>
      </trkpt>
      <trkpt lat="43.2359272242" lon="-0.222761482">
        <ele>370.73</ele>
        <time>2015-10-23T14:59:22Z</time>
      </trkpt>
      <trkpt lat="43.2358432375" lon="-0.2225439716">
        <ele>373.13</ele>
        <time>2015-10-23T14:59:35Z</time>
      </trkpt>
      <trkpt lat="43.2358099613" lon="-0.2224735636">
        <ele>374.09</ele>
        <time>2015-10-23T14:59:40Z</time>
      </trkpt>
      <trkpt lat="43.2357632741" lon="-0.222407179">
        <ele>375.05</ele>
        <time>2015-10-23T14:59:47Z</time>
      </trkpt>
      <trkpt lat="43.2357562333" lon="-0.2223581448">
        <ele>375.53</ele>
        <time>2015-10-23T14:59:50Z</time>
      </trkpt>
      <trkpt lat="43.2357303333" lon="-0.2222485933">
        <ele>376.49</ele>
        <time>2015-10-23T14:59:55Z</time>
      </trkpt>
      <trkpt lat="43.2357181795" lon="-0.2221720666">
        <ele>376.97</ele>
        <time>2015-10-23T14:59:59Z</time>
      </trkpt>
      <trkpt lat="43.2356791198" lon="-0.2220994793">
        <ele>377.94</ele>
        <time>2015-10-23T15:00:05Z</time>
      </trkpt>
      <trkpt lat="43.2356107235" lon="-0.2219320927">
        <ele>379.86</ele>
        <time>2015-10-23T15:00:16Z</time>
      </trkpt>
      <trkpt lat="43.2356134057" lon="-0.221911557">
        <ele>379.86</ele>
        <time>2015-10-23T15:00:17Z</time>
      </trkpt>
      <trkpt lat="43.2356317621" lon="-0.2215959784">
        <ele>381.78</ele>
        <time>2015-10-23T15:00:32Z</time>
      </trkpt>
      <trkpt lat="43.2356362883" lon="-0.2215410769">
        <ele>381.78</ele>
        <time>2015-10-23T15:00:35Z</time>
      </trkpt>
      <trkpt lat="43.2356334385" lon="-0.221213093">
        <ele>383.7</ele>
        <time>2015-10-23T15:00:50Z</time>
      </trkpt>
      <trkpt lat="43.235628996" lon="-0.2211846784">
        <ele>383.7</ele>
        <time>2015-10-23T15:00:51Z</time>
      </trkpt>
      <trkpt lat="43.2356267329" lon="-0.2211063914">
        <ele>384.18</ele>
        <time>2015-10-23T15:00:54Z</time>
      </trkpt>
      <trkpt lat="43.235597983" lon="-0.2209491469">
        <ele>384.66</ele>
        <time>2015-10-23T15:01:01Z</time>
      </trkpt>
      <trkpt lat="43.2354976516" lon="-0.2208417747">
        <ele>385.63</ele>
        <time>2015-10-23T15:01:09Z</time>
      </trkpt>
      <trkpt lat="43.2353824843" lon="-0.2206536848">
        <ele>386.11</ele>
        <time>2015-10-23T15:01:19Z</time>
      </trkpt>
      <trkpt lat="43.2353452686" lon="-0.2206134517">
        <ele>386.59</ele>
        <time>2015-10-23T15:01:22Z</time>
      </trkpt>
      <trkpt lat="43.2353024371" lon="-0.2205335721">
        <ele>386.11</ele>
        <time>2015-10-23T15:01:26Z</time>
      </trkpt>
      <trkpt lat="43.2352525648" lon="-0.2204357553">
        <ele>387.07</ele>
        <time>2015-10-23T15:01:31Z</time>
      </trkpt>
      <trkpt lat="43.2351161912" lon="-0.2202478331">
        <ele>387.55</ele>
        <time>2015-10-23T15:01:42Z</time>
      </trkpt>
      <trkpt lat="43.2350415085" lon="-0.2201706357">
        <ele>386.59</ele>
        <time>2015-10-23T15:01:46Z</time>
      </trkpt>
      <trkpt lat="43.2349501457" lon="-0.2200537082">
        <ele>387.07</ele>
        <time>2015-10-23T15:01:53Z</time>
      </trkpt>
      <trkpt lat="43.2348608784" lon="-0.2199704759">
        <ele>387.55</ele>
        <time>2015-10-23T15:01:58Z</time>
      </trkpt>
      <trkpt lat="43.2347751316" lon="-0.219713822">
        <ele>388.51</ele>
        <time>2015-10-23T15:02:10Z</time>
      </trkpt>
      <trkpt lat="43.2347706892" lon="-0.2196692303">
        <ele>388.03</ele>
        <time>2015-10-23T15:02:11Z</time>
      </trkpt>
      <trkpt lat="43.2346771471" lon="-0.2194833197">
        <ele>387.55</ele>
        <time>2015-10-23T15:02:18Z</time>
      </trkpt>
      <trkpt lat="43.2347221579" lon="-0.2190609556">
        <ele>386.59</ele>
        <time>2015-10-23T15:02:28Z</time>
      </trkpt>
      <trkpt lat="43.2347756345" lon="-0.2186717838">
        <ele>389.47</ele>
        <time>2015-10-23T15:02:39Z</time>
      </trkpt>
      <trkpt lat="43.234786028" lon="-0.2184116095">
        <ele>390.91</ele>
        <time>2015-10-23T15:02:47Z</time>
      </trkpt>
      <trkpt lat="43.2347688451" lon="-0.2183621563">
        <ele>390.91</ele>
        <time>2015-10-23T15:02:49Z</time>
      </trkpt>
      <trkpt lat="43.2347729523" lon="-0.2183101047">
        <ele>390.43</ele>
        <time>2015-10-23T15:02:52Z</time>
      </trkpt>
      <trkpt lat="43.2347567752" lon="-0.2182025649">
        <ele>390.43</ele>
        <time>2015-10-23T15:02:57Z</time>
      </trkpt>
      <trkpt lat="43.2347756345" lon="-0.2179087792">
        <ele>390.43</ele>
        <time>2015-10-23T15:03:09Z</time>
      </trkpt>
      <trkpt lat="43.2347398438" lon="-0.2176423185">
        <ele>390.91</ele>
        <time>2015-10-23T15:03:20Z</time>
      </trkpt>
      <trkpt lat="43.234729534" lon="-0.2174783684">
        <ele>391.87</ele>
        <time>2015-10-23T15:03:28Z</time>
      </trkpt>
      <trkpt lat="43.2347039692" lon="-0.2172777057">
        <ele>392.36</ele>
        <time>2015-10-23T15:03:37Z</time>
      </trkpt>
      <trkpt lat="43.2347120158" lon="-0.2171180304">
        <ele>392.84</ele>
        <time>2015-10-23T15:03:44Z</time>
      </trkpt>
      <trkpt lat="43.2346506603" lon="-0.2168079">
        <ele>395.24</ele>
        <time>2015-10-23T15:03:59Z</time>
      </trkpt>
      <trkpt lat="43.2346457988" lon="-0.2166432794">
        <ele>396.2</ele>
        <time>2015-10-23T15:04:06Z</time>
      </trkpt>
      <trkpt lat="43.2346544322" lon="-0.2164128609">
        <ele>397.16</ele>
        <time>2015-10-23T15:04:13Z</time>
      </trkpt>
      <trkpt lat="43.2346418593" lon="-0.2161681093">
        <ele>397.64</ele>
        <time>2015-10-23T15:04:22Z</time>
      </trkpt>
      <trkpt lat="43.2346454635" lon="-0.2158720605">
        <ele>399.57</ele>
        <time>2015-10-23T15:04:34Z</time>
      </trkpt>
      <trkpt lat="43.2346177194" lon="-0.2157477569">
        <ele>400.05</ele>
        <time>2015-10-23T15:04:40Z</time>
      </trkpt>
      <trkpt lat="43.2345803361" lon="-0.215634685">
        <ele>400.05</ele>
        <time>2015-10-23T15:04:46Z</time>
      </trkpt>
      <trkpt lat="43.2344570383" lon="-0.2152461838">
        <ele>401.01</ele>
        <time>2015-10-23T15:05:00Z</time>
      </trkpt>
      <trkpt lat="43.2343693636" lon="-0.215014508">
        <ele>401.49</ele>
        <time>2015-10-23T15:05:08Z</time>
      </trkpt>
      <trkpt lat="43.2343199104" lon="-0.2147736959">
        <ele>401.97</ele>
        <time>2015-10-23T15:05:16Z</time>
      </trkpt>
      <trkpt lat="43.2342416234" lon="-0.2144190576">
        <ele>404.37</ele>
        <time>2015-10-23T15:05:29Z</time>
      </trkpt>
      <trkpt lat="43.2342489995" lon="-0.2142390981">
        <ele>405.33</ele>
        <time>2015-10-23T15:05:39Z</time>
      </trkpt>
      <trkpt lat="43.2342965249" lon="-0.2141496632">
        <ele>405.33</ele>
        <time>2015-10-23T15:05:41Z</time>
      </trkpt>
      <trkpt lat="43.2343489956" lon="-0.2141356654">
        <ele>405.33</ele>
        <time>2015-10-23T15:05:48Z</time>
      </trkpt>
      <trkpt lat="43.2343943417" lon="-0.2141903155">
        <ele>405.33</ele>
        <time>2015-10-23T15:05:55Z</time>
      </trkpt>
      <trkpt lat="43.2344644982" lon="-0.214182185">
        <ele>405.33</ele>
        <time>2015-10-23T15:06:03Z</time>
      </trkpt>
      <trkpt lat="43.2344176434" lon="-0.2141290437">
        <ele>405.81</ele>
        <time>2015-10-23T15:06:08Z</time>
      </trkpt>
      <trkpt lat="43.234256627" lon="-0.2137779258">
        <ele>405.33</ele>
        <time>2015-10-23T15:06:23Z</time>
      </trkpt>
      <trkpt lat="43.2342335768" lon="-0.2136614174">
        <ele>405.33</ele>
        <time>2015-10-23T15:06:29Z</time>
      </trkpt>
      <trkpt lat="43.2342205849" lon="-0.2136167418">
        <ele>405.33</ele>
        <time>2015-10-23T15:06:32Z</time>
      </trkpt>
      <trkpt lat="43.2341813575" lon="-0.2135600802">
        <ele>405.33</ele>
        <time>2015-10-23T15:06:39Z</time>
      </trkpt>
      <trkpt lat="43.2341505121" lon="-0.2134656161">
        <ele>405.33</ele>
        <time>2015-10-23T15:06:47Z</time>
      </trkpt>
      <trkpt lat="43.2340702973" lon="-0.2134153247">
        <ele>404.37</ele>
        <time>2015-10-23T15:06:51Z</time>
      </trkpt>
      <trkpt lat="43.2340172399" lon="-0.213392945">
        <ele>402.93</ele>
        <time>2015-10-23T15:06:52Z</time>
      </trkpt>
      <trkpt lat="43.2339632604" lon="-0.2133667096">
        <ele>402.45</ele>
        <time>2015-10-23T15:06:53Z</time>
      </trkpt>
      <trkpt lat="43.2339206804" lon="-0.2133391332">
        <ele>401.97</ele>
        <time>2015-10-23T15:06:54Z</time>
      </trkpt>
      <trkpt lat="43.2337945327" lon="-0.2132959664">
        <ele>401.01</ele>
        <time>2015-10-23T15:06:58Z</time>
      </trkpt>
      <trkpt lat="43.2335955463" lon="-0.2133308351">
        <ele>397.16</ele>
        <time>2015-10-23T15:07:05Z</time>
      </trkpt>
      <trkpt lat="43.2335235458" lon="-0.2133428212">
        <ele>395.72</ele>
        <time>2015-10-23T15:07:07Z</time>
      </trkpt>
      <trkpt lat="43.2334848214" lon="-0.2132136561">
        <ele>396.2</ele>
        <time>2015-10-23T15:07:15Z</time>
      </trkpt>
      <trkpt lat="43.2334524672" lon="-0.2131430805">
        <ele>396.68</ele>
        <time>2015-10-23T15:07:18Z</time>
      </trkpt>
      <trkpt lat="43.2334278245" lon="-0.2130901907">
        <ele>397.16</ele>
        <time>2015-10-23T15:07:20Z</time>
      </trkpt>
      <trkpt lat="43.2333736774" lon="-0.2130241413">
        <ele>398.6</ele>
        <time>2015-10-23T15:07:25Z</time>
      </trkpt>
      <trkpt lat="43.2331513893" lon="-0.2128715906">
        <ele>398.12</ele>
        <time>2015-10-23T15:07:34Z</time>
      </trkpt>
      <trkpt lat="43.2328284346" lon="-0.2126334608">
        <ele>398.6</ele>
        <time>2015-10-23T15:07:44Z</time>
      </trkpt>
      <trkpt lat="43.2326977607" lon="-0.2124432754">
        <ele>400.05</ele>
        <time>2015-10-23T15:07:50Z</time>
      </trkpt>
      <trkpt lat="43.2326390035" lon="-0.2123297844">
        <ele>400.05</ele>
        <time>2015-10-23T15:07:54Z</time>
      </trkpt>
      <trkpt lat="43.2325468864" lon="-0.2122458816">
        <ele>400.53</ele>
        <time>2015-10-23T15:07:58Z</time>
      </trkpt>
      <trkpt lat="43.232466504" lon="-0.2122337278">
        <ele>400.05</ele>
        <time>2015-10-23T15:08:02Z</time>
      </trkpt>
      <trkpt lat="43.2322670985" lon="-0.2123011183">
        <ele>398.6</ele>
        <time>2015-10-23T15:08:07Z</time>
      </trkpt>
      <trkpt lat="43.2322194055" lon="-0.2123002801">
        <ele>399.08</ele>
        <time>2015-10-23T15:08:08Z</time>
      </trkpt>
      <trkpt lat="43.2321298029" lon="-0.2122802474">
        <ele>398.12</ele>
        <time>2015-10-23T15:08:10Z</time>
      </trkpt>
      <trkpt lat="43.2319484185" lon="-0.2122036368">
        <ele>399.08</ele>
        <time>2015-10-23T15:08:15Z</time>
      </trkpt>
      <trkpt lat="43.2319313195" lon="-0.2121703606">
        <ele>400.05</ele>
        <time>2015-10-23T15:08:16Z</time>
      </trkpt>
      <trkpt lat="43.2319148909" lon="-0.2121301275">
        <ele>400.05</ele>
        <time>2015-10-23T15:08:17Z</time>
      </trkpt>
      <trkpt lat="43.2318881527" lon="-0.2121080831">
        <ele>400.53</ele>
        <time>2015-10-23T15:08:18Z</time>
      </trkpt>
      <trkpt lat="43.2318725623" lon="-0.2120942529">
        <ele>400.53</ele>
        <time>2015-10-23T15:08:19Z</time>
      </trkpt>
      <trkpt lat="43.2318559662" lon="-0.2120857034">
        <ele>401.01</ele>
        <time>2015-10-23T15:08:20Z</time>
      </trkpt>
      <trkpt lat="43.2317875698" lon="-0.212069694">
        <ele>401.01</ele>
        <time>2015-10-23T15:08:24Z</time>
      </trkpt>
      <trkpt lat="43.2317568921" lon="-0.2120582107">
        <ele>401.01</ele>
        <time>2015-10-23T15:08:25Z</time>
      </trkpt>
      <trkpt lat="43.2317248732" lon="-0.2120475657">
        <ele>401.01</ele>
        <time>2015-10-23T15:08:26Z</time>
      </trkpt>
      <trkpt lat="43.2317024097" lon="-0.2120357472">
        <ele>401.01</ele>
        <time>2015-10-23T15:08:27Z</time>
      </trkpt>
      <trkpt lat="43.2316724863" lon="-0.2120209951">
        <ele>400.53</ele>
        <time>2015-10-23T15:08:28Z</time>
      </trkpt>
      <trkpt lat="43.2316397969" lon="-0.2119986992">
        <ele>400.05</ele>
        <time>2015-10-23T15:08:29Z</time>
      </trkpt>
      <trkpt lat="43.2315030042" lon="-0.2119717933">
        <ele>399.08</ele>
        <time>2015-10-23T15:08:32Z</time>
      </trkpt>
      <trkpt lat="43.2313131541" lon="-0.2119639982">
        <ele>397.64</ele>
        <time>2015-10-23T15:08:35Z</time>
      </trkpt>
      <trkpt lat="43.2311323564" lon="-0.2119615674">
        <ele>397.16</ele>
        <time>2015-10-23T15:08:38Z</time>
      </trkpt>
      <trkpt lat="43.2310741022" lon="-0.2119625732">
        <ele>397.16</ele>
        <time>2015-10-23T15:08:39Z</time>
      </trkpt>
      <trkpt lat="43.2310266607" lon="-0.2119639143">
        <ele>396.68</ele>
        <time>2015-10-23T15:08:40Z</time>
      </trkpt>
      <trkpt lat="43.2309805602" lon="-0.2119666804">
        <ele>395.72</ele>
        <time>2015-10-23T15:08:41Z</time>
      </trkpt>
      <trkpt lat="43.2309420872" lon="-0.2119579632">
        <ele>396.2</ele>
        <time>2015-10-23T15:08:42Z</time>
      </trkpt>
      <trkpt lat="43.2309108227" lon="-0.2119368408">
        <ele>395.24</ele>
        <time>2015-10-23T15:08:43Z</time>
      </trkpt>
      <trkpt lat="43.23081485" lon="-0.2118995413">
        <ele>394.28</ele>
        <time>2015-10-23T15:08:46Z</time>
      </trkpt>
      <trkpt lat="43.2307948172" lon="-0.2119132038">
        <ele>393.8</ele>
        <time>2015-10-23T15:08:47Z</time>
      </trkpt>
      <trkpt lat="43.2307768799" lon="-0.2119267825">
        <ele>393.8</ele>
        <time>2015-10-23T15:08:48Z</time>
      </trkpt>
      <trkpt lat="43.2307595294" lon="-0.2119382657">
        <ele>393.8</ele>
        <time>2015-10-23T15:08:49Z</time>
      </trkpt>
      <trkpt lat="43.2307387423" lon="-0.211943211">
        <ele>393.32</ele>
        <time>2015-10-23T15:08:50Z</time>
      </trkpt>
      <trkpt lat="43.2307203021" lon="-0.2119472343">
        <ele>393.32</ele>
        <time>2015-10-23T15:08:51Z</time>
      </trkpt>
      <trkpt lat="43.2307019457" lon="-0.2119517606">
        <ele>393.32</ele>
        <time>2015-10-23T15:08:52Z</time>
      </trkpt>
      <trkpt lat="43.2306819968" lon="-0.2119718771">
        <ele>393.32</ele>
        <time>2015-10-23T15:08:53Z</time>
      </trkpt>
      <trkpt lat="43.2306625508" lon="-0.2119972743">
        <ele>392.84</ele>
        <time>2015-10-23T15:08:54Z</time>
      </trkpt>
      <trkpt lat="43.2306374889" lon="-0.212010853">
        <ele>392.84</ele>
        <time>2015-10-23T15:08:55Z</time>
      </trkpt>
      <trkpt lat="43.2306114212" lon="-0.2120200731">
        <ele>391.87</ele>
        <time>2015-10-23T15:08:56Z</time>
      </trkpt>
      <trkpt lat="43.2305595372" lon="-0.2120375074">
        <ele>391.87</ele>
        <time>2015-10-23T15:08:58Z</time>
      </trkpt>
      <trkpt lat="43.2305427734" lon="-0.2120396867">
        <ele>391.87</ele>
        <time>2015-10-23T15:08:59Z</time>
      </trkpt>
      <trkpt lat="43.2303338964" lon="-0.2120885532">
        <ele>388.99</ele>
        <time>2015-10-23T15:09:07Z</time>
      </trkpt>
      <trkpt lat="43.230135832" lon="-0.2123416867">
        <ele>386.11</ele>
        <time>2015-10-23T15:09:15Z</time>
      </trkpt>
      <trkpt lat="43.23002561" lon="-0.2124821674">
        <ele>386.11</ele>
        <time>2015-10-23T15:09:20Z</time>
      </trkpt>
      <trkpt lat="43.229974648" lon="-0.2126459498">
        <ele>385.63</ele>
        <time>2015-10-23T15:09:24Z</time>
      </trkpt>
      <trkpt lat="43.2299714629" lon="-0.2127155196">
        <ele>384.66</ele>
        <time>2015-10-23T15:09:25Z</time>
      </trkpt>
      <trkpt lat="43.2299620751" lon="-0.2127890289">
        <ele>383.7</ele>
        <time>2015-10-23T15:09:26Z</time>
      </trkpt>
      <trkpt lat="43.2299484126" lon="-0.2128618676">
        <ele>383.7</ele>
        <time>2015-10-23T15:09:27Z</time>
      </trkpt>
      <trkpt lat="43.2298742328" lon="-0.213234527">
        <ele>380.82</ele>
        <time>2015-10-23T15:09:32Z</time>
      </trkpt>
      <trkpt lat="43.229833832" lon="-0.2132914402">
        <ele>380.34</ele>
        <time>2015-10-23T15:09:33Z</time>
      </trkpt>
      <trkpt lat="43.2297950238" lon="-0.2133219503">
        <ele>379.86</ele>
        <time>2015-10-23T15:09:34Z</time>
      </trkpt>
      <trkpt lat="43.2297640946" lon="-0.2133434918">
        <ele>379.38</ele>
        <time>2015-10-23T15:09:35Z</time>
      </trkpt>
      <trkpt lat="43.2297436427" lon="-0.2133708168">
        <ele>378.9</ele>
        <time>2015-10-23T15:09:36Z</time>
      </trkpt>
      <trkpt lat="43.229721766" lon="-0.2133819647">
        <ele>378.42</ele>
        <time>2015-10-23T15:09:37Z</time>
      </trkpt>
      <trkpt lat="43.2296967879" lon="-0.2133993153">
        <ele>378.9</ele>
        <time>2015-10-23T15:09:38Z</time>
      </trkpt>
      <trkpt lat="43.2296613324" lon="-0.2134060208">
        <ele>378.42</ele>
        <time>2015-10-23T15:09:39Z</time>
      </trkpt>
      <trkpt lat="43.2296169084" lon="-0.2134126425">
        <ele>377.94</ele>
        <time>2015-10-23T15:09:40Z</time>
      </trkpt>
      <trkpt lat="43.229561504" lon="-0.2134076972">
        <ele>377.45</ele>
        <time>2015-10-23T15:09:41Z</time>
      </trkpt>
      <trkpt lat="43.2292185165" lon="-0.2133453358">
        <ele>376.01</ele>
        <time>2015-10-23T15:09:47Z</time>
      </trkpt>
      <trkpt lat="43.2291669678" lon="-0.2133301646">
        <ele>376.01</ele>
        <time>2015-10-23T15:09:48Z</time>
      </trkpt>
      <trkpt lat="43.2291130722" lon="-0.2133245487">
        <ele>375.53</ele>
        <time>2015-10-23T15:09:49Z</time>
      </trkpt>
      <trkpt lat="43.2290595956" lon="-0.213333685">
        <ele>375.53</ele>
        <time>2015-10-23T15:09:50Z</time>
      </trkpt>
      <trkpt lat="43.2290050294" lon="-0.213351706">
        <ele>375.53</ele>
        <time>2015-10-23T15:09:51Z</time>
      </trkpt>
      <trkpt lat="43.2289535645" lon="-0.2133657038">
        <ele>376.01</ele>
        <time>2015-10-23T15:09:52Z</time>
      </trkpt>
      <trkpt lat="43.2289023511" lon="-0.2133816294">
        <ele>376.01</ele>
        <time>2015-10-23T15:09:53Z</time>
      </trkpt>
      <trkpt lat="43.2288564183" lon="-0.2134040929">
        <ele>375.05</ele>
        <time>2015-10-23T15:09:54Z</time>
      </trkpt>
      <trkpt lat="43.2287746109" lon="-0.2134402189">
        <ele>375.05</ele>
        <time>2015-10-23T15:09:56Z</time>
      </trkpt>
      <trkpt lat="43.2287327852" lon="-0.2134594973">
        <ele>374.57</ele>
        <time>2015-10-23T15:09:57Z</time>
      </trkpt>
      <trkpt lat="43.2284485549" lon="-0.2136086114">
        <ele>373.13</ele>
        <time>2015-10-23T15:10:07Z</time>
      </trkpt>
      <trkpt lat="43.2283654064" lon="-0.2137925941">
        <ele>372.65</ele>
        <time>2015-10-23T15:10:19Z</time>
      </trkpt>
      <trkpt lat="43.2283963356" lon="-0.2138442267">
        <ele>373.13</ele>
        <time>2015-10-23T15:10:54Z</time>
      </trkpt>
      <trkpt lat="43.2284175418" lon="-0.2138778381">
        <ele>372.17</ele>
        <time>2015-10-23T15:11:21Z</time>
      </trkpt>
      <trkpt lat="43.2283972576" lon="-0.2138846274">
        <ele>371.69</ele>
        <time>2015-10-23T15:11:52Z</time>
      </trkpt>
      <trkpt lat="43.2283887919" lon="-0.2138948534">
        <ele>372.17</ele>
        <time>2015-10-23T15:11:54Z</time>
      </trkpt>
      <trkpt lat="43.2283269335" lon="-0.2139465697">
        <ele>371.69</ele>
        <time>2015-10-23T15:11:58Z</time>
      </trkpt>
      <trkpt lat="43.2283012848" lon="-0.2139692008">
        <ele>371.21</ele>
        <time>2015-10-23T15:11:59Z</time>
      </trkpt>
      <trkpt lat="43.2282707747" lon="-0.2139804326">
        <ele>371.21</ele>
        <time>2015-10-23T15:12:00Z</time>
      </trkpt>
      <trkpt lat="43.2282432821" lon="-0.2139850426">
        <ele>370.73</ele>
        <time>2015-10-23T15:12:01Z</time>
      </trkpt>
      <trkpt lat="43.2282175496" lon="-0.2139911614">
        <ele>370.73</ele>
        <time>2015-10-23T15:12:02Z</time>
      </trkpt>
      <trkpt lat="43.2281948347" lon="-0.2140029799">
        <ele>370.73</ele>
        <time>2015-10-23T15:12:03Z</time>
      </trkpt>
      <trkpt lat="43.2281741314" lon="-0.2140147146">
        <ele>370.24</ele>
        <time>2015-10-23T15:12:04Z</time>
      </trkpt>
      <trkpt lat="43.2281551883" lon="-0.2140168101">
        <ele>369.28</ele>
        <time>2015-10-23T15:12:05Z</time>
      </trkpt>
      <trkpt lat="43.2281356584" lon="-0.2140241861">
        <ele>368.8</ele>
        <time>2015-10-23T15:12:06Z</time>
      </trkpt>
      <trkpt lat="43.2281161286" lon="-0.2140277904">
        <ele>367.84</ele>
        <time>2015-10-23T15:12:07Z</time>
      </trkpt>
      <trkpt lat="43.2280970179" lon="-0.2140262816">
        <ele>366.88</ele>
        <time>2015-10-23T15:12:08Z</time>
      </trkpt>
      <trkpt lat="43.2280749734" lon="-0.2140295506">
        <ele>367.36</ele>
        <time>2015-10-23T15:12:09Z</time>
      </trkpt>
      <trkpt lat="43.2280519232" lon="-0.2140331548">
        <ele>367.36</ele>
        <time>2015-10-23T15:12:10Z</time>
      </trkpt>
      <trkpt lat="43.228028873" lon="-0.2140332386">
        <ele>366.88</ele>
        <time>2015-10-23T15:12:11Z</time>
      </trkpt>
      <trkpt lat="43.2280073315" lon="-0.2140322328">
        <ele>366.4</ele>
        <time>2015-10-23T15:12:12Z</time>
      </trkpt>
      <trkpt lat="43.2278378494" lon="-0.2141106874">
        <ele>363.04</ele>
        <time>2015-10-23T15:12:20Z</time>
      </trkpt>
      <trkpt lat="43.2278256118" lon="-0.2141193207">
        <ele>362.55</ele>
        <time>2015-10-23T15:12:21Z</time>
      </trkpt>
      <trkpt lat="43.22775512" lon="-0.2141978592">
        <ele>361.11</ele>
        <time>2015-10-23T15:12:25Z</time>
      </trkpt>
      <trkpt lat="43.2277450617" lon="-0.2142200712">
        <ele>360.63</ele>
        <time>2015-10-23T15:12:26Z</time>
      </trkpt>
      <trkpt lat="43.227728717" lon="-0.2142416965">
        <ele>360.63</ele>
        <time>2015-10-23T15:12:27Z</time>
      </trkpt>
      <trkpt lat="43.2277082652" lon="-0.2142919041">
        <ele>359.67</ele>
        <time>2015-10-23T15:12:42Z</time>
      </trkpt>
      <trkpt lat="43.2277101092" lon="-0.2142986935">
        <ele>359.19</ele>
        <time>2015-10-23T15:12:58Z</time>
      </trkpt>
      <trkpt lat="43.2276779227" lon="-0.2142822649">
        <ele>358.71</ele>
        <time>2015-10-23T15:12:59Z</time>
      </trkpt>
      <trkpt lat="43.2276434731" lon="-0.2142671775">
        <ele>357.75</ele>
        <time>2015-10-23T15:13:00Z</time>
      </trkpt>
      <trkpt lat="43.2276143879" lon="-0.2142596338">
        <ele>356.79</ele>
        <time>2015-10-23T15:13:01Z</time>
      </trkpt>
      <trkpt lat="43.2275864761" lon="-0.2142532635">
        <ele>356.79</ele>
        <time>2015-10-23T15:13:02Z</time>
      </trkpt>
      <trkpt lat="43.2275631744" lon="-0.2142949216">
        <ele>355.83</ele>
        <time>2015-10-23T15:13:07Z</time>
      </trkpt>
      <trkpt lat="43.2272790279" lon="-0.214481838">
        <ele>353.42</ele>
        <time>2015-10-23T15:13:19Z</time>
      </trkpt>
      <trkpt lat="43.2271755952" lon="-0.2145307884">
        <ele>353.42</ele>
        <time>2015-10-23T15:13:23Z</time>
      </trkpt>
      <trkpt lat="43.2270732522" lon="-0.2146729454">
        <ele>351.5</ele>
        <time>2015-10-23T15:13:28Z</time>
      </trkpt>
      <trkpt lat="43.2269284967" lon="-0.2147288527">
        <ele>348.13</ele>
        <time>2015-10-23T15:13:36Z</time>
      </trkpt>
      <trkpt lat="43.2268821448" lon="-0.2147566807">
        <ele>347.17</ele>
        <time>2015-10-23T15:13:41Z</time>
      </trkpt>
      <trkpt lat="43.2266845834" lon="-0.2149404958">
        <ele>344.77</ele>
        <time>2015-10-23T15:13:49Z</time>
      </trkpt>
      <trkpt lat="43.2266496308" lon="-0.2149918769">
        <ele>343.81</ele>
        <time>2015-10-23T15:13:50Z</time>
      </trkpt>
      <trkpt lat="43.2265996747" lon="-0.2150069643">
        <ele>342.37</ele>
        <time>2015-10-23T15:13:51Z</time>
      </trkpt>
      <trkpt lat="43.2265532389" lon="-0.2150253206">
        <ele>342.85</ele>
        <time>2015-10-23T15:13:52Z</time>
      </trkpt>
      <trkpt lat="43.2263755426" lon="-0.2151472773">
        <ele>338.04</ele>
        <time>2015-10-23T15:13:57Z</time>
      </trkpt>
      <trkpt lat="43.2263444457" lon="-0.2153176814">
        <ele>337.56</ele>
        <time>2015-10-23T15:14:06Z</time>
      </trkpt>
      <trkpt lat="43.2263452001" lon="-0.2153543103">
        <ele>338.04</ele>
        <time>2015-10-23T15:14:23Z</time>
      </trkpt>
      <trkpt lat="43.2263002731" lon="-0.2153869998">
        <ele>336.12</ele>
        <time>2015-10-23T15:14:34Z</time>
      </trkpt>
      <trkpt lat="43.2262851018" lon="-0.2153937053">
        <ele>335.64</ele>
        <time>2015-10-23T15:14:36Z</time>
      </trkpt>
      <trkpt lat="43.2262623869" lon="-0.2154000755">
        <ele>334.2</ele>
        <time>2015-10-23T15:14:38Z</time>
      </trkpt>
      <trkpt lat="43.2262228243" lon="-0.2154294122">
        <ele>334.2</ele>
        <time>2015-10-23T15:14:40Z</time>
      </trkpt>
      <trkpt lat="43.2262168732" lon="-0.2154791169">
        <ele>333.23</ele>
        <time>2015-10-23T15:14:53Z</time>
      </trkpt>
      <trkpt lat="43.2262209803" lon="-0.2154766861">
        <ele>333.23</ele>
        <time>2015-10-23T15:15:19Z</time>
      </trkpt>
      <trkpt lat="43.2262268476" lon="-0.2154676337">
        <ele>332.75</ele>
        <time>2015-10-23T15:15:47Z</time>
      </trkpt>
      <trkpt lat="43.2262271829" lon="-0.2154878341">
        <ele>332.27</ele>
        <time>2015-10-23T15:16:17Z</time>
      </trkpt>
      <trkpt lat="43.2262104191" lon="-0.2154812962">
        <ele>331.79</ele>
        <time>2015-10-23T15:16:47Z</time>
      </trkpt>
      <trkpt lat="43.2261740416" lon="-0.2155304141">
        <ele>330.83</ele>
        <time>2015-10-23T15:17:02Z</time>
      </trkpt>
      <trkpt lat="43.226178484" lon="-0.2155306656">
        <ele>331.79</ele>
        <time>2015-10-23T15:17:06Z</time>
      </trkpt>
      <trkpt lat="43.2262645662" lon="-0.2154585812">
        <ele>334.2</ele>
        <time>2015-10-23T15:17:15Z</time>
      </trkpt>
      <trkpt lat="43.2263094932" lon="-0.2154094633">
        <ele>335.64</ele>
        <time>2015-10-23T15:17:23Z</time>
      </trkpt>
      <trkpt lat="43.2263998501" lon="-0.2154068649">
        <ele>337.56</ele>
        <time>2015-10-23T15:17:33Z</time>
      </trkpt>
      <trkpt lat="43.2264574338" lon="-0.2153761871">
        <ele>337.56</ele>
        <time>2015-10-23T15:17:42Z</time>
      </trkpt>
      <trkpt lat="43.2265567593" lon="-0.2153117303">
        <ele>339.48</ele>
        <time>2015-10-23T15:17:54Z</time>
      </trkpt>
      <trkpt lat="43.2265572622" lon="-0.2153117303">
        <ele>339.48</ele>
        <time>2015-10-23T15:17:56Z</time>
      </trkpt>
      <trkpt lat="43.2265131734" lon="-0.2153110597">
        <ele>338.04</ele>
        <time>2015-10-23T15:18:00Z</time>
      </trkpt>
      <trkpt lat="43.2263552584" lon="-0.2154227905">
        <ele>335.16</ele>
        <time>2015-10-23T15:18:06Z</time>
      </trkpt>
      <trkpt lat="43.2263219822" lon="-0.2154237125">
        <ele>334.68</ele>
        <time>2015-10-23T15:18:07Z</time>
      </trkpt>
      <trkpt lat="43.2262944896" lon="-0.2154417336">
        <ele>333.71</ele>
        <time>2015-10-23T15:18:08Z</time>
      </trkpt>
      <trkpt lat="43.2262653206" lon="-0.2154728305">
        <ele>333.71</ele>
        <time>2015-10-23T15:18:09Z</time>
      </trkpt>
      <trkpt lat="43.2261873689" lon="-0.2155408915">
        <ele>330.35</ele>
        <time>2015-10-23T15:18:11Z</time>
      </trkpt>
      <trkpt lat="43.226169683" lon="-0.2155555598">
        <ele>330.35</ele>
        <time>2015-10-23T15:18:12Z</time>
      </trkpt>
      <trkpt lat="43.2261850219" lon="-0.2155744191">
        <ele>329.87</ele>
        <time>2015-10-23T15:18:20Z</time>
      </trkpt>
      <trkpt lat="43.2261906378" lon="-0.2155667078">
        <ele>330.35</ele>
        <time>2015-10-23T15:18:21Z</time>
      </trkpt>
      <trkpt lat="43.226262806" lon="-0.2155112196">
        <ele>331.79</ele>
        <time>2015-10-23T15:18:31Z</time>
      </trkpt>
      <trkpt lat="43.2263161149" lon="-0.2154668793">
        <ele>334.2</ele>
        <time>2015-10-23T15:18:40Z</time>
      </trkpt>
      <trkpt lat="43.2261955831" lon="-0.2155206073">
        <ele>334.2</ele>
        <time>2015-10-23T15:18:49Z</time>
      </trkpt>
      <trkpt lat="43.2261638995" lon="-0.2155495249">
        <ele>330.35</ele>
        <time>2015-10-23T15:18:50Z</time>
      </trkpt>
      <trkpt lat="43.2261450402" lon="-0.2155609243">
        <ele>329.87</ele>
        <time>2015-10-23T15:18:51Z</time>
      </trkpt>
      <trkpt lat="43.2261664141" lon="-0.2156048454">
        <ele>329.39</ele>
        <time>2015-10-23T15:19:05Z</time>
      </trkpt>
      <trkpt lat="43.2261569425" lon="-0.215618005">
        <ele>329.39</ele>
        <time>2015-10-23T15:19:18Z</time>
      </trkpt>
      <trkpt lat="43.2261760533" lon="-0.2156061865">
        <ele>329.39</ele>
        <time>2015-10-23T15:19:21Z</time>
      </trkpt>
      <trkpt lat="43.2262739539" lon="-0.2155166678">
        <ele>330.35</ele>
        <time>2015-10-23T15:19:28Z</time>
      </trkpt>
      <trkpt lat="43.2262991834" lon="-0.2154957131">
        <ele>333.71</ele>
        <time>2015-10-23T15:19:31Z</time>
      </trkpt>
      <trkpt lat="43.2263075653" lon="-0.2154588327">
        <ele>332.75</ele>
        <time>2015-10-23T15:19:41Z</time>
      </trkpt>
      <trkpt lat="43.2262959983" lon="-0.2154530492">
        <ele>332.75</ele>
        <time>2015-10-23T15:19:42Z</time>
      </trkpt>
      <trkpt lat="43.2262623031" lon="-0.215458665">
        <ele>333.23</ele>
        <time>2015-10-23T15:19:46Z</time>
      </trkpt>
      <trkpt lat="43.226234559" lon="-0.2154806256">
        <ele>331.79</ele>
        <time>2015-10-23T15:19:47Z</time>
      </trkpt>
      <trkpt lat="43.226198433" lon="-0.2155159134">
        <ele>333.23</ele>
        <time>2015-10-23T15:19:48Z</time>
      </trkpt>
      <trkpt lat="43.2261514105" lon="-0.2155506145">
        <ele>330.35</ele>
        <time>2015-10-23T15:19:49Z</time>
      </trkpt>
      <trkpt lat="43.2261102553" lon="-0.2155656181">
        <ele>328.91</ele>
        <time>2015-10-23T15:19:50Z</time>
      </trkpt>
      <trkpt lat="43.2260862831" lon="-0.2155685518">
        <ele>328.91</ele>
        <time>2015-10-23T15:19:51Z</time>
      </trkpt>
      <trkpt lat="43.2261151168" lon="-0.2155760955">
        <ele>328.43</ele>
        <time>2015-10-23T15:20:05Z</time>
      </trkpt>
      <trkpt lat="43.2261320483" lon="-0.2155755088">
        <ele>325.06</ele>
        <time>2015-10-23T15:20:17Z</time>
      </trkpt>
      <trkpt lat="43.2261338923" lon="-0.215575844">
        <ele>327.95</ele>
        <time>2015-10-23T15:20:18Z</time>
      </trkpt>
      <trkpt lat="43.226130791" lon="-0.2155977208">
        <ele>327.47</ele>
        <time>2015-10-23T15:20:36Z</time>
      </trkpt>
      <trkpt lat="43.226115033" lon="-0.2156144846">
        <ele>327.47</ele>
        <time>2015-10-23T15:20:44Z</time>
      </trkpt>
      <trkpt lat="43.2261020411" lon="-0.2156214416">
        <ele>327.47</ele>
        <time>2015-10-23T15:20:45Z</time>
      </trkpt>
      <trkpt lat="43.2260869537" lon="-0.215629572">
        <ele>326.99</ele>
        <time>2015-10-23T15:20:46Z</time>
      </trkpt>
      <trkpt lat="43.2260712795" lon="-0.215638876">
        <ele>327.47</ele>
        <time>2015-10-23T15:20:47Z</time>
      </trkpt>
      <trkpt lat="43.226052504" lon="-0.2156543825">
        <ele>326.99</ele>
        <time>2015-10-23T15:20:48Z</time>
      </trkpt>
      <trkpt lat="43.2260327227" lon="-0.2156833839">
        <ele>326.5</ele>
        <time>2015-10-23T15:20:49Z</time>
      </trkpt>
      <trkpt lat="43.2260185573" lon="-0.2157252096">
        <ele>326.5</ele>
        <time>2015-10-23T15:20:50Z</time>
      </trkpt>
      <trkpt lat="43.2260023803" lon="-0.2157695498">
        <ele>326.5</ele>
        <time>2015-10-23T15:20:51Z</time>
      </trkpt>
      <trkpt lat="43.2259866223" lon="-0.2158159856">
        <ele>326.99</ele>
        <time>2015-10-23T15:20:52Z</time>
      </trkpt>
      <trkpt lat="43.2259718701" lon="-0.21587139">
        <ele>328.43</ele>
        <time>2015-10-23T15:20:53Z</time>
      </trkpt>
      <trkpt lat="43.2259564474" lon="-0.2159206755">
        <ele>327.47</ele>
        <time>2015-10-23T15:20:54Z</time>
      </trkpt>
      <trkpt lat="43.2259335648" lon="-0.2159593999">
        <ele>326.02</ele>
        <time>2015-10-23T15:20:55Z</time>
      </trkpt>
      <trkpt lat="43.2259062398" lon="-0.2159921732">
        <ele>326.5</ele>
        <time>2015-10-23T15:20:56Z</time>
      </trkpt>
      <trkpt lat="43.2258720417" lon="-0.2160219289">
        <ele>326.02</ele>
        <time>2015-10-23T15:20:57Z</time>
      </trkpt>
      <trkpt lat="43.2258359157" lon="-0.2160516009">
        <ele>325.06</ele>
        <time>2015-10-23T15:20:58Z</time>
      </trkpt>
      <trkpt lat="43.2257990353" lon="-0.2160692867">
        <ele>326.5</ele>
        <time>2015-10-23T15:20:59Z</time>
      </trkpt>
      <trkpt lat="43.2256122027" lon="-0.2161472384">
        <ele>324.58</ele>
        <time>2015-10-23T15:21:03Z</time>
      </trkpt>
      <trkpt lat="43.2254915033" lon="-0.2162300516">
        <ele>323.62</ele>
        <time>2015-10-23T15:21:05Z</time>
      </trkpt>
      <trkpt lat="43.2254248671" lon="-0.2162472345">
        <ele>321.7</ele>
        <time>2015-10-23T15:21:06Z</time>
      </trkpt>
      <trkpt lat="43.2253576443" lon="-0.2162557002">
        <ele>322.18</ele>
        <time>2015-10-23T15:21:07Z</time>
      </trkpt>
      <trkpt lat="43.2252863143" lon="-0.2162621543">
        <ele>319.78</ele>
        <time>2015-10-23T15:21:08Z</time>
      </trkpt>
      <trkpt lat="43.2252066024" lon="-0.216248408">
        <ele>320.74</ele>
        <time>2015-10-23T15:21:09Z</time>
      </trkpt>
      <trkpt lat="43.2251352724" lon="-0.216217814">
        <ele>318.81</ele>
        <time>2015-10-23T15:21:10Z</time>
      </trkpt>
      <trkpt lat="43.2250814606" lon="-0.2161819395">
        <ele>317.37</ele>
        <time>2015-10-23T15:21:11Z</time>
      </trkpt>
      <trkpt lat="43.2250427362" lon="-0.2161790058">
        <ele>317.37</ele>
        <time>2015-10-23T15:21:12Z</time>
      </trkpt>
      <trkpt lat="43.2250119746" lon="-0.2161874715">
        <ele>314.97</ele>
        <time>2015-10-23T15:21:13Z</time>
      </trkpt>
      <trkpt lat="43.2249847334" lon="-0.2161950152">
        <ele>315.93</ele>
        <time>2015-10-23T15:21:14Z</time>
      </trkpt>
      <trkpt lat="43.2249555644" lon="-0.2162009664">
        <ele>315.45</ele>
        <time>2015-10-23T15:21:15Z</time>
      </trkpt>
      <trkpt lat="43.2249156665" lon="-0.2162049897">
        <ele>314.01</ele>
        <time>2015-10-23T15:21:16Z</time>
      </trkpt>
      <trkpt lat="43.224865878" lon="-0.2162085939">
        <ele>314.01</ele>
        <time>2015-10-23T15:21:17Z</time>
      </trkpt>
      <trkpt lat="43.2248143293" lon="-0.2162221726">
        <ele>312.57</ele>
        <time>2015-10-23T15:21:18Z</time>
      </trkpt>
      <trkpt lat="43.2247673068" lon="-0.2162391879">
        <ele>311.12</ele>
        <time>2015-10-23T15:21:19Z</time>
      </trkpt>
      <trkpt lat="43.22452222" lon="-0.216340106">
        <ele>307.76</ele>
        <time>2015-10-23T15:21:27Z</time>
      </trkpt>
      <trkpt lat="43.2244125847" lon="-0.21635863">
        <ele>304.88</ele>
        <time>2015-10-23T15:21:32Z</time>
      </trkpt>
      <trkpt lat="43.2244000956" lon="-0.2163813449">
        <ele>303.43</ele>
        <time>2015-10-23T15:21:33Z</time>
      </trkpt>
      <trkpt lat="43.224390205" lon="-0.2164059877">
        <ele>303.91</ele>
        <time>2015-10-23T15:21:34Z</time>
      </trkpt>
      <trkpt lat="43.2243851759" lon="-0.2164718695">
        <ele>301.03</ele>
        <time>2015-10-23T15:21:38Z</time>
      </trkpt>
      <trkpt lat="43.2243529893" lon="-0.2165397629">
        <ele>297.67</ele>
        <time>2015-10-23T15:21:42Z</time>
      </trkpt>
      <trkpt lat="43.2243071403" lon="-0.2166231629">
        <ele>295.26</ele>
        <time>2015-10-23T15:21:44Z</time>
      </trkpt>
      <trkpt lat="43.2242720202" lon="-0.2166523319">
        <ele>293.82</ele>
        <time>2015-10-23T15:21:45Z</time>
      </trkpt>
      <trkpt lat="43.2242521551" lon="-0.2166627254">
        <ele>293.82</ele>
        <time>2015-10-23T15:21:46Z</time>
      </trkpt>
      <trkpt lat="43.2242631353" lon="-0.2167766355">
        <ele>292.86</ele>
        <time>2015-10-23T15:22:02Z</time>
      </trkpt>
      <trkpt lat="43.2241814956" lon="-0.2168417629">
        <ele>291.42</ele>
        <time>2015-10-23T15:22:13Z</time>
      </trkpt>
      <trkpt lat="43.2241663244" lon="-0.2168830018">
        <ele>291.42</ele>
        <time>2015-10-23T15:22:14Z</time>
      </trkpt>
      <trkpt lat="43.2241519075" lon="-0.2169988398">
        <ele>289.01</ele>
        <time>2015-10-23T15:22:16Z</time>
      </trkpt>
      <trkpt lat="43.2241509855" lon="-0.2170568425">
        <ele>289.01</ele>
        <time>2015-10-23T15:22:17Z</time>
      </trkpt>
      <trkpt lat="43.2241203915" lon="-0.2171051223">
        <ele>287.57</ele>
        <time>2015-10-23T15:22:20Z</time>
      </trkpt>
      <trkpt lat="43.2238702755" lon="-0.2168975025">
        <ele>286.61</ele>
        <time>2015-10-23T15:22:32Z</time>
      </trkpt>
      <trkpt lat="43.2237753924" lon="-0.216718046">
        <ele>287.57</ele>
        <time>2015-10-23T15:22:37Z</time>
      </trkpt>
      <trkpt lat="43.2234858815" lon="-0.2165085822">
        <ele>286.61</ele>
        <time>2015-10-23T15:22:47Z</time>
      </trkpt>
      <trkpt lat="43.2234368473" lon="-0.2164682653">
        <ele>285.65</ele>
        <time>2015-10-23T15:22:48Z</time>
      </trkpt>
      <trkpt lat="43.223405499" lon="-0.2164328098">
        <ele>283.73</ele>
        <time>2015-10-23T15:22:49Z</time>
      </trkpt>
      <trkpt lat="43.2233879808" lon="-0.2164028864">
        <ele>284.21</ele>
        <time>2015-10-23T15:22:50Z</time>
      </trkpt>
      <trkpt lat="43.2233695406" lon="-0.2163800038">
        <ele>283.25</ele>
        <time>2015-10-23T15:22:51Z</time>
      </trkpt>
      <trkpt lat="43.2233589794" lon="-0.2163537685">
        <ele>285.17</ele>
        <time>2015-10-23T15:22:52Z</time>
      </trkpt>
      <trkpt lat="43.2233466581" lon="-0.2163235098">
        <ele>284.21</ele>
        <time>2015-10-23T15:22:53Z</time>
      </trkpt>
      <trkpt lat="43.2233291399" lon="-0.2162917424">
        <ele>284.69</ele>
        <time>2015-10-23T15:22:54Z</time>
      </trkpt>
      <trkpt lat="43.2232469134" lon="-0.2161537763">
        <ele>286.61</ele>
        <time>2015-10-23T15:23:01Z</time>
      </trkpt>
      <trkpt lat="43.2232390344" lon="-0.2161173988">
        <ele>286.13</ele>
        <time>2015-10-23T15:23:03Z</time>
      </trkpt>
      <trkpt lat="43.2232356817" lon="-0.2160885651">
        <ele>285.65</ele>
        <time>2015-10-23T15:23:04Z</time>
      </trkpt>
      <trkpt lat="43.2232376095" lon="-0.216066353">
        <ele>285.65</ele>
        <time>2015-10-23T15:23:05Z</time>
      </trkpt>
      <trkpt lat="43.2232423872" lon="-0.2160445601">
        <ele>285.65</ele>
        <time>2015-10-23T15:23:06Z</time>
      </trkpt>
      <trkpt lat="43.2232490089" lon="-0.2160229348">
        <ele>285.65</ele>
        <time>2015-10-23T15:23:07Z</time>
      </trkpt>
      <trkpt lat="43.2232551277" lon="-0.2159997169">
        <ele>286.61</ele>
        <time>2015-10-23T15:23:08Z</time>
      </trkpt>
      <trkpt lat="43.2232622523" lon="-0.2159814443">
        <ele>286.61</ele>
        <time>2015-10-23T15:23:09Z</time>
      </trkpt>
      <trkpt lat="43.2232690416" lon="-0.2159627527">
        <ele>287.09</ele>
        <time>2015-10-23T15:23:10Z</time>
      </trkpt>
      <trkpt lat="43.2232734002" lon="-0.215945486">
        <ele>287.57</ele>
        <time>2015-10-23T15:23:11Z</time>
      </trkpt>
      <trkpt lat="43.2232807763" lon="-0.2159278002">
        <ele>287.09</ele>
        <time>2015-10-23T15:23:12Z</time>
      </trkpt>
      <trkpt lat="43.2233058382" lon="-0.2158521116">
        <ele>288.05</ele>
        <time>2015-10-23T15:23:17Z</time>
      </trkpt>
      <trkpt lat="43.223310113" lon="-0.215834761">
        <ele>288.05</ele>
        <time>2015-10-23T15:23:18Z</time>
      </trkpt>
      <trkpt lat="43.2233153097" lon="-0.2158193383">
        <ele>288.05</ele>
        <time>2015-10-23T15:23:19Z</time>
      </trkpt>
      <trkpt lat="43.2233085204" lon="-0.2157604136">
        <ele>289.01</ele>
        <time>2015-10-23T15:23:30Z</time>
      </trkpt>
      <trkpt lat="43.2232916728" lon="-0.2157512773">
        <ele>289.01</ele>
        <time>2015-10-23T15:24:00Z</time>
      </trkpt>
      <trkpt lat="43.2233768329" lon="-0.2156428993">
        <ele>290.46</ele>
        <time>2015-10-23T15:24:16Z</time>
      </trkpt>
      <trkpt lat="43.2234411221" lon="-0.215576347">
        <ele>291.9</ele>
        <time>2015-10-23T15:24:19Z</time>
      </trkpt>
      <trkpt lat="43.2237338182" lon="-0.2154382132">
        <ele>293.34</ele>
        <time>2015-10-23T15:24:32Z</time>
      </trkpt>
      <trkpt lat="43.2237556949" lon="-0.2154278196">
        <ele>293.34</ele>
        <time>2015-10-23T15:24:33Z</time>
      </trkpt>
      <trkpt lat="43.2237771526" lon="-0.2154201083">
        <ele>291.42</ele>
        <time>2015-10-23T15:24:34Z</time>
      </trkpt>
      <trkpt lat="43.2237954251" lon="-0.2154102176">
        <ele>292.86</ele>
        <time>2015-10-23T15:24:35Z</time>
      </trkpt>
      <trkpt lat="43.2238124404" lon="-0.2153970581">
        <ele>293.34</ele>
        <time>2015-10-23T15:24:36Z</time>
      </trkpt>
      <trkpt lat="43.2238308806" lon="-0.2153834794">
        <ele>292.38</ele>
        <time>2015-10-23T15:24:37Z</time>
      </trkpt>
      <trkpt lat="43.22384689" lon="-0.2153691463">
        <ele>292.38</ele>
        <time>2015-10-23T15:24:38Z</time>
      </trkpt>
      <trkpt lat="43.2240164559" lon="-0.2151977364">
        <ele>293.82</ele>
        <time>2015-10-23T15:24:51Z</time>
      </trkpt>
      <trkpt lat="43.2240719441" lon="-0.2151042782">
        <ele>293.34</ele>
        <time>2015-10-23T15:24:57Z</time>
      </trkpt>
      <trkpt lat="43.2240814157" lon="-0.2150881849">
        <ele>293.82</ele>
        <time>2015-10-23T15:24:58Z</time>
      </trkpt>
      <trkpt lat="43.2241407596" lon="-0.214752825">
        <ele>295.26</ele>
        <time>2015-10-23T15:25:11Z</time>
      </trkpt>
      <trkpt lat="43.2241388317" lon="-0.2147260029">
        <ele>294.3</ele>
        <time>2015-10-23T15:25:12Z</time>
      </trkpt>
      <trkpt lat="43.2241327967" lon="-0.2146975044">
        <ele>294.78</ele>
        <time>2015-10-23T15:25:13Z</time>
      </trkpt>
      <trkpt lat="43.224122487" lon="-0.2146446146">
        <ele>294.78</ele>
        <time>2015-10-23T15:25:15Z</time>
      </trkpt>
      <trkpt lat="43.2241221517" lon="-0.2146202233">
        <ele>295.74</ele>
        <time>2015-10-23T15:25:16Z</time>
      </trkpt>
      <trkpt lat="43.2241174579" lon="-0.2145940717">
        <ele>294.3</ele>
        <time>2015-10-23T15:25:17Z</time>
      </trkpt>
      <trkpt lat="43.2240877859" lon="-0.2145037986">
        <ele>295.26</ele>
        <time>2015-10-23T15:25:21Z</time>
      </trkpt>
      <trkpt lat="43.224078482" lon="-0.2144865319">
        <ele>294.3</ele>
        <time>2015-10-23T15:25:22Z</time>
      </trkpt>
      <trkpt lat="43.2240727823" lon="-0.2144668344">
        <ele>295.74</ele>
        <time>2015-10-23T15:25:23Z</time>
      </trkpt>
      <trkpt lat="43.2240642328" lon="-0.2144437004">
        <ele>295.26</ele>
        <time>2015-10-23T15:25:24Z</time>
      </trkpt>
      <trkpt lat="43.2240538392" lon="-0.214420734">
        <ele>294.3</ele>
        <time>2015-10-23T15:25:25Z</time>
      </trkpt>
      <trkpt lat="43.2239772286" lon="-0.2142162155">
        <ele>297.67</ele>
        <time>2015-10-23T15:25:36Z</time>
      </trkpt>
      <trkpt lat="43.2239467185" lon="-0.2141456399">
        <ele>298.15</ele>
        <time>2015-10-23T15:25:41Z</time>
      </trkpt>
      <trkpt lat="43.2239414379" lon="-0.2141301334">
        <ele>298.15</ele>
        <time>2015-10-23T15:25:42Z</time>
      </trkpt>
      <trkpt lat="43.2239353191" lon="-0.2140897326">
        <ele>297.67</ele>
        <time>2015-10-23T15:25:45Z</time>
      </trkpt>
      <trkpt lat="43.223927021" lon="-0.214060396">
        <ele>299.11</ele>
        <time>2015-10-23T15:25:47Z</time>
      </trkpt>
      <trkpt lat="43.2238962594" lon="-0.2139212564">
        <ele>299.11</ele>
        <time>2015-10-23T15:25:58Z</time>
      </trkpt>
      <trkpt lat="43.2238931581" lon="-0.2138651814">
        <ele>299.59</ele>
        <time>2015-10-23T15:26:09Z</time>
      </trkpt>
      <trkpt lat="43.2238923199" lon="-0.2138436399">
        <ele>300.55</ele>
        <time>2015-10-23T15:26:10Z</time>
      </trkpt>
      <trkpt lat="43.2238947507" lon="-0.2138240263">
        <ele>301.03</ele>
        <time>2015-10-23T15:26:11Z</time>
      </trkpt>
      <trkpt lat="43.2238961756" lon="-0.2138053346">
        <ele>300.55</ele>
        <time>2015-10-23T15:26:12Z</time>
      </trkpt>
      <trkpt lat="43.2238943316" lon="-0.2136189211">
        <ele>303.43</ele>
        <time>2015-10-23T15:26:21Z</time>
      </trkpt>
      <trkpt lat="43.2238288689" lon="-0.2134541329">
        <ele>303.91</ele>
        <time>2015-10-23T15:26:33Z</time>
      </trkpt>
      <trkpt lat="43.2236733008" lon="-0.2132664621">
        <ele>303.43</ele>
        <time>2015-10-23T15:26:45Z</time>
      </trkpt>
      <trkpt lat="43.2236295473" lon="-0.2132118121">
        <ele>301.99</ele>
        <time>2015-10-23T15:26:47Z</time>
      </trkpt>
      <trkpt lat="43.2235420402" lon="-0.2131649572">
        <ele>301.51</ele>
        <time>2015-10-23T15:26:50Z</time>
      </trkpt>
      <trkpt lat="43.2232915051" lon="-0.2128863428">
        <ele>299.11</ele>
        <time>2015-10-23T15:26:59Z</time>
      </trkpt>
      <trkpt lat="43.2232541218" lon="-0.2128502168">
        <ele>299.59</ele>
        <time>2015-10-23T15:27:01Z</time>
      </trkpt>
      <trkpt lat="43.2232369389" lon="-0.212808894">
        <ele>299.59</ele>
        <time>2015-10-23T15:27:03Z</time>
      </trkpt>
      <trkpt lat="43.2231533714" lon="-0.2126308624">
        <ele>301.03</ele>
        <time>2015-10-23T15:27:13Z</time>
      </trkpt>
      <trkpt lat="43.223135015" lon="-0.2125369012">
        <ele>302.95</ele>
        <time>2015-10-23T15:27:18Z</time>
      </trkpt>
      <trkpt lat="43.2231226098" lon="-0.2125071455">
        <ele>302.95</ele>
        <time>2015-10-23T15:27:20Z</time>
      </trkpt>
      <trkpt lat="43.223100733" lon="-0.2124023717">
        <ele>303.43</ele>
        <time>2015-10-23T15:27:25Z</time>
      </trkpt>
      <trkpt lat="43.2229093742" lon="-0.2121091727">
        <ele>301.03</ele>
        <time>2015-10-23T15:27:38Z</time>
      </trkpt>
      <trkpt lat="43.2226201147" lon="-0.2118879743">
        <ele>299.59</ele>
        <time>2015-10-23T15:27:49Z</time>
      </trkpt>
      <trkpt lat="43.2225356251" lon="-0.2116247825">
        <ele>304.39</ele>
        <time>2015-10-23T15:27:58Z</time>
      </trkpt>
      <trkpt lat="43.2225271594" lon="-0.2116115391">
        <ele>304.39</ele>
        <time>2015-10-23T15:27:59Z</time>
      </trkpt>
      <trkpt lat="43.22249908" lon="-0.2115700487">
        <ele>303.91</ele>
        <time>2015-10-23T15:28:02Z</time>
      </trkpt>
      <trkpt lat="43.2224526443" lon="-0.2114784345">
        <ele>304.88</ele>
        <time>2015-10-23T15:28:07Z</time>
      </trkpt>
      <trkpt lat="43.2223713398" lon="-0.2113646083">
        <ele>305.36</ele>
        <time>2015-10-23T15:28:14Z</time>
      </trkpt>
      <trkpt lat="43.2222856767" lon="-0.2113004029">
        <ele>304.88</ele>
        <time>2015-10-23T15:28:19Z</time>
      </trkpt>
      <trkpt lat="43.2221099921" lon="-0.211208621">
        <ele>307.28</ele>
        <time>2015-10-23T15:28:30Z</time>
      </trkpt>
      <trkpt lat="43.2218741253" lon="-0.2111031767">
        <ele>308.24</ele>
        <time>2015-10-23T15:28:42Z</time>
      </trkpt>
      <trkpt lat="43.2217885461" lon="-0.2110887598">
        <ele>307.76</ele>
        <time>2015-10-23T15:28:55Z</time>
      </trkpt>
      <trkpt lat="43.2217871211" lon="-0.2110776957">
        <ele>306.8</ele>
        <time>2015-10-23T15:29:21Z</time>
      </trkpt>
      <trkpt lat="43.2217084989" lon="-0.2110393904">
        <ele>307.76</ele>
        <time>2015-10-23T15:29:28Z</time>
      </trkpt>
      <trkpt lat="43.2216525916" lon="-0.2110042702">
        <ele>306.32</ele>
        <time>2015-10-23T15:29:31Z</time>
      </trkpt>
      <trkpt lat="43.2215998694" lon="-0.2109933738">
        <ele>305.36</ele>
        <time>2015-10-23T15:29:33Z</time>
      </trkpt>
      <trkpt lat="43.2214225084" lon="-0.2110857423">
        <ele>303.91</ele>
        <time>2015-10-23T15:29:40Z</time>
      </trkpt>
      <trkpt lat="43.2212847099" lon="-0.2111424878">
        <ele>302.47</ele>
        <time>2015-10-23T15:29:42Z</time>
      </trkpt>
      <trkpt lat="43.221120676" lon="-0.2112031728">
        <ele>299.59</ele>
        <time>2015-10-23T15:29:46Z</time>
      </trkpt>
      <trkpt lat="43.2208238728" lon="-0.2111783624">
        <ele>297.18</ele>
        <time>2015-10-23T15:29:53Z</time>
      </trkpt>
      <trkpt lat="43.2207677141" lon="-0.2111597545">
        <ele>296.22</ele>
        <time>2015-10-23T15:29:54Z</time>
      </trkpt>
      <trkpt lat="43.2205631118" lon="-0.2110436652">
        <ele>292.86</ele>
        <time>2015-10-23T15:29:58Z</time>
      </trkpt>
      <trkpt lat="43.2205242198" lon="-0.2110184357">
        <ele>291.9</ele>
        <time>2015-10-23T15:29:59Z</time>
      </trkpt>
      <trkpt lat="43.2203679811" lon="-0.2108006738">
        <ele>290.46</ele>
        <time>2015-10-23T15:30:06Z</time>
      </trkpt>
      <trkpt lat="43.2202996686" lon="-0.2107905317">
        <ele>289.97</ele>
        <time>2015-10-23T15:30:08Z</time>
      </trkpt>
      <trkpt lat="43.2201780472" lon="-0.2106762864">
        <ele>288.53</ele>
        <time>2015-10-23T15:30:16Z</time>
      </trkpt>
      <trkpt lat="43.2199148554" lon="-0.2105488814">
        <ele>290.94</ele>
        <time>2015-10-23T15:30:28Z</time>
      </trkpt>
      <trkpt lat="43.2196081616" lon="-0.2105526533">
        <ele>289.49</ele>
        <time>2015-10-23T15:30:39Z</time>
      </trkpt>
      <trkpt lat="43.2193896454" lon="-0.2105414215">
        <ele>289.49</ele>
        <time>2015-10-23T15:30:49Z</time>
      </trkpt>
      <trkpt lat="43.2191944309" lon="-0.2104949858">
        <ele>289.97</ele>
        <time>2015-10-23T15:31:00Z</time>
      </trkpt>
      <trkpt lat="43.2191473246" lon="-0.2105358895">
        <ele>289.49</ele>
        <time>2015-10-23T15:31:05Z</time>
      </trkpt>
      <trkpt lat="43.2189733163" lon="-0.2106066328">
        <ele>289.97</ele>
        <time>2015-10-23T15:31:14Z</time>
      </trkpt>
      <trkpt lat="43.2187108789" lon="-0.2107742708">
        <ele>289.49</ele>
        <time>2015-10-23T15:31:26Z</time>
      </trkpt>
      <trkpt lat="43.2183575816" lon="-0.210958505">
        <ele>289.97</ele>
        <time>2015-10-23T15:31:37Z</time>
      </trkpt>
      <trkpt lat="43.2181241456" lon="-0.2110290807">
        <ele>290.94</ele>
        <time>2015-10-23T15:31:46Z</time>
      </trkpt>
      <trkpt lat="43.2180796377" lon="-0.2110051923">
        <ele>291.9</ele>
        <time>2015-10-23T15:31:48Z</time>
      </trkpt>
      <trkpt lat="43.2180349622" lon="-0.2109887637">
        <ele>292.38</ele>
        <time>2015-10-23T15:31:50Z</time>
      </trkpt>
      <trkpt lat="43.2178796455" lon="-0.2110463474">
        <ele>291.42</ele>
        <time>2015-10-23T15:31:56Z</time>
      </trkpt>
      <trkpt lat="43.2178348023" lon="-0.2110697329">
        <ele>290.94</ele>
        <time>2015-10-23T15:31:58Z</time>
      </trkpt>
      <trkpt lat="43.2176947407" lon="-0.2111804578">
        <ele>290.94</ele>
        <time>2015-10-23T15:32:03Z</time>
      </trkpt>
      <trkpt lat="43.2175160386" lon="-0.2113693021">
        <ele>287.09</ele>
        <time>2015-10-23T15:32:07Z</time>
      </trkpt>
      <trkpt lat="43.2173129451" lon="-0.2115121298">
        <ele>285.17</ele>
        <time>2015-10-23T15:32:12Z</time>
      </trkpt>
      <trkpt lat="43.2171417866" lon="-0.2115616668">
        <ele>284.21</ele>
        <time>2015-10-23T15:32:17Z</time>
      </trkpt>
      <trkpt lat="43.217111947" lon="-0.2115611639">
        <ele>285.17</ele>
        <time>2015-10-23T15:32:18Z</time>
      </trkpt>
      <trkpt lat="43.2170908246" lon="-0.2115479205">
        <ele>284.69</ele>
        <time>2015-10-23T15:32:19Z</time>
      </trkpt>
      <trkpt lat="43.2170813531" lon="-0.2115267981">
        <ele>285.65</ele>
        <time>2015-10-23T15:32:20Z</time>
      </trkpt>
      <trkpt lat="43.2170786709" lon="-0.2114966232">
        <ele>285.17</ele>
        <time>2015-10-23T15:32:21Z</time>
      </trkpt>
      <trkpt lat="43.217078587" lon="-0.2114653587">
        <ele>284.21</ele>
        <time>2015-10-23T15:32:22Z</time>
      </trkpt>
      <trkpt lat="43.2170807663" lon="-0.2114376985">
        <ele>285.65</ele>
        <time>2015-10-23T15:32:23Z</time>
      </trkpt>
      <trkpt lat="43.2170837" lon="-0.2114143129">
        <ele>285.65</ele>
        <time>2015-10-23T15:32:24Z</time>
      </trkpt>
      <trkpt lat="43.2170852087" lon="-0.211394364">
        <ele>285.65</ele>
        <time>2015-10-23T15:32:25Z</time>
      </trkpt>
      <trkpt lat="43.217081856" lon="-0.2113746665">
        <ele>285.65</ele>
        <time>2015-10-23T15:32:26Z</time>
      </trkpt>
      <trkpt lat="43.2170757372" lon="-0.2113599982">
        <ele>286.61</ele>
        <time>2015-10-23T15:32:27Z</time>
      </trkpt>
      <trkpt lat="43.2170733903" lon="-0.2113449108">
        <ele>286.13</ele>
        <time>2015-10-23T15:32:28Z</time>
      </trkpt>
      <trkpt lat="43.2170699537" lon="-0.2113262191">
        <ele>285.65</ele>
        <time>2015-10-23T15:32:29Z</time>
      </trkpt>
      <trkpt lat="43.2170694508" lon="-0.2113050129">
        <ele>286.13</ele>
        <time>2015-10-23T15:32:30Z</time>
      </trkpt>
      <trkpt lat="43.2170734741" lon="-0.2112840582">
        <ele>285.65</ele>
        <time>2015-10-23T15:32:31Z</time>
      </trkpt>
      <trkpt lat="43.2170801796" lon="-0.2112638578">
        <ele>286.13</ele>
        <time>2015-10-23T15:32:32Z</time>
      </trkpt>
      <trkpt lat="43.2170837" lon="-0.2112425677">
        <ele>286.61</ele>
        <time>2015-10-23T15:32:33Z</time>
      </trkpt>
      <trkpt lat="43.2170883939" lon="-0.2112187631">
        <ele>286.61</ele>
        <time>2015-10-23T15:32:34Z</time>
      </trkpt>
      <trkpt lat="43.2170946803" lon="-0.2111921087">
        <ele>286.61</ele>
        <time>2015-10-23T15:32:35Z</time>
      </trkpt>
      <trkpt lat="43.2171585504" lon="-0.21101458">
        <ele>289.01</ele>
        <time>2015-10-23T15:32:47Z</time>
      </trkpt>
      <trkpt lat="43.2172173914" lon="-0.2108795475">
        <ele>290.94</ele>
        <time>2015-10-23T15:32:56Z</time>
      </trkpt>
      <trkpt lat="43.2172261924" lon="-0.2108668908">
        <ele>291.42</ele>
        <time>2015-10-23T15:32:57Z</time>
      </trkpt>
      <trkpt lat="43.2172716223" lon="-0.2108217124">
        <ele>290.94</ele>
        <time>2015-10-23T15:33:01Z</time>
      </trkpt>
      <trkpt lat="43.2172955945" lon="-0.2108058706">
        <ele>292.86</ele>
        <time>2015-10-23T15:33:03Z</time>
      </trkpt>
      <trkpt lat="43.2173062395" lon="-0.2107919566">
        <ele>293.34</ele>
        <time>2015-10-23T15:33:04Z</time>
      </trkpt>
      <trkpt lat="43.2173196506" lon="-0.2107750252">
        <ele>293.34</ele>
        <time>2015-10-23T15:33:05Z</time>
      </trkpt>
      <trkpt lat="43.2173546031" lon="-0.2107309364">
        <ele>295.26</ele>
        <time>2015-10-23T15:33:08Z</time>
      </trkpt>
      <trkpt lat="43.2175267674" lon="-0.2106613666">
        <ele>295.74</ele>
        <time>2015-10-23T15:33:19Z</time>
      </trkpt>
      <trkpt lat="43.2175498176" lon="-0.2106462792">
        <ele>296.7</ele>
        <time>2015-10-23T15:33:21Z</time>
      </trkpt>
      <trkpt lat="43.2176224049" lon="-0.210575033">
        <ele>298.15</ele>
        <time>2015-10-23T15:33:32Z</time>
      </trkpt>
      <trkpt lat="43.2176396716" lon="-0.2105969097">
        <ele>296.22</ele>
        <time>2015-10-23T15:33:54Z</time>
      </trkpt>
      <trkpt lat="43.2176345587" lon="-0.2105780505">
        <ele>296.22</ele>
        <time>2015-10-23T15:34:25Z</time>
      </trkpt>
      <trkpt lat="43.2176474668" lon="-0.2105513122">
        <ele>296.22</ele>
        <time>2015-10-23T15:34:46Z</time>
      </trkpt>
      <trkpt lat="43.2176958304" lon="-0.210467577">
        <ele>295.74</ele>
        <time>2015-10-23T15:34:53Z</time>
      </trkpt>
      <trkpt lat="43.2178091537" lon="-0.2102384157">
        <ele>298.63</ele>
        <time>2015-10-23T15:35:06Z</time>
      </trkpt>
      <trkpt lat="43.2178282645" lon="-0.2102001105">
        <ele>298.63</ele>
        <time>2015-10-23T15:35:08Z</time>
      </trkpt>
      <trkpt lat="43.2178421784" lon="-0.2101833466">
        <ele>298.63</ele>
        <time>2015-10-23T15:35:09Z</time>
      </trkpt>
      <trkpt lat="43.2178549189" lon="-0.2101656608">
        <ele>298.63</ele>
        <time>2015-10-23T15:35:10Z</time>
      </trkpt>
      <trkpt lat="43.2179997582" lon="-0.2099354938">
        <ele>299.11</ele>
        <time>2015-10-23T15:35:22Z</time>
      </trkpt>
      <trkpt lat="43.218100341" lon="-0.2096735593">
        <ele>301.03</ele>
        <time>2015-10-23T15:35:33Z</time>
      </trkpt>
      <trkpt lat="43.2182573341" lon="-0.2093130536">
        <ele>301.51</ele>
        <time>2015-10-23T15:35:49Z</time>
      </trkpt>
      <trkpt lat="43.2184042688" lon="-0.2091486845">
        <ele>301.03</ele>
        <time>2015-10-23T15:36:01Z</time>
      </trkpt>
      <trkpt lat="43.2184316777" lon="-0.2091372851">
        <ele>302.95</ele>
        <time>2015-10-23T15:36:03Z</time>
      </trkpt>
      <trkpt lat="43.2185111381" lon="-0.209077606">
        <ele>304.39</ele>
        <time>2015-10-23T15:36:11Z</time>
      </trkpt>
      <trkpt lat="43.2185509522" lon="-0.2090341877">
        <ele>304.39</ele>
        <time>2015-10-23T15:36:23Z</time>
      </trkpt>
      <trkpt lat="43.2185692247" lon="-0.2088496182">
        <ele>303.91</ele>
        <time>2015-10-23T15:36:33Z</time>
      </trkpt>
      <trkpt lat="43.2185776904" lon="-0.2086989116">
        <ele>304.39</ele>
        <time>2015-10-23T15:36:40Z</time>
      </trkpt>
      <trkpt lat="43.2185812946" lon="-0.2086802199">
        <ele>304.39</ele>
        <time>2015-10-23T15:36:41Z</time>
      </trkpt>
      <trkpt lat="43.2185854018" lon="-0.2086600196">
        <ele>303.43</ele>
        <time>2015-10-23T15:36:42Z</time>
      </trkpt>
      <trkpt lat="43.2185885031" lon="-0.2086347062">
        <ele>304.39</ele>
        <time>2015-10-23T15:36:43Z</time>
      </trkpt>
      <trkpt lat="43.218594538" lon="-0.2086117398">
        <ele>303.43</ele>
        <time>2015-10-23T15:36:44Z</time>
      </trkpt>
      <trkpt lat="43.2186018303" lon="-0.2085891925">
        <ele>304.39</ele>
        <time>2015-10-23T15:36:45Z</time>
      </trkpt>
      <trkpt lat="43.2186066918" lon="-0.2085680701">
        <ele>303.91</ele>
        <time>2015-10-23T15:36:46Z</time>
      </trkpt>
      <trkpt lat="43.2186113019" lon="-0.208547283">
        <ele>304.39</ele>
        <time>2015-10-23T15:36:47Z</time>
      </trkpt>
      <trkpt lat="43.2186154928" lon="-0.2085254062">
        <ele>303.91</ele>
        <time>2015-10-23T15:36:48Z</time>
      </trkpt>
      <trkpt lat="43.2186227851" lon="-0.2085042">
        <ele>303.91</ele>
        <time>2015-10-23T15:36:49Z</time>
      </trkpt>
      <trkpt lat="43.2186678797" lon="-0.2083882783">
        <ele>303.91</ele>
        <time>2015-10-23T15:36:56Z</time>
      </trkpt>
      <trkpt lat="43.218685817" lon="-0.2083761245">
        <ele>304.88</ele>
        <time>2015-10-23T15:36:57Z</time>
      </trkpt>
      <trkpt lat="43.218701994" lon="-0.2083593607">
        <ele>302.95</ele>
        <time>2015-10-23T15:36:58Z</time>
      </trkpt>
      <trkpt lat="43.2187164109" lon="-0.2083357237">
        <ele>303.91</ele>
        <time>2015-10-23T15:36:59Z</time>
      </trkpt>
      <trkpt lat="43.2187287323" lon="-0.2083126735">
        <ele>302.95</ele>
        <time>2015-10-23T15:37:00Z</time>
      </trkpt>
      <trkpt lat="43.2187383715" lon="-0.2082906291">
        <ele>303.91</ele>
        <time>2015-10-23T15:37:01Z</time>
      </trkpt>
      <trkpt lat="43.2188962027" lon="-0.2080962528">
        <ele>302.95</ele>
        <time>2015-10-23T15:37:13Z</time>
      </trkpt>
      <trkpt lat="43.218935933" lon="-0.2080167085">
        <ele>303.43</ele>
        <time>2015-10-23T15:37:18Z</time>
      </trkpt>
      <trkpt lat="43.2189384475" lon="-0.2079606336">
        <ele>302.47</ele>
        <time>2015-10-23T15:37:22Z</time>
      </trkpt>
      <trkpt lat="43.2189532835" lon="-0.2078561112">
        <ele>302.47</ele>
        <time>2015-10-23T15:37:33Z</time>
      </trkpt>
      <trkpt lat="43.2189430576" lon="-0.2078257687">
        <ele>303.91</ele>
        <time>2015-10-23T15:37:45Z</time>
      </trkpt>
      <trkpt lat="43.2189505175" lon="-0.207801545">
        <ele>304.39</ele>
        <time>2015-10-23T15:38:01Z</time>
      </trkpt>
      <trkpt lat="43.2189551275" lon="-0.2078080829">
        <ele>301.03</ele>
        <time>2015-10-23T15:38:03Z</time>
      </trkpt>
      <trkpt lat="43.2189552113" lon="-0.2078079991">
        <ele>302.95</ele>
        <time>2015-10-23T15:38:04Z</time>
      </trkpt>
      <trkpt lat="43.2189566363" lon="-0.2078087535">
        <ele>306.32</ele>
        <time>2015-10-23T15:38:05Z</time>
      </trkpt>
      <trkpt lat="43.2189612463" lon="-0.2078054007">
        <ele>302.95</ele>
        <time>2015-10-23T15:38:08Z</time>
      </trkpt>
      <trkpt lat="43.2189760823" lon="-0.2078089211">
        <ele>302.95</ele>
        <time>2015-10-23T15:38:36Z</time>
      </trkpt>
      <trkpt lat="43.2190061733" lon="-0.2078254335">
        <ele>303.43</ele>
        <time>2015-10-23T15:39:07Z</time>
      </trkpt>
      <trkpt lat="43.2190048322" lon="-0.2078327257">
        <ele>301.99</ele>
        <time>2015-10-23T15:39:25Z</time>
      </trkpt>
      <trkpt lat="43.2190050837" lon="-0.2078322228">
        <ele>302.95</ele>
        <time>2015-10-23T15:39:28Z</time>
      </trkpt>
      <trkpt lat="43.219012795" lon="-0.207831217">
        <ele>300.07</ele>
        <time>2015-10-23T15:39:39Z</time>
      </trkpt>
      <trkpt lat="43.2190132979" lon="-0.2078305464">
        <ele>303.43</ele>
        <time>2015-10-23T15:39:40Z</time>
      </trkpt>
      <trkpt lat="43.2190148905" lon="-0.2078296244">
        <ele>302.95</ele>
        <time>2015-10-23T15:39:56Z</time>
      </trkpt>
      <trkpt lat="43.219004916" lon="-0.2078280319">
        <ele>303.43</ele>
        <time>2015-10-23T15:40:15Z</time>
      </trkpt>
      <trkpt lat="43.2190092746" lon="-0.2078256849">
        <ele>302.95</ele>
        <time>2015-10-23T15:40:30Z</time>
      </trkpt>
      <trkpt lat="43.2189947739" lon="-0.2078178059">
        <ele>302.95</ele>
        <time>2015-10-23T15:40:47Z</time>
      </trkpt>
      <trkpt lat="43.2189835422" lon="-0.2078007068">
        <ele>302.95</ele>
        <time>2015-10-23T15:41:00Z</time>
      </trkpt>
      <trkpt lat="43.2189770881" lon="-0.207800623">
        <ele>302.95</ele>
        <time>2015-10-23T15:41:13Z</time>
      </trkpt>
      <trkpt lat="43.2189518586" lon="-0.207812693">
        <ele>302.47</ele>
        <time>2015-10-23T15:41:29Z</time>
      </trkpt>
      <trkpt lat="43.2188884076" lon="-0.2078960091">
        <ele>302.95</ele>
        <time>2015-10-23T15:41:39Z</time>
      </trkpt>
      <trkpt lat="43.2188841328" lon="-0.2078985237">
        <ele>302.95</ele>
        <time>2015-10-23T15:41:40Z</time>
      </trkpt>
      <trkpt lat="43.2188226096" lon="-0.2079574484">
        <ele>302.95</ele>
        <time>2015-10-23T15:41:46Z</time>
      </trkpt>
      <trkpt lat="43.218720099" lon="-0.2080953307">
        <ele>301.99</ele>
        <time>2015-10-23T15:41:59Z</time>
      </trkpt>
      <trkpt lat="43.2186855655" lon="-0.2081246674">
        <ele>301.99</ele>
        <time>2015-10-23T15:42:04Z</time>
      </trkpt>
      <trkpt lat="43.218602417" lon="-0.2082595322">
        <ele>302.47</ele>
        <time>2015-10-23T15:42:13Z</time>
      </trkpt>
      <trkpt lat="43.2185645308" lon="-0.208326336">
        <ele>302.47</ele>
        <time>2015-10-23T15:42:18Z</time>
      </trkpt>
      <trkpt lat="43.2185439114" lon="-0.2083627135">
        <ele>302.47</ele>
        <time>2015-10-23T15:42:20Z</time>
      </trkpt>
      <trkpt lat="43.2185274828" lon="-0.2084114961">
        <ele>301.99</ele>
        <time>2015-10-23T15:42:22Z</time>
      </trkpt>
      <trkpt lat="43.2184308395" lon="-0.2084604464">
        <ele>301.99</ele>
        <time>2015-10-23T15:42:30Z</time>
      </trkpt>
      <trkpt lat="43.2182576694" lon="-0.2086006757">
        <ele>302.47</ele>
        <time>2015-10-23T15:42:42Z</time>
      </trkpt>
      <trkpt lat="43.2182394806" lon="-0.2086188644">
        <ele>302.47</ele>
        <time>2015-10-23T15:42:43Z</time>
      </trkpt>
      <trkpt lat="43.2180409972" lon="-0.208843248">
        <ele>302.47</ele>
        <time>2015-10-23T15:42:55Z</time>
      </trkpt>
      <trkpt lat="43.2179969922" lon="-0.2089197747">
        <ele>302.47</ele>
        <time>2015-10-23T15:42:59Z</time>
      </trkpt>
      <trkpt lat="43.2179418392" lon="-0.2090736665">
        <ele>302.47</ele>
        <time>2015-10-23T15:43:06Z</time>
      </trkpt>
      <trkpt lat="43.2178197149" lon="-0.2092286479">
        <ele>302.47</ele>
        <time>2015-10-23T15:43:12Z</time>
      </trkpt>
      <trkpt lat="43.2177391648" lon="-0.2093205974">
        <ele>301.51</ele>
        <time>2015-10-23T15:43:15Z</time>
      </trkpt>
      <trkpt lat="43.2176077366" lon="-0.2094626706">
        <ele>302.47</ele>
        <time>2015-10-23T15:43:22Z</time>
      </trkpt>
      <trkpt lat="43.2174466364" lon="-0.2095500939">
        <ele>302.95</ele>
        <time>2015-10-23T15:43:29Z</time>
      </trkpt>
      <trkpt lat="43.217251841" lon="-0.2096513472">
        <ele>302.95</ele>
        <time>2015-10-23T15:43:38Z</time>
      </trkpt>
      <trkpt lat="43.2170344982" lon="-0.2097057458">
        <ele>302.47</ele>
        <time>2015-10-23T15:43:50Z</time>
      </trkpt>
      <trkpt lat="43.2169776689" lon="-0.2096906584">
        <ele>302.95</ele>
        <time>2015-10-23T15:43:54Z</time>
      </trkpt>
      <trkpt lat="43.2168118749" lon="-0.2096399479">
        <ele>302.95</ele>
        <time>2015-10-23T15:44:03Z</time>
      </trkpt>
      <trkpt lat="43.2166125532" lon="-0.2095003892">
        <ele>302.47</ele>
        <time>2015-10-23T15:44:12Z</time>
      </trkpt>
      <trkpt lat="43.2164181769" lon="-0.2093288116">
        <ele>301.99</ele>
        <time>2015-10-23T15:44:24Z</time>
      </trkpt>
      <trkpt lat="43.2163320947" lon="-0.2093331702">
        <ele>302.95</ele>
        <time>2015-10-23T15:44:35Z</time>
      </trkpt>
      <trkpt lat="43.2163266465" lon="-0.2093355171">
        <ele>302.47</ele>
        <time>2015-10-23T15:44:36Z</time>
      </trkpt>
      <trkpt lat="43.2160673942" lon="-0.209303163">
        <ele>301.99</ele>
        <time>2015-10-23T15:44:47Z</time>
      </trkpt>
      <trkpt lat="43.2159004267" lon="-0.2093169931">
        <ele>302.95</ele>
        <time>2015-10-23T15:44:59Z</time>
      </trkpt>
      <trkpt lat="43.2157675736" lon="-0.2093239501">
        <ele>302.47</ele>
        <time>2015-10-23T15:45:11Z</time>
      </trkpt>
      <trkpt lat="43.2156517357" lon="-0.2093284763">
        <ele>302.95</ele>
        <time>2015-10-23T15:45:24Z</time>
      </trkpt>
      <trkpt lat="43.2155146077" lon="-0.2093855571">
        <ele>302.47</ele>
        <time>2015-10-23T15:45:33Z</time>
      </trkpt>
      <trkpt lat="43.2153457962" lon="-0.2094664425">
        <ele>302.95</ele>
        <time>2015-10-23T15:45:44Z</time>
      </trkpt>
      <trkpt lat="43.215271784" lon="-0.2094446495">
        <ele>302.47</ele>
        <time>2015-10-23T15:45:48Z</time>
      </trkpt>
      <trkpt lat="43.2151478156" lon="-0.2094060089">
        <ele>302.47</ele>
        <time>2015-10-23T15:45:55Z</time>
      </trkpt>
      <trkpt lat="43.2150414493" lon="-0.2093296498">
        <ele>302.47</ele>
        <time>2015-10-23T15:46:02Z</time>
      </trkpt>
      <trkpt lat="43.214939693" lon="-0.209289249">
        <ele>301.99</ele>
        <time>2015-10-23T15:46:15Z</time>
      </trkpt>
      <trkpt lat="43.2149146311" lon="-0.2092755865">
        <ele>302.95</ele>
        <time>2015-10-23T15:46:33Z</time>
      </trkpt>
      <trkpt lat="43.2149135415" lon="-0.2092694677">
        <ele>302.47</ele>
        <time>2015-10-23T15:46:39Z</time>
      </trkpt>
      <trkpt lat="43.2149015553" lon="-0.2092423942">
        <ele>301.99</ele>
        <time>2015-10-23T15:46:42Z</time>
      </trkpt>
      <trkpt lat="43.2148818579" lon="-0.2092216071">
        <ele>301.51</ele>
        <time>2015-10-23T15:46:44Z</time>
      </trkpt>
      <trkpt lat="43.2147977874" lon="-0.2091910969">
        <ele>301.03</ele>
        <time>2015-10-23T15:46:50Z</time>
      </trkpt>
      <trkpt lat="43.2146746572" lon="-0.2091580722">
        <ele>301.51</ele>
        <time>2015-10-23T15:46:59Z</time>
      </trkpt>
      <trkpt lat="43.2146488409" lon="-0.2091597486">
        <ele>301.03</ele>
        <time>2015-10-23T15:47:01Z</time>
      </trkpt>
      <trkpt lat="43.2143392134" lon="-0.2090896759">
        <ele>301.51</ele>
        <time>2015-10-23T15:47:15Z</time>
      </trkpt>
      <trkpt lat="43.2142974716" lon="-0.2090836409">
        <ele>301.99</ele>
        <time>2015-10-23T15:47:17Z</time>
      </trkpt>
      <trkpt lat="43.2142258063" lon="-0.2090601716">
        <ele>301.51</ele>
        <time>2015-10-23T15:47:21Z</time>
      </trkpt>
      <trkpt lat="43.2141367905" lon="-0.2090369537">
        <ele>301.99</ele>
        <time>2015-10-23T15:47:24Z</time>
      </trkpt>
      <trkpt lat="43.2140829787" lon="-0.2090067789">
        <ele>302.95</ele>
        <time>2015-10-23T15:47:26Z</time>
      </trkpt>
      <trkpt lat="43.2139290869" lon="-0.2089162543">
        <ele>303.43</ele>
        <time>2015-10-23T15:47:35Z</time>
      </trkpt>
      <trkpt lat="43.2138727605" lon="-0.2089356165">
        <ele>302.95</ele>
        <time>2015-10-23T15:47:40Z</time>
      </trkpt>
      <trkpt lat="43.2138295937" lon="-0.2089982294">
        <ele>301.99</ele>
        <time>2015-10-23T15:47:43Z</time>
      </trkpt>
      <trkpt lat="43.213706715" lon="-0.2091080323">
        <ele>299.11</ele>
        <time>2015-10-23T15:47:50Z</time>
      </trkpt>
      <trkpt lat="43.21363681" lon="-0.2091949526">
        <ele>298.15</ele>
        <time>2015-10-23T15:47:52Z</time>
      </trkpt>
      <trkpt lat="43.2135156915" lon="-0.2093213517">
        <ele>293.34</ele>
        <time>2015-10-23T15:47:55Z</time>
      </trkpt>
      <trkpt lat="43.2133605424" lon="-0.2094487567">
        <ele>289.97</ele>
        <time>2015-10-23T15:47:59Z</time>
      </trkpt>
      <trkpt lat="43.213169938" lon="-0.2095897403">
        <ele>290.46</ele>
        <time>2015-10-23T15:48:07Z</time>
      </trkpt>
      <trkpt lat="43.2131457143" lon="-0.2095948532">
        <ele>289.97</ele>
        <time>2015-10-23T15:48:08Z</time>
      </trkpt>
      <trkpt lat="43.2131243404" lon="-0.2096059173">
        <ele>289.97</ele>
        <time>2015-10-23T15:48:09Z</time>
      </trkpt>
      <trkpt lat="43.2131106779" lon="-0.2096189093">
        <ele>289.97</ele>
        <time>2015-10-23T15:48:10Z</time>
      </trkpt>
      <trkpt lat="43.2130587101" lon="-0.2096921671">
        <ele>289.01</ele>
        <time>2015-10-23T15:48:15Z</time>
      </trkpt>
      <trkpt lat="43.2130438741" lon="-0.2097045723">
        <ele>289.01</ele>
        <time>2015-10-23T15:48:16Z</time>
      </trkpt>
      <trkpt lat="43.2130276971" lon="-0.2097152174">
        <ele>288.05</ele>
        <time>2015-10-23T15:48:17Z</time>
      </trkpt>
      <trkpt lat="43.2130088378" lon="-0.2097393572">
        <ele>287.09</ele>
        <time>2015-10-23T15:48:18Z</time>
      </trkpt>
      <trkpt lat="43.2129976898" lon="-0.2097766567">
        <ele>286.13</ele>
        <time>2015-10-23T15:48:19Z</time>
      </trkpt>
      <trkpt lat="43.2129970193" lon="-0.2098178118">
        <ele>286.13</ele>
        <time>2015-10-23T15:48:20Z</time>
      </trkpt>
      <trkpt lat="43.2129954267" lon="-0.2098588832">
        <ele>286.13</ele>
        <time>2015-10-23T15:48:21Z</time>
      </trkpt>
      <trkpt lat="43.212996684" lon="-0.2098867111">
        <ele>285.65</ele>
        <time>2015-10-23T15:48:22Z</time>
      </trkpt>
      <trkpt lat="43.2129995339" lon="-0.2099137008">
        <ele>285.65</ele>
        <time>2015-10-23T15:48:23Z</time>
      </trkpt>
      <trkpt lat="43.2130021323" lon="-0.2099399362">
        <ele>285.65</ele>
        <time>2015-10-23T15:48:24Z</time>
      </trkpt>
      <trkpt lat="43.2129930798" lon="-0.2099655848">
        <ele>286.13</ele>
        <time>2015-10-23T15:48:27Z</time>
      </trkpt>
      <trkpt lat="43.2129980251" lon="-0.2099503297">
        <ele>286.13</ele>
        <time>2015-10-23T15:48:28Z</time>
      </trkpt>
      <trkpt lat="43.2130019646" lon="-0.2099308837">
        <ele>285.65</ele>
        <time>2015-10-23T15:48:29Z</time>
      </trkpt>
      <trkpt lat="43.2130086701" lon="-0.2099126112">
        <ele>285.17</ele>
        <time>2015-10-23T15:48:30Z</time>
      </trkpt>
      <trkpt lat="43.2130196504" lon="-0.209904816">
        <ele>285.17</ele>
        <time>2015-10-23T15:48:31Z</time>
      </trkpt>
      <trkpt lat="43.2130311336" lon="-0.2099168859">
        <ele>284.69</ele>
        <time>2015-10-23T15:48:33Z</time>
      </trkpt>
      <trkpt lat="43.2130398508" lon="-0.209929375">
        <ele>284.21</ele>
        <time>2015-10-23T15:48:34Z</time>
      </trkpt>
      <trkpt lat="43.2130575366" lon="-0.2099407744">
        <ele>284.21</ele>
        <time>2015-10-23T15:48:38Z</time>
      </trkpt>
      <trkpt lat="43.2130600512" lon="-0.2099395171">
        <ele>283.73</ele>
        <time>2015-10-23T15:48:42Z</time>
      </trkpt>
      <trkpt lat="43.2130680978" lon="-0.2099560294">
        <ele>283.73</ele>
        <time>2015-10-23T15:48:44Z</time>
      </trkpt>
      <trkpt lat="43.2130790781" lon="-0.2099726256">
        <ele>283.73</ele>
        <time>2015-10-23T15:48:51Z</time>
      </trkpt>
      <trkpt lat="43.2130732946" lon="-0.2099649142">
        <ele>282.28</ele>
        <time>2015-10-23T15:48:52Z</time>
      </trkpt>
      <trkpt lat="43.2130711991" lon="-0.2099556103">
        <ele>283.73</ele>
        <time>2015-10-23T15:48:53Z</time>
      </trkpt>
      <trkpt lat="43.2130797487" lon="-0.2099385951">
        <ele>283.25</ele>
        <time>2015-10-23T15:48:54Z</time>
      </trkpt>
      <trkpt lat="43.2130758092" lon="-0.2099592984">
        <ele>283.73</ele>
        <time>2015-10-23T15:48:58Z</time>
      </trkpt>
      <trkpt lat="43.2130724564" lon="-0.2099781577">
        <ele>283.25</ele>
        <time>2015-10-23T15:48:59Z</time>
      </trkpt>
      <trkpt lat="43.2130723726" lon="-0.2099944185">
        <ele>283.25</ele>
        <time>2015-10-23T15:49:00Z</time>
      </trkpt>
      <trkpt lat="43.213074049" lon="-0.2100131102">
        <ele>283.25</ele>
        <time>2015-10-23T15:49:01Z</time>
      </trkpt>
      <trkpt lat="43.2130685169" lon="-0.2100361604">
        <ele>283.25</ele>
        <time>2015-10-23T15:49:02Z</time>
      </trkpt>
      <trkpt lat="43.213062901" lon="-0.2100604679">
        <ele>282.77</ele>
        <time>2015-10-23T15:49:03Z</time>
      </trkpt>
      <trkpt lat="43.2130561117" lon="-0.2100855298">
        <ele>282.77</ele>
        <time>2015-10-23T15:49:04Z</time>
      </trkpt>
      <trkpt lat="43.2130468916" lon="-0.2101043891">
        <ele>282.77</ele>
        <time>2015-10-23T15:49:05Z</time>
      </trkpt>
      <trkpt lat="43.2130373362" lon="-0.2101240028">
        <ele>282.28</ele>
        <time>2015-10-23T15:49:06Z</time>
      </trkpt>
      <trkpt lat="43.2130174711" lon="-0.2101482265">
        <ele>282.28</ele>
        <time>2015-10-23T15:49:07Z</time>
      </trkpt>
      <trkpt lat="43.2129910681" lon="-0.2101684269">
        <ele>282.28</ele>
        <time>2015-10-23T15:49:08Z</time>
      </trkpt>
      <trkpt lat="43.2129668444" lon="-0.2101787366">
        <ele>282.28</ele>
        <time>2015-10-23T15:49:09Z</time>
      </trkpt>
      <trkpt lat="43.2129424531" lon="-0.2101885434">
        <ele>282.28</ele>
        <time>2015-10-23T15:49:10Z</time>
      </trkpt>
      <trkpt lat="43.212916553" lon="-0.2101927344">
        <ele>282.28</ele>
        <time>2015-10-23T15:49:11Z</time>
      </trkpt>
      <trkpt lat="43.2128909882" lon="-0.2101946622">
        <ele>282.28</ele>
        <time>2015-10-23T15:49:12Z</time>
      </trkpt>
      <trkpt lat="43.2127636671" lon="-0.2102227416">
        <ele>281.32</ele>
        <time>2015-10-23T15:49:18Z</time>
      </trkpt>
      <trkpt lat="43.2127476577" lon="-0.2102470491">
        <ele>281.8</ele>
        <time>2015-10-23T15:49:19Z</time>
      </trkpt>
      <trkpt lat="43.2127397787" lon="-0.2102726139">
        <ele>281.8</ele>
        <time>2015-10-23T15:49:20Z</time>
      </trkpt>
      <trkpt lat="43.2127383538" lon="-0.2102954127">
        <ele>281.32</ele>
        <time>2015-10-23T15:49:21Z</time>
      </trkpt>
      <trkpt lat="43.2127420418" lon="-0.2103213128">
        <ele>281.8</ele>
        <time>2015-10-23T15:49:22Z</time>
      </trkpt>
      <trkpt lat="43.2127464004" lon="-0.210352242">
        <ele>281.32</ele>
        <time>2015-10-23T15:49:23Z</time>
      </trkpt>
      <trkpt lat="43.2127499208" lon="-0.210387446">
        <ele>281.32</ele>
        <time>2015-10-23T15:49:24Z</time>
      </trkpt>
      <trkpt lat="43.2125837076" lon="-0.2109706588">
        <ele>279.88</ele>
        <time>2015-10-23T15:49:36Z</time>
      </trkpt>
      <trkpt lat="43.2125221845" lon="-0.2111526299">
        <ele>279.4</ele>
        <time>2015-10-23T15:49:39Z</time>
      </trkpt>
      <trkpt lat="43.2122295722" lon="-0.212172037">
        <ele>277.48</ele>
        <time>2015-10-23T15:49:54Z</time>
      </trkpt>
      <trkpt lat="43.2121450827" lon="-0.2125210594">
        <ele>277</ele>
        <time>2015-10-23T15:49:59Z</time>
      </trkpt>
      <trkpt lat="43.2121629361" lon="-0.2125836723">
        <ele>277</ele>
        <time>2015-10-23T15:50:00Z</time>
      </trkpt>
      <trkpt lat="43.2121970505" lon="-0.212630108">
        <ele>277.48</ele>
        <time>2015-10-23T15:50:01Z</time>
      </trkpt>
      <trkpt lat="43.2125566341" lon="-0.2128456067">
        <ele>275.56</ele>
        <time>2015-10-23T15:50:12Z</time>
      </trkpt>
      <trkpt lat="43.213055525" lon="-0.2131086309">
        <ele>275.07</ele>
        <time>2015-10-23T15:50:28Z</time>
      </trkpt>
      <trkpt lat="43.2135544159" lon="-0.2134883311">
        <ele>274.11</ele>
        <time>2015-10-23T15:50:43Z</time>
      </trkpt>
      <trkpt lat="43.2140385546" lon="-0.2139328234">
        <ele>273.63</ele>
        <time>2015-10-23T15:50:57Z</time>
      </trkpt>
      <trkpt lat="43.2145046722" lon="-0.2144387551">
        <ele>273.63</ele>
        <time>2015-10-23T15:51:11Z</time>
      </trkpt>
      <trkpt lat="43.215082353" lon="-0.2150990814">
        <ele>273.15</ele>
        <time>2015-10-23T15:51:29Z</time>
      </trkpt>
      <trkpt lat="43.2154949103" lon="-0.2156854793">
        <ele>272.19</ele>
        <time>2015-10-23T15:51:43Z</time>
      </trkpt>
      <trkpt lat="43.2157591078" lon="-0.2161291335">
        <ele>270.75</ele>
        <time>2015-10-23T15:51:54Z</time>
      </trkpt>
      <trkpt lat="43.2157570962" lon="-0.2161602303">
        <ele>271.71</ele>
        <time>2015-10-23T15:51:55Z</time>
      </trkpt>
      <trkpt lat="43.2157001831" lon="-0.2163082547">
        <ele>271.23</ele>
        <time>2015-10-23T15:51:59Z</time>
      </trkpt>
      <trkpt lat="43.2154216524" lon="-0.2169350535">
        <ele>270.27</ele>
        <time>2015-10-23T15:52:16Z</time>
      </trkpt>
      <trkpt lat="43.2153553516" lon="-0.2174688131">
        <ele>269.79</ele>
        <time>2015-10-23T15:52:31Z</time>
      </trkpt>
      <trkpt lat="43.215640923" lon="-0.2178624272">
        <ele>270.27</ele>
        <time>2015-10-23T15:52:45Z</time>
      </trkpt>
      <trkpt lat="43.2159346249" lon="-0.218279846">
        <ele>269.79</ele>
        <time>2015-10-23T15:53:00Z</time>
      </trkpt>
      <trkpt lat="43.2161238883" lon="-0.2187179681">
        <ele>269.31</ele>
        <time>2015-10-23T15:53:13Z</time>
      </trkpt>
      <trkpt lat="43.2165593281" lon="-0.2194247302">
        <ele>268.35</ele>
        <time>2015-10-23T15:53:31Z</time>
      </trkpt>
      <trkpt lat="43.2170791738" lon="-0.2200022433">
        <ele>268.35</ele>
        <time>2015-10-23T15:53:47Z</time>
      </trkpt>
      <trkpt lat="43.2173447125" lon="-0.2202276327">
        <ele>267.86</ele>
        <time>2015-10-23T15:53:55Z</time>
      </trkpt>
      <trkpt lat="43.2173534296" lon="-0.2202665247">
        <ele>268.35</ele>
        <time>2015-10-23T15:53:56Z</time>
      </trkpt>
      <trkpt lat="43.2173492387" lon="-0.2203055844">
        <ele>267.86</ele>
        <time>2015-10-23T15:53:57Z</time>
      </trkpt>
      <trkpt lat="43.2173314691" lon="-0.2203482483">
        <ele>267.86</ele>
        <time>2015-10-23T15:53:58Z</time>
      </trkpt>
      <trkpt lat="43.2173100114" lon="-0.2203914989">
        <ele>267.86</ele>
        <time>2015-10-23T15:53:59Z</time>
      </trkpt>
      <trkpt lat="43.2170355879" lon="-0.2210237458">
        <ele>267.38</ele>
        <time>2015-10-23T15:54:12Z</time>
      </trkpt>
      <trkpt lat="43.2170495857" lon="-0.2210728638">
        <ele>267.86</ele>
        <time>2015-10-23T15:54:13Z</time>
      </trkpt>
      <trkpt lat="43.2170736417" lon="-0.2211161144">
        <ele>267.86</ele>
        <time>2015-10-23T15:54:14Z</time>
      </trkpt>
      <trkpt lat="43.2171015535" lon="-0.2211541682">
        <ele>267.86</ele>
        <time>2015-10-23T15:54:15Z</time>
      </trkpt>
      <trkpt lat="43.2171308063" lon="-0.2211897913">
        <ele>267.86</ele>
        <time>2015-10-23T15:54:16Z</time>
      </trkpt>
      <trkpt lat="43.2175815012" lon="-0.2217279095">
        <ele>267.86</ele>
        <time>2015-10-23T15:54:32Z</time>
      </trkpt>
      <trkpt lat="43.2179058809" lon="-0.2221085317">
        <ele>266.9</ele>
        <time>2015-10-23T15:54:44Z</time>
      </trkpt>
      <trkpt lat="43.2182522211" lon="-0.2225304767">
        <ele>266.42</ele>
        <time>2015-10-23T15:54:57Z</time>
      </trkpt>
      <trkpt lat="43.2185905147" lon="-0.222933311">
        <ele>265.46</ele>
        <time>2015-10-23T15:55:10Z</time>
      </trkpt>
      <trkpt lat="43.2190787606" lon="-0.2235152666">
        <ele>264.98</ele>
        <time>2015-10-23T15:55:27Z</time>
      </trkpt>
      <trkpt lat="43.2196276076" lon="-0.2241626848">
        <ele>264.02</ele>
        <time>2015-10-23T15:55:46Z</time>
      </trkpt>
      <trkpt lat="43.2198844291" lon="-0.2244003955">
        <ele>264.5</ele>
        <time>2015-10-23T15:55:57Z</time>
      </trkpt>
      <trkpt lat="43.2199107483" lon="-0.2243812848">
        <ele>264.5</ele>
        <time>2015-10-23T15:55:58Z</time>
      </trkpt>
      <trkpt lat="43.219929859" lon="-0.2243448235">
        <ele>264.5</ele>
        <time>2015-10-23T15:55:59Z</time>
      </trkpt>
      <trkpt lat="43.2199435215" lon="-0.22430107">
        <ele>264.5</ele>
        <time>2015-10-23T15:56:00Z</time>
      </trkpt>
      <trkpt lat="43.2199568488" lon="-0.2242535446">
        <ele>264.5</ele>
        <time>2015-10-23T15:56:01Z</time>
      </trkpt>
      <trkpt lat="43.2202901132" lon="-0.223419629">
        <ele>264.5</ele>
        <time>2015-10-23T15:56:19Z</time>
      </trkpt>
      <trkpt lat="43.2203215454" lon="-0.2233866882">
        <ele>264.02</ele>
        <time>2015-10-23T15:56:20Z</time>
      </trkpt>
      <trkpt lat="43.220355995" lon="-0.223362213">
        <ele>264.5</ele>
        <time>2015-10-23T15:56:21Z</time>
      </trkpt>
      <trkpt lat="43.2203936297" lon="-0.2233446948">
        <ele>264.02</ele>
        <time>2015-10-23T15:56:22Z</time>
      </trkpt>
      <trkpt lat="43.2204358745" lon="-0.2233363967">
        <ele>264.02</ele>
        <time>2015-10-23T15:56:23Z</time>
      </trkpt>
      <trkpt lat="43.2204771973" lon="-0.2233363967">
        <ele>264.02</ele>
        <time>2015-10-23T15:56:24Z</time>
      </trkpt>
      <trkpt lat="43.2205173466" lon="-0.2233462036">
        <ele>264.02</ele>
        <time>2015-10-23T15:56:25Z</time>
      </trkpt>
      <trkpt lat="43.220557915" lon="-0.2233618777">
        <ele>264.02</ele>
        <time>2015-10-23T15:56:26Z</time>
      </trkpt>
      <trkpt lat="43.2207921054" lon="-0.2234967425">
        <ele>264.02</ele>
        <time>2015-10-23T15:56:32Z</time>
      </trkpt>
      <trkpt lat="43.2208293211" lon="-0.2235154342">
        <ele>264.02</ele>
        <time>2015-10-23T15:56:33Z</time>
      </trkpt>
      <trkpt lat="43.2213438023" lon="-0.2236849163">
        <ele>264.02</ele>
        <time>2015-10-23T15:56:47Z</time>
      </trkpt>
      <trkpt lat="43.2216478977" lon="-0.2236223873">
        <ele>263.54</ele>
        <time>2015-10-23T15:56:55Z</time>
      </trkpt>
      <trkpt lat="43.2216827665" lon="-0.2235987503">
        <ele>263.06</ele>
        <time>2015-10-23T15:56:56Z</time>
      </trkpt>
      <trkpt lat="43.2220372371" lon="-0.2230825927">
        <ele>264.02</ele>
        <time>2015-10-23T15:57:09Z</time>
      </trkpt>
      <trkpt lat="43.2224208768" lon="-0.22213527">
        <ele>263.54</ele>
        <time>2015-10-23T15:57:28Z</time>
      </trkpt>
      <trkpt lat="43.222653307" lon="-0.2214711718">
        <ele>264.02</ele>
        <time>2015-10-23T15:57:42Z</time>
      </trkpt>
      <trkpt lat="43.2227317616" lon="-0.2207702771">
        <ele>263.54</ele>
        <time>2015-10-23T15:57:56Z</time>
      </trkpt>
      <trkpt lat="43.2228336018" lon="-0.2199097909">
        <ele>264.5</ele>
        <time>2015-10-23T15:58:14Z</time>
      </trkpt>
      <trkpt lat="43.2228225376" lon="-0.2198678814">
        <ele>264.02</ele>
        <time>2015-10-23T15:58:15Z</time>
      </trkpt>
      <trkpt lat="43.2228057738" lon="-0.2198301628">
        <ele>264.02</ele>
        <time>2015-10-23T15:58:16Z</time>
      </trkpt>
      <trkpt lat="43.2227889262" lon="-0.2197883371">
        <ele>264.02</ele>
        <time>2015-10-23T15:58:17Z</time>
      </trkpt>
      <trkpt lat="43.222774677" lon="-0.2197451703">
        <ele>264.02</ele>
        <time>2015-10-23T15:58:18Z</time>
      </trkpt>
      <trkpt lat="43.2227647863" lon="-0.2197021712">
        <ele>264.02</ele>
        <time>2015-10-23T15:58:19Z</time>
      </trkpt>
      <trkpt lat="43.2227592543" lon="-0.219660094">
        <ele>264.02</ele>
        <time>2015-10-23T15:58:20Z</time>
      </trkpt>
      <trkpt lat="43.2227586675" lon="-0.2196181007">
        <ele>264.02</ele>
        <time>2015-10-23T15:58:21Z</time>
      </trkpt>
      <trkpt lat="43.2227596734" lon="-0.2195715811">
        <ele>264.02</ele>
        <time>2015-10-23T15:58:22Z</time>
      </trkpt>
      <trkpt lat="43.2228541374" lon="-0.2188336384">
        <ele>264.5</ele>
        <time>2015-10-23T15:58:37Z</time>
      </trkpt>
      <trkpt lat="43.222937705" lon="-0.2183109429">
        <ele>264.98</ele>
        <time>2015-10-23T15:58:50Z</time>
      </trkpt>
      <trkpt lat="43.2229497749" lon="-0.2179247048">
        <ele>265.94</ele>
        <time>2015-10-23T15:59:01Z</time>
      </trkpt>
      <trkpt lat="43.2229473442" lon="-0.2178516146">
        <ele>265.46</ele>
        <time>2015-10-23T15:59:10Z</time>
      </trkpt>
      <trkpt lat="43.2229529601" lon="-0.2178070229">
        <ele>265.94</ele>
        <time>2015-10-23T15:59:25Z</time>
      </trkpt>
      <trkpt lat="43.2229721546" lon="-0.2177620959">
        <ele>265.94</ele>
        <time>2015-10-23T15:59:57Z</time>
      </trkpt>
      <trkpt lat="43.2229625992" lon="-0.2177454997">
        <ele>264.98</ele>
        <time>2015-10-23T16:00:14Z</time>
      </trkpt>
      <trkpt lat="43.2229588274" lon="-0.2177345194">
        <ele>264.5</ele>
        <time>2015-10-23T16:00:43Z</time>
      </trkpt>
      <trkpt lat="43.2229463384" lon="-0.2177237906">
        <ele>264.5</ele>
        <time>2015-10-23T16:01:08Z</time>
      </trkpt>
      <trkpt lat="43.2229360286" lon="-0.2177169174">
        <ele>264.5</ele>
        <time>2015-10-23T16:01:40Z</time>
      </trkpt>
      <trkpt lat="43.2229352742" lon="-0.217713397">
        <ele>264.02</ele>
        <time>2015-10-23T16:02:01Z</time>
      </trkpt>
      <trkpt lat="43.2229585759" lon="-0.2176980581">
        <ele>264.02</ele>
        <time>2015-10-23T16:02:24Z</time>
      </trkpt>
      <trkpt lat="43.2229555584" lon="-0.2177037578">
        <ele>263.54</ele>
        <time>2015-10-23T16:02:35Z</time>
      </trkpt>
      <trkpt lat="43.2229605038" lon="-0.2176908497">
        <ele>264.02</ele>
        <time>2015-10-23T16:02:39Z</time>
      </trkpt>
      <trkpt lat="43.2229638565" lon="-0.2176024206">
        <ele>264.02</ele>
        <time>2015-10-23T16:02:46Z</time>
      </trkpt>
      <trkpt lat="43.2229874935" lon="-0.2174890134">
        <ele>264.5</ele>
        <time>2015-10-23T16:02:52Z</time>
      </trkpt>
      <trkpt lat="43.223083131" lon="-0.2172373887">
        <ele>264.98</ele>
        <time>2015-10-23T16:03:04Z</time>
      </trkpt>
      <trkpt lat="43.2230889983" lon="-0.2172317728">
        <ele>264.98</ele>
        <time>2015-10-23T16:03:05Z</time>
      </trkpt>
      <trkpt lat="43.2230793592" lon="-0.2171894442">
        <ele>264.98</ele>
        <time>2015-10-23T16:03:06Z</time>
      </trkpt>
      <trkpt lat="43.2230434846" lon="-0.2170241531">
        <ele>265.46</ele>
        <time>2015-10-23T16:03:12Z</time>
      </trkpt>
      <trkpt lat="43.2230232004" lon="-0.2169607021">
        <ele>265.94</ele>
        <time>2015-10-23T16:03:15Z</time>
      </trkpt>
      <trkpt lat="43.2230096217" lon="-0.216836147">
        <ele>266.9</ele>
        <time>2015-10-23T16:03:19Z</time>
      </trkpt>
      <trkpt lat="43.2230439037" lon="-0.2166522481">
        <ele>266.9</ele>
        <time>2015-10-23T16:03:24Z</time>
      </trkpt>
      <trkpt lat="43.2231319137" lon="-0.216433648">
        <ele>267.86</ele>
        <time>2015-10-23T16:03:35Z</time>
      </trkpt>
      <trkpt lat="43.2231936045" lon="-0.2164455503">
        <ele>269.79</ele>
        <time>2015-10-23T16:03:45Z</time>
      </trkpt>
      <trkpt lat="43.2232428063" lon="-0.2164335642">
        <ele>270.75</ele>
        <time>2015-10-23T16:03:56Z</time>
      </trkpt>
      <trkpt lat="43.2232894097" lon="-0.2164659183">
        <ele>270.75</ele>
        <time>2015-10-23T16:04:05Z</time>
      </trkpt>
      <trkpt lat="43.2233626675" lon="-0.2165042236">
        <ele>270.75</ele>
        <time>2015-10-23T16:04:13Z</time>
      </trkpt>
      <trkpt lat="43.2234080136" lon="-0.2165512461">
        <ele>269.79</ele>
        <time>2015-10-23T16:04:18Z</time>
      </trkpt>
      <trkpt lat="43.2235701196" lon="-0.2167720255">
        <ele>269.79</ele>
        <time>2015-10-23T16:04:27Z</time>
      </trkpt>
      <trkpt lat="43.2237595506" lon="-0.2169618756">
        <ele>269.31</ele>
        <time>2015-10-23T16:04:38Z</time>
      </trkpt>
      <trkpt lat="43.2238917332" lon="-0.2170397434">
        <ele>270.27</ele>
        <time>2015-10-23T16:04:43Z</time>
      </trkpt>
      <trkpt lat="43.2240345608" lon="-0.2171280049">
        <ele>270.27</ele>
        <time>2015-10-23T16:04:50Z</time>
      </trkpt>
      <trkpt lat="43.2241146918" lon="-0.2172082197">
        <ele>270.75</ele>
        <time>2015-10-23T16:04:55Z</time>
      </trkpt>
      <trkpt lat="43.2242179569" lon="-0.2172818966">
        <ele>270.75</ele>
        <time>2015-10-23T16:05:00Z</time>
      </trkpt>
      <trkpt lat="43.2242989261" lon="-0.2173792105">
        <ele>270.27</ele>
        <time>2015-10-23T16:05:04Z</time>
      </trkpt>
      <trkpt lat="43.2245711703" lon="-0.2175768558">
        <ele>271.23</ele>
        <time>2015-10-23T16:05:15Z</time>
      </trkpt>
      <trkpt lat="43.2247777004" lon="-0.2177268919">
        <ele>272.19</ele>
        <time>2015-10-23T16:05:25Z</time>
      </trkpt>
      <trkpt lat="43.2249057759" lon="-0.2177813742">
        <ele>273.15</ele>
        <time>2015-10-23T16:05:31Z</time>
      </trkpt>
      <trkpt lat="43.2249786146" lon="-0.2178796101">
        <ele>274.11</ele>
        <time>2015-10-23T16:05:38Z</time>
      </trkpt>
      <trkpt lat="43.2250411436" lon="-0.218011206">
        <ele>275.56</ele>
        <time>2015-10-23T16:05:50Z</time>
      </trkpt>
      <trkpt lat="43.2250662055" lon="-0.2180829551">
        <ele>276.04</ele>
        <time>2015-10-23T16:05:56Z</time>
      </trkpt>
      <trkpt lat="43.2250980567" lon="-0.2183293831">
        <ele>277.96</ele>
        <time>2015-10-23T16:06:10Z</time>
      </trkpt>
      <trkpt lat="43.225166034" lon="-0.2186322212">
        <ele>278.92</ele>
        <time>2015-10-23T16:06:22Z</time>
      </trkpt>
      <trkpt lat="43.2252128888" lon="-0.2187732887">
        <ele>279.88</ele>
        <time>2015-10-23T16:06:28Z</time>
      </trkpt>
      <trkpt lat="43.2252180856" lon="-0.2188336384">
        <ele>280.36</ele>
        <time>2015-10-23T16:06:31Z</time>
      </trkpt>
      <trkpt lat="43.2252559718" lon="-0.2190097421">
        <ele>281.32</ele>
        <time>2015-10-23T16:06:36Z</time>
      </trkpt>
      <trkpt lat="43.2254104502" lon="-0.2191778831">
        <ele>283.73</ele>
        <time>2015-10-23T16:06:49Z</time>
      </trkpt>
      <trkpt lat="43.2254661899" lon="-0.2192044538">
        <ele>284.21</ele>
        <time>2015-10-23T16:06:59Z</time>
      </trkpt>
      <trkpt lat="43.225480523" lon="-0.2192228939">
        <ele>283.73</ele>
        <time>2015-10-23T16:07:23Z</time>
      </trkpt>
      <trkpt lat="43.2255153079" lon="-0.2192232292">
        <ele>283.25</ele>
        <time>2015-10-23T16:07:50Z</time>
      </trkpt>
      <trkpt lat="43.2255224325" lon="-0.2192373108">
        <ele>283.73</ele>
        <time>2015-10-23T16:08:08Z</time>
      </trkpt>
      <trkpt lat="43.2257248554" lon="-0.2194319386">
        <ele>280.84</ele>
        <time>2015-10-23T16:08:16Z</time>
      </trkpt>
      <trkpt lat="43.2257768232" lon="-0.2194426674">
        <ele>280.36</ele>
        <time>2015-10-23T16:08:17Z</time>
      </trkpt>
      <trkpt lat="43.2258837763" lon="-0.2194472775">
        <ele>280.84</ele>
        <time>2015-10-23T16:08:19Z</time>
      </trkpt>
      <trkpt lat="43.2259358279" lon="-0.2194406558">
        <ele>280.36</ele>
        <time>2015-10-23T16:08:20Z</time>
      </trkpt>
      <trkpt lat="43.2261768077" lon="-0.219436381">
        <ele>278.44</ele>
        <time>2015-10-23T16:08:24Z</time>
      </trkpt>
      <trkpt lat="43.2265030313" lon="-0.2194540668">
        <ele>275.07</ele>
        <time>2015-10-23T16:08:29Z</time>
      </trkpt>
      <trkpt lat="43.2265610341" lon="-0.2195041906">
        <ele>274.59</ele>
        <time>2015-10-23T16:08:30Z</time>
      </trkpt>
      <trkpt lat="43.2266200427" lon="-0.2195635345">
        <ele>274.59</ele>
        <time>2015-10-23T16:08:31Z</time>
      </trkpt>
      <trkpt lat="43.2266824879" lon="-0.2196231298">
        <ele>273.63</ele>
        <time>2015-10-23T16:08:32Z</time>
      </trkpt>
      <trkpt lat="43.2267439272" lon="-0.2196841501">
        <ele>273.15</ele>
        <time>2015-10-23T16:08:33Z</time>
      </trkpt>
      <trkpt lat="43.2269160915" lon="-0.2198695578">
        <ele>271.23</ele>
        <time>2015-10-23T16:08:36Z</time>
      </trkpt>
      <trkpt lat="43.226968227" lon="-0.2199350204">
        <ele>270.75</ele>
        <time>2015-10-23T16:08:37Z</time>
      </trkpt>
      <trkpt lat="43.2270794548" lon="-0.220060749">
        <ele>270.27</ele>
        <time>2015-10-23T16:08:39Z</time>
      </trkpt>
      <trkpt lat="43.2274896652" lon="-0.22046878">
        <ele>267.86</ele>
        <time>2015-10-23T16:08:47Z</time>
      </trkpt>
      <trkpt lat="43.2275811117" lon="-0.2205506712">
        <ele>270.27</ele>
        <time>2015-10-23T16:08:49Z</time>
      </trkpt>
      <trkpt lat="43.2276252005" lon="-0.2205907367">
        <ele>267.86</ele>
        <time>2015-10-23T16:08:50Z</time>
      </trkpt>
      <trkpt lat="43.2276671939" lon="-0.2206179779">
        <ele>267.38</ele>
        <time>2015-10-23T16:08:51Z</time>
      </trkpt>
      <trkpt lat="43.2277060021" lon="-0.2206410281">
        <ele>267.38</ele>
        <time>2015-10-23T16:08:52Z</time>
      </trkpt>
      <trkpt lat="43.2277400326" lon="-0.220663324">
        <ele>267.38</ele>
        <time>2015-10-23T16:08:53Z</time>
      </trkpt>
      <trkpt lat="43.2280124445" lon="-0.2209187206">
        <ele>267.38</ele>
        <time>2015-10-23T16:09:05Z</time>
      </trkpt>
      <trkpt lat="43.2282542624" lon="-0.2211446967">
        <ele>267.38</ele>
        <time>2015-10-23T16:09:16Z</time>
      </trkpt>
      <trkpt lat="43.2282741275" lon="-0.2211257536">
        <ele>267.86</ele>
        <time>2015-10-23T16:09:17Z</time>
      </trkpt>
      <trkpt lat="43.2282908075" lon="-0.2211020328">
        <ele>267.38</ele>
        <time>2015-10-23T16:09:18Z</time>
      </trkpt>
      <trkpt lat="43.2283083256" lon="-0.2210765518">
        <ele>267.86</ele>
        <time>2015-10-23T16:09:19Z</time>
      </trkpt>
      <trkpt lat="43.2283239998" lon="-0.2210501488">
        <ele>267.86</ele>
        <time>2015-10-23T16:09:20Z</time>
      </trkpt>
      <trkpt lat="43.2283400092" lon="-0.2210249193">
        <ele>267.86</ele>
        <time>2015-10-23T16:09:21Z</time>
      </trkpt>
      <trkpt lat="43.2283583656" lon="-0.2209991869">
        <ele>267.86</ele>
        <time>2015-10-23T16:09:22Z</time>
      </trkpt>
      <trkpt lat="43.2283735368" lon="-0.2209736221">
        <ele>267.86</ele>
        <time>2015-10-23T16:09:23Z</time>
      </trkpt>
      <trkpt lat="43.228387367" lon="-0.2209488116">
        <ele>267.86</ele>
        <time>2015-10-23T16:09:24Z</time>
      </trkpt>
      <trkpt lat="43.2284070645" lon="-0.2209224924">
        <ele>267.86</ele>
        <time>2015-10-23T16:09:25Z</time>
      </trkpt>
      <trkpt lat="43.2285555918" lon="-0.2207850292">
        <ele>268.35</ele>
        <time>2015-10-23T16:09:33Z</time>
      </trkpt>
      <trkpt lat="43.2285773009" lon="-0.2208018769">
        <ele>268.35</ele>
        <time>2015-10-23T16:09:34Z</time>
      </trkpt>
      <trkpt lat="43.228589287" lon="-0.2208288666">
        <ele>268.83</ele>
        <time>2015-10-23T16:09:35Z</time>
      </trkpt>
      <trkpt lat="43.2285932265" lon="-0.220856443">
        <ele>269.31</ele>
        <time>2015-10-23T16:09:36Z</time>
      </trkpt>
      <trkpt lat="43.2285919692" lon="-0.2208844386">
        <ele>269.31</ele>
        <time>2015-10-23T16:09:37Z</time>
      </trkpt>
      <trkpt lat="43.2285871077" lon="-0.2211560123">
        <ele>270.27</ele>
        <time>2015-10-23T16:09:47Z</time>
      </trkpt>
      <trkpt lat="43.228679141" lon="-0.2215896081">
        <ele>271.23</ele>
        <time>2015-10-23T16:09:57Z</time>
      </trkpt>
      <trkpt lat="43.2287492976" lon="-0.222075507">
        <ele>270.27</ele>
        <time>2015-10-23T16:10:07Z</time>
      </trkpt>
      <trkpt lat="43.2287600264" lon="-0.2221414726">
        <ele>269.79</ele>
        <time>2015-10-23T16:10:08Z</time>
      </trkpt>
      <trkpt lat="43.2287836634" lon="-0.2222630102">
        <ele>269.31</ele>
        <time>2015-10-23T16:10:10Z</time>
      </trkpt>
      <trkpt lat="43.228797242" lon="-0.2223245334">
        <ele>269.31</ele>
        <time>2015-10-23T16:10:11Z</time>
      </trkpt>
      <trkpt lat="43.2288115751" lon="-0.2223833743">
        <ele>269.79</ele>
        <time>2015-10-23T16:10:12Z</time>
      </trkpt>
      <trkpt lat="43.2288615312" lon="-0.2226140443">
        <ele>269.31</ele>
        <time>2015-10-23T16:10:16Z</time>
      </trkpt>
      <trkpt lat="43.2288811449" lon="-0.2226867154">
        <ele>268.83</ele>
        <time>2015-10-23T16:10:17Z</time>
      </trkpt>
      <trkpt lat="43.2289155945" lon="-0.2227735519">
        <ele>269.31</ele>
        <time>2015-10-23T16:10:18Z</time>
      </trkpt>
      <trkpt lat="43.2289775368" lon="-0.2229376696">
        <ele>270.27</ele>
        <time>2015-10-23T16:10:20Z</time>
      </trkpt>
      <trkpt lat="43.2290281635" lon="-0.2231013682">
        <ele>268.35</ele>
        <time>2015-10-23T16:10:22Z</time>
      </trkpt>
      <trkpt lat="43.2291911077" lon="-0.2234773804">
        <ele>266.42</ele>
        <time>2015-10-23T16:10:26Z</time>
      </trkpt>
      <trkpt lat="43.2292318437" lon="-0.2235650551">
        <ele>266.42</ele>
        <time>2015-10-23T16:10:27Z</time>
      </trkpt>
      <trkpt lat="43.2292756811" lon="-0.2236352116">
        <ele>267.38</ele>
        <time>2015-10-23T16:10:28Z</time>
      </trkpt>
      <trkpt lat="43.2293531299" lon="-0.2237481996">
        <ele>266.42</ele>
        <time>2015-10-23T16:10:30Z</time>
      </trkpt>
      <trkpt lat="43.229380371" lon="-0.2237901092">
        <ele>265.94</ele>
        <time>2015-10-23T16:10:31Z</time>
      </trkpt>
      <trkpt lat="43.2295383699" lon="-0.2240983117">
        <ele>266.42</ele>
        <time>2015-10-23T16:10:41Z</time>
      </trkpt>
      <trkpt lat="43.2295382023" lon="-0.2241210267">
        <ele>266.42</ele>
        <time>2015-10-23T16:10:42Z</time>
      </trkpt>
      <trkpt lat="43.2295401301" lon="-0.2241531294">
        <ele>265.94</ele>
        <time>2015-10-23T16:10:43Z</time>
      </trkpt>
      <trkpt lat="43.2295490988" lon="-0.2241910994">
        <ele>266.42</ele>
        <time>2015-10-23T16:10:44Z</time>
      </trkpt>
      <trkpt lat="43.2295620069" lon="-0.2242295723">
        <ele>266.42</ele>
        <time>2015-10-23T16:10:45Z</time>
      </trkpt>
      <trkpt lat="43.2295779325" lon="-0.22426771">
        <ele>265.94</ele>
        <time>2015-10-23T16:10:46Z</time>
      </trkpt>
      <trkpt lat="43.2297632564" lon="-0.2245827857">
        <ele>265.46</ele>
        <time>2015-10-23T16:10:56Z</time>
      </trkpt>
      <trkpt lat="43.2297707163" lon="-0.2246257011">
        <ele>264.02</ele>
        <time>2015-10-23T16:10:58Z</time>
      </trkpt>
      <trkpt lat="43.2298305631" lon="-0.2247645054">
        <ele>263.06</ele>
        <time>2015-10-23T16:11:07Z</time>
      </trkpt>
      <trkpt lat="43.2299335767" lon="-0.2248337399">
        <ele>264.5</ele>
        <time>2015-10-23T16:11:18Z</time>
      </trkpt>
      <trkpt lat="43.2299668528" lon="-0.2248443011">
        <ele>264.02</ele>
        <time>2015-10-23T16:11:20Z</time>
      </trkpt>
      <trkpt lat="43.2299888134" lon="-0.2248649206">
        <ele>264.02</ele>
        <time>2015-10-23T16:11:24Z</time>
      </trkpt>
      <trkpt lat="43.2300940901" lon="-0.2249448001">
        <ele>265.94</ele>
        <time>2015-10-23T16:11:31Z</time>
      </trkpt>
      <trkpt lat="43.2302128617" lon="-0.2250661701">
        <ele>264.98</ele>
        <time>2015-10-23T16:11:36Z</time>
      </trkpt>
      <trkpt lat="43.2302430365" lon="-0.2251015417">
        <ele>264.98</ele>
        <time>2015-10-23T16:11:38Z</time>
      </trkpt>
      <trkpt lat="43.2303190604" lon="-0.2251406014">
        <ele>265.94</ele>
        <time>2015-10-23T16:11:42Z</time>
      </trkpt>
      <trkpt lat="43.2306324597" lon="-0.2253796533">
        <ele>265.46</ele>
        <time>2015-10-23T16:11:54Z</time>
      </trkpt>
      <trkpt lat="43.2309652213" lon="-0.2256336249">
        <ele>266.42</ele>
        <time>2015-10-23T16:12:05Z</time>
      </trkpt>
      <trkpt lat="43.2313248888" lon="-0.2258323599">
        <ele>265.94</ele>
        <time>2015-10-23T16:12:14Z</time>
      </trkpt>
      <trkpt lat="43.2316981349" lon="-0.2261020895">
        <ele>266.42</ele>
        <time>2015-10-23T16:12:25Z</time>
      </trkpt>
      <trkpt lat="43.2320302259" lon="-0.2263674606">
        <ele>265.46</ele>
        <time>2015-10-23T16:12:33Z</time>
      </trkpt>
      <trkpt lat="43.2320763264" lon="-0.2263988089">
        <ele>266.42</ele>
        <time>2015-10-23T16:12:34Z</time>
      </trkpt>
      <trkpt lat="43.2325691823" lon="-0.2267856337">
        <ele>266.42</ele>
        <time>2015-10-23T16:12:47Z</time>
      </trkpt>
      <trkpt lat="43.2327048853" lon="-0.2268278785">
        <ele>266.9</ele>
        <time>2015-10-23T16:12:53Z</time>
      </trkpt>
      <trkpt lat="43.2329664007" lon="-0.2268149704">
        <ele>267.86</ele>
        <time>2015-10-23T16:13:03Z</time>
      </trkpt>
      <trkpt lat="43.2330067176" lon="-0.2268022299">
        <ele>268.83</ele>
        <time>2015-10-23T16:13:05Z</time>
      </trkpt>
      <trkpt lat="43.2330280077" lon="-0.2268058341">
        <ele>268.35</ele>
        <time>2015-10-23T16:13:06Z</time>
      </trkpt>
      <trkpt lat="43.2330482919" lon="-0.2268127073">
        <ele>268.83</ele>
        <time>2015-10-23T16:13:07Z</time>
      </trkpt>
      <trkpt lat="43.2330694981" lon="-0.2268306445">
        <ele>268.83</ele>
        <time>2015-10-23T16:13:08Z</time>
      </trkpt>
      <trkpt lat="43.2330853399" lon="-0.2268629149">
        <ele>268.83</ele>
        <time>2015-10-23T16:13:09Z</time>
      </trkpt>
      <trkpt lat="43.233101014" lon="-0.2268957719">
        <ele>269.31</ele>
        <time>2015-10-23T16:13:10Z</time>
      </trkpt>
      <trkpt lat="43.2331174426" lon="-0.2269297186">
        <ele>268.35</ele>
        <time>2015-10-23T16:13:11Z</time>
      </trkpt>
      <trkpt lat="43.2331260759" lon="-0.226961486">
        <ele>268.35</ele>
        <time>2015-10-23T16:13:12Z</time>
      </trkpt>
      <trkpt lat="43.2331330329" lon="-0.2269908227">
        <ele>267.86</ele>
        <time>2015-10-23T16:13:13Z</time>
      </trkpt>
      <trkpt lat="43.2332225516" lon="-0.2272591274">
        <ele>267.86</ele>
        <time>2015-10-23T16:13:21Z</time>
      </trkpt>
      <trkpt lat="43.2332206238" lon="-0.2272815071">
        <ele>267.38</ele>
        <time>2015-10-23T16:13:22Z</time>
      </trkpt>
      <trkpt lat="43.2332248986" lon="-0.2273084968">
        <ele>267.86</ele>
        <time>2015-10-23T16:13:23Z</time>
      </trkpt>
      <trkpt lat="43.2332230546" lon="-0.2273327205">
        <ele>267.38</ele>
        <time>2015-10-23T16:13:24Z</time>
      </trkpt>
      <trkpt lat="43.2332232222" lon="-0.2273611352">
        <ele>267.86</ele>
        <time>2015-10-23T16:13:25Z</time>
      </trkpt>
      <trkpt lat="43.2332298439" lon="-0.2273912262">
        <ele>267.38</ele>
        <time>2015-10-23T16:13:26Z</time>
      </trkpt>
      <trkpt lat="43.2332319394" lon="-0.2274215687">
        <ele>267.86</ele>
        <time>2015-10-23T16:13:27Z</time>
      </trkpt>
      <trkpt lat="43.2332322747" lon="-0.2274593711">
        <ele>267.86</ele>
        <time>2015-10-23T16:13:28Z</time>
      </trkpt>
      <trkpt lat="43.2332316879" lon="-0.2274999395">
        <ele>267.38</ele>
        <time>2015-10-23T16:13:29Z</time>
      </trkpt>
      <trkpt lat="43.2332305145" lon="-0.2275356464">
        <ele>266.9</ele>
        <time>2015-10-23T16:13:30Z</time>
      </trkpt>
      <trkpt lat="43.2333927043" lon="-0.2279642131">
        <ele>267.38</ele>
        <time>2015-10-23T16:13:39Z</time>
      </trkpt>
      <trkpt lat="43.2337257173" lon="-0.2286231983">
        <ele>268.83</ele>
        <time>2015-10-23T16:13:53Z</time>
      </trkpt>
      <trkpt lat="43.2338503562" lon="-0.229025865">
        <ele>268.35</ele>
        <time>2015-10-23T16:14:03Z</time>
      </trkpt>
      <trkpt lat="43.2339508552" lon="-0.2295008674">
        <ele>267.86</ele>
        <time>2015-10-23T16:14:14Z</time>
      </trkpt>
      <trkpt lat="43.2339554653" lon="-0.2297306154">
        <ele>266.9</ele>
        <time>2015-10-23T16:14:18Z</time>
      </trkpt>
      <trkpt lat="43.2339568064" lon="-0.2297916356">
        <ele>266.9</ele>
        <time>2015-10-23T16:14:19Z</time>
      </trkpt>
      <trkpt lat="43.2339726482" lon="-0.230193967">
        <ele>264.02</ele>
        <time>2015-10-23T16:14:25Z</time>
      </trkpt>
      <trkpt lat="43.2340560481" lon="-0.2306190971">
        <ele>262.58</ele>
        <time>2015-10-23T16:14:30Z</time>
      </trkpt>
      <trkpt lat="43.2340766676" lon="-0.2310524415">
        <ele>258.73</ele>
        <time>2015-10-23T16:14:35Z</time>
      </trkpt>
      <trkpt lat="43.2340842951" lon="-0.2311171498">
        <ele>260.17</ele>
        <time>2015-10-23T16:14:36Z</time>
      </trkpt>
      <trkpt lat="43.2341808546" lon="-0.2314955089">
        <ele>258.25</ele>
        <time>2015-10-23T16:14:42Z</time>
      </trkpt>
      <trkpt lat="43.2341974508" lon="-0.2315781545">
        <ele>258.73</ele>
        <time>2015-10-23T16:14:44Z</time>
      </trkpt>
      <trkpt lat="43.2342161424" lon="-0.2316246741">
        <ele>259.21</ele>
        <time>2015-10-23T16:14:45Z</time>
      </trkpt>
      <trkpt lat="43.2342324033" lon="-0.2316723671">
        <ele>259.21</ele>
        <time>2015-10-23T16:14:46Z</time>
      </trkpt>
      <trkpt lat="43.2342477422" lon="-0.2317180485">
        <ele>258.73</ele>
        <time>2015-10-23T16:14:47Z</time>
      </trkpt>
      <trkpt lat="43.2342640031" lon="-0.2317605447">
        <ele>259.21</ele>
        <time>2015-10-23T16:14:48Z</time>
      </trkpt>
      <trkpt lat="43.2342807669" lon="-0.2317987662">
        <ele>259.21</ele>
        <time>2015-10-23T16:14:49Z</time>
      </trkpt>
      <trkpt lat="43.2343837805" lon="-0.2322016004">
        <ele>258.73</ele>
        <time>2015-10-23T16:15:00Z</time>
      </trkpt>
      <trkpt lat="43.2345597167" lon="-0.2326890919">
        <ele>258.25</ele>
        <time>2015-10-23T16:15:11Z</time>
      </trkpt>
      <trkpt lat="43.234775383" lon="-0.2330766711">
        <ele>260.17</ele>
        <time>2015-10-23T16:15:22Z</time>
      </trkpt>
      <trkpt lat="43.2350037061" lon="-0.2333667688">
        <ele>262.1</ele>
        <time>2015-10-23T16:15:31Z</time>
      </trkpt>
      <trkpt lat="43.2351315301" lon="-0.2334765717">
        <ele>262.58</ele>
        <time>2015-10-23T16:15:37Z</time>
      </trkpt>
      <trkpt lat="43.2351400796" lon="-0.2334934194">
        <ele>262.58</ele>
        <time>2015-10-23T16:15:38Z</time>
      </trkpt>
      <trkpt lat="43.235159358" lon="-0.2336176392">
        <ele>262.1</ele>
        <time>2015-10-23T16:15:44Z</time>
      </trkpt>
      <trkpt lat="43.2351206336" lon="-0.2336801682">
        <ele>261.14</ele>
        <time>2015-10-23T16:15:48Z</time>
      </trkpt>
      <trkpt lat="43.2351170294" lon="-0.2339133527">
        <ele>260.17</ele>
        <time>2015-10-23T16:15:54Z</time>
      </trkpt>
      <trkpt lat="43.2351412531" lon="-0.234047547">
        <ele>260.65</ele>
        <time>2015-10-23T16:15:58Z</time>
      </trkpt>
      <trkpt lat="43.235128345" lon="-0.2341065556">
        <ele>261.14</ele>
        <time>2015-10-23T16:16:00Z</time>
      </trkpt>
      <trkpt lat="43.2351560052" lon="-0.2342765406">
        <ele>259.69</ele>
        <time>2015-10-23T16:16:05Z</time>
      </trkpt>
      <trkpt lat="43.2350696716" lon="-0.2344761137">
        <ele>257.29</ele>
        <time>2015-10-23T16:16:09Z</time>
      </trkpt>
      <trkpt lat="43.2350555062" lon="-0.234547276">
        <ele>255.37</ele>
        <time>2015-10-23T16:16:10Z</time>
      </trkpt>
      <trkpt lat="43.2350425981" lon="-0.2345860004">
        <ele>255.37</ele>
        <time>2015-10-23T16:16:11Z</time>
      </trkpt>
      <trkpt lat="43.2349925581" lon="-0.2346939594">
        <ele>254.41</ele>
        <time>2015-10-23T16:16:13Z</time>
      </trkpt>
      <trkpt lat="43.2349752076" lon="-0.2347630262">
        <ele>253.93</ele>
        <time>2015-10-23T16:16:14Z</time>
      </trkpt>
      <trkpt lat="43.2349694241" lon="-0.2348284889">
        <ele>252.96</ele>
        <time>2015-10-23T16:16:15Z</time>
      </trkpt>
      <trkpt lat="43.2349775545" lon="-0.2348697279">
        <ele>252.48</ele>
        <time>2015-10-23T16:16:16Z</time>
      </trkpt>
      <trkpt lat="43.2349891216" lon="-0.2348945383">
        <ele>252.48</ele>
        <time>2015-10-23T16:16:17Z</time>
      </trkpt>
      <trkpt lat="43.2350063045" lon="-0.234922953">
        <ele>252</ele>
        <time>2015-10-23T16:16:18Z</time>
      </trkpt>
      <trkpt lat="43.2351611182" lon="-0.2352868114">
        <ele>252</ele>
        <time>2015-10-23T16:16:27Z</time>
      </trkpt>
      <trkpt lat="43.2354885153" lon="-0.2357554436">
        <ele>251.04</ele>
        <time>2015-10-23T16:16:41Z</time>
      </trkpt>
      <trkpt lat="43.2355932891" lon="-0.2358665038">
        <ele>250.08</ele>
        <time>2015-10-23T16:16:44Z</time>
      </trkpt>
      <trkpt lat="43.2356994879" lon="-0.2360048052">
        <ele>250.08</ele>
        <time>2015-10-23T16:16:47Z</time>
      </trkpt>
      <trkpt lat="43.2357299142" lon="-0.2360546775">
        <ele>249.6</ele>
        <time>2015-10-23T16:16:48Z</time>
      </trkpt>
      <trkpt lat="43.2357532158" lon="-0.2361080702">
        <ele>249.6</ele>
        <time>2015-10-23T16:16:49Z</time>
      </trkpt>
      <trkpt lat="43.2357658725" lon="-0.2361617982">
        <ele>249.12</ele>
        <time>2015-10-23T16:16:50Z</time>
      </trkpt>
      <trkpt lat="43.2357709855" lon="-0.236211922">
        <ele>249.6</ele>
        <time>2015-10-23T16:16:51Z</time>
      </trkpt>
      <trkpt lat="43.2357706502" lon="-0.236254083">
        <ele>249.12</ele>
        <time>2015-10-23T16:16:52Z</time>
      </trkpt>
      <trkpt lat="43.2357703149" lon="-0.2362940647">
        <ele>249.12</ele>
        <time>2015-10-23T16:16:53Z</time>
      </trkpt>
      <trkpt lat="43.2357734162" lon="-0.2363332082">
        <ele>249.12</ele>
        <time>2015-10-23T16:16:54Z</time>
      </trkpt>
      <trkpt lat="43.2358003221" lon="-0.2365394868">
        <ele>249.12</ele>
        <time>2015-10-23T16:16:59Z</time>
      </trkpt>
      <trkpt lat="43.2358209416" lon="-0.2365813125">
        <ele>249.12</ele>
        <time>2015-10-23T16:17:00Z</time>
      </trkpt>
      <trkpt lat="43.2358422317" lon="-0.2366193663">
        <ele>248.64</ele>
        <time>2015-10-23T16:17:01Z</time>
      </trkpt>
      <trkpt lat="43.2358641084" lon="-0.236652391">
        <ele>249.12</ele>
        <time>2015-10-23T16:17:02Z</time>
      </trkpt>
      <trkpt lat="43.2358836383" lon="-0.2366887685">
        <ele>249.6</ele>
        <time>2015-10-23T16:17:03Z</time>
      </trkpt>
      <trkpt lat="43.2358965464" lon="-0.2367386408">
        <ele>249.6</ele>
        <time>2015-10-23T16:17:04Z</time>
      </trkpt>
      <trkpt lat="43.2359096222" lon="-0.2367820591">
        <ele>249.12</ele>
        <time>2015-10-23T16:17:05Z</time>
      </trkpt>
      <trkpt lat="43.2360186707" lon="-0.2372869849">
        <ele>248.64</ele>
        <time>2015-10-23T16:17:17Z</time>
      </trkpt>
      <trkpt lat="43.2362018991" lon="-0.2377189044">
        <ele>248.16</ele>
        <time>2015-10-23T16:17:26Z</time>
      </trkpt>
      <trkpt lat="43.2362338342" lon="-0.2380764764">
        <ele>248.16</ele>
        <time>2015-10-23T16:17:35Z</time>
      </trkpt>
      <trkpt lat="43.2364075072" lon="-0.2385814022">
        <ele>247.68</ele>
        <time>2015-10-23T16:17:45Z</time>
      </trkpt>
      <trkpt lat="43.236714201" lon="-0.2391957957">
        <ele>246.72</ele>
        <time>2015-10-23T16:17:58Z</time>
      </trkpt>
      <trkpt lat="43.2371345535" lon="-0.2396193333">
        <ele>247.2</ele>
        <time>2015-10-23T16:18:11Z</time>
      </trkpt>
      <trkpt lat="43.2374083064" lon="-0.239854781">
        <ele>247.2</ele>
        <time>2015-10-23T16:18:19Z</time>
      </trkpt>
      <trkpt lat="43.2374479529" lon="-0.2398919128">
        <ele>247.2</ele>
        <time>2015-10-23T16:18:20Z</time>
      </trkpt>
      <trkpt lat="43.2374912873" lon="-0.2399304695">
        <ele>247.2</ele>
        <time>2015-10-23T16:18:21Z</time>
      </trkpt>
      <trkpt lat="43.2375686523" lon="-0.2399926633">
        <ele>247.68</ele>
        <time>2015-10-23T16:18:23Z</time>
      </trkpt>
      <trkpt lat="43.2376111485" lon="-0.2400239278">
        <ele>247.2</ele>
        <time>2015-10-23T16:18:24Z</time>
      </trkpt>
      <trkpt lat="43.2376478612" lon="-0.2400526777">
        <ele>247.2</ele>
        <time>2015-10-23T16:18:25Z</time>
      </trkpt>
      <trkpt lat="43.2376808859" lon="-0.2400827687">
        <ele>247.68</ele>
        <time>2015-10-23T16:18:26Z</time>
      </trkpt>
      <trkpt lat="43.2377108932" lon="-0.2401181404">
        <ele>247.2</ele>
        <time>2015-10-23T16:18:27Z</time>
      </trkpt>
      <trkpt lat="43.2378556486" lon="-0.2403354831">
        <ele>246.23</ele>
        <time>2015-10-23T16:18:34Z</time>
      </trkpt>
      <trkpt lat="43.2378476858" lon="-0.240375381">
        <ele>246.72</ele>
        <time>2015-10-23T16:18:35Z</time>
      </trkpt>
      <trkpt lat="43.237835113" lon="-0.2404157817">
        <ele>246.72</ele>
        <time>2015-10-23T16:18:36Z</time>
      </trkpt>
      <trkpt lat="43.2374648843" lon="-0.241126148">
        <ele>245.75</ele>
        <time>2015-10-23T16:18:53Z</time>
      </trkpt>
      <trkpt lat="43.237173697" lon="-0.241904743">
        <ele>245.27</ele>
        <time>2015-10-23T16:19:08Z</time>
      </trkpt>
      <trkpt lat="43.2370613795" lon="-0.2426309511">
        <ele>245.75</ele>
        <time>2015-10-23T16:19:21Z</time>
      </trkpt>
      <trkpt lat="43.2369202282" lon="-0.2430069633">
        <ele>245.75</ele>
        <time>2015-10-23T16:19:30Z</time>
      </trkpt>
      <trkpt lat="43.2367913146" lon="-0.2431033552">
        <ele>245.75</ele>
        <time>2015-10-23T16:19:34Z</time>
      </trkpt>
      <trkpt lat="43.2367533445" lon="-0.2431188617">
        <ele>245.75</ele>
        <time>2015-10-23T16:19:35Z</time>
      </trkpt>
      <trkpt lat="43.2365901489" lon="-0.2431528084">
        <ele>245.27</ele>
        <time>2015-10-23T16:19:39Z</time>
      </trkpt>
      <trkpt lat="43.2365043182" lon="-0.2431801334">
        <ele>244.79</ele>
        <time>2015-10-23T16:19:41Z</time>
      </trkpt>
      <trkpt lat="43.2364618219" lon="-0.2431997471">
        <ele>244.79</ele>
        <time>2015-10-23T16:19:42Z</time>
      </trkpt>
      <trkpt lat="43.2363814395" lon="-0.2432503738">
        <ele>245.27</ele>
        <time>2015-10-23T16:19:44Z</time>
      </trkpt>
      <trkpt lat="43.236346487" lon="-0.2432842366">
        <ele>244.79</ele>
        <time>2015-10-23T16:19:45Z</time>
      </trkpt>
      <trkpt lat="43.2363154739" lon="-0.2433314268">
        <ele>245.27</ele>
        <time>2015-10-23T16:19:46Z</time>
      </trkpt>
      <trkpt lat="43.2362925075" lon="-0.2433850709">
        <ele>244.79</ele>
        <time>2015-10-23T16:19:47Z</time>
      </trkpt>
      <trkpt lat="43.2362780906" lon="-0.2434451692">
        <ele>245.27</ele>
        <time>2015-10-23T16:19:48Z</time>
      </trkpt>
      <trkpt lat="43.2362710498" lon="-0.2435060218">
        <ele>245.27</ele>
        <time>2015-10-23T16:19:49Z</time>
      </trkpt>
      <trkpt lat="43.236262165" lon="-0.2438058425">
        <ele>244.79</ele>
        <time>2015-10-23T16:19:54Z</time>
      </trkpt>
      <trkpt lat="43.2362704631" lon="-0.2448115032">
        <ele>244.31</ele>
        <time>2015-10-23T16:20:11Z</time>
      </trkpt>
      <trkpt lat="43.2362725586" lon="-0.244873194">
        <ele>244.31</ele>
        <time>2015-10-23T16:20:12Z</time>
      </trkpt>
      <trkpt lat="43.2363671064" lon="-0.2455581632">
        <ele>244.31</ele>
        <time>2015-10-23T16:20:24Z</time>
      </trkpt>
      <trkpt lat="43.2364142966" lon="-0.2458319161">
        <ele>243.83</ele>
        <time>2015-10-23T16:20:29Z</time>
      </trkpt>
      <trkpt lat="43.2366546057" lon="-0.2464826871">
        <ele>243.35</ele>
        <time>2015-10-23T16:20:42Z</time>
      </trkpt>
      <trkpt lat="43.2368525863" lon="-0.2469002735">
        <ele>243.35</ele>
        <time>2015-10-23T16:20:52Z</time>
      </trkpt>
      <trkpt lat="43.2369234972" lon="-0.2470318694">
        <ele>242.87</ele>
        <time>2015-10-23T16:20:55Z</time>
      </trkpt>
      <trkpt lat="43.2370997686" lon="-0.2475976478">
        <ele>242.87</ele>
        <time>2015-10-23T16:21:07Z</time>
      </trkpt>
      <trkpt lat="43.2370816637" lon="-0.2480755839">
        <ele>242.39</ele>
        <time>2015-10-23T16:21:19Z</time>
      </trkpt>
      <trkpt lat="43.2370733656" lon="-0.2485437971">
        <ele>242.39</ele>
        <time>2015-10-23T16:21:29Z</time>
      </trkpt>
      <trkpt lat="43.2369708549" lon="-0.2494035289">
        <ele>241.91</ele>
        <time>2015-10-23T16:21:45Z</time>
      </trkpt>
      <trkpt lat="43.2369826734" lon="-0.2495436743">
        <ele>241.91</ele>
        <time>2015-10-23T16:21:54Z</time>
      </trkpt>
      <trkpt lat="43.2369799912" lon="-0.2495677304">
        <ele>241.43</ele>
        <time>2015-10-23T16:21:57Z</time>
      </trkpt>
      <trkpt lat="43.2369785663" lon="-0.2495999169">
        <ele>241.91</ele>
        <time>2015-10-23T16:21:58Z</time>
      </trkpt>
      <trkpt lat="43.2369726989" lon="-0.2496356238">
        <ele>241.43</ele>
        <time>2015-10-23T16:21:59Z</time>
      </trkpt>
      <trkpt lat="43.236963395" lon="-0.2496726718">
        <ele>241.43</ele>
        <time>2015-10-23T16:22:00Z</time>
      </trkpt>
      <trkpt lat="43.2369514089" lon="-0.249707792">
        <ele>241.43</ele>
        <time>2015-10-23T16:22:01Z</time>
      </trkpt>
      <trkpt lat="43.2369333878" lon="-0.24974484">
        <ele>241.91</ele>
        <time>2015-10-23T16:22:02Z</time>
      </trkpt>
      <trkpt lat="43.2366943359" lon="-0.2503286395">
        <ele>241.91</ele>
        <time>2015-10-23T16:22:14Z</time>
      </trkpt>
      <trkpt lat="43.2366088405" lon="-0.250552604">
        <ele>242.39</ele>
        <time>2015-10-23T16:22:18Z</time>
      </trkpt>
      <trkpt lat="43.2361749932" lon="-0.2513346355">
        <ele>242.39</ele>
        <time>2015-10-23T16:22:33Z</time>
      </trkpt>
      <trkpt lat="43.2361161523" lon="-0.2514409181">
        <ele>242.87</ele>
        <time>2015-10-23T16:22:35Z</time>
      </trkpt>
      <trkpt lat="43.2360837143" lon="-0.2514893655">
        <ele>242.39</ele>
        <time>2015-10-23T16:22:36Z</time>
      </trkpt>
      <trkpt lat="43.2358963788" lon="-0.2518574987">
        <ele>242.39</ele>
        <time>2015-10-23T16:22:43Z</time>
      </trkpt>
      <trkpt lat="43.2358686347" lon="-0.2519017551">
        <ele>242.39</ele>
        <time>2015-10-23T16:22:44Z</time>
      </trkpt>
      <trkpt lat="43.2355735078" lon="-0.2524426393">
        <ele>242.39</ele>
        <time>2015-10-23T16:22:57Z</time>
      </trkpt>
      <trkpt lat="43.2354875095" lon="-0.2526390273">
        <ele>241.91</ele>
        <time>2015-10-23T16:23:06Z</time>
      </trkpt>
      <trkpt lat="43.2354977354" lon="-0.2526590601">
        <ele>242.39</ele>
        <time>2015-10-23T16:23:07Z</time>
      </trkpt>
      <trkpt lat="43.2358048484" lon="-0.2528334875">
        <ele>241.91</ele>
        <time>2015-10-23T16:23:18Z</time>
      </trkpt>
      <trkpt lat="43.2359197643" lon="-0.2529035602">
        <ele>241.91</ele>
        <time>2015-10-23T16:23:22Z</time>
      </trkpt>
      <trkpt lat="43.2359236199" lon="-0.2529470623">
        <ele>241.91</ele>
        <time>2015-10-23T16:23:23Z</time>
      </trkpt>
      <trkpt lat="43.2359089516" lon="-0.2529996168">
        <ele>242.39</ele>
        <time>2015-10-23T16:23:24Z</time>
      </trkpt>
      <trkpt lat="43.2358827163" lon="-0.2530486509">
        <ele>242.39</ele>
        <time>2015-10-23T16:23:25Z</time>
      </trkpt>
      <trkpt lat="43.2358480152" lon="-0.2530913148">
        <ele>242.39</ele>
        <time>2015-10-23T16:23:26Z</time>
      </trkpt>
      <trkpt lat="43.2355414052" lon="-0.2535516489">
        <ele>242.39</ele>
        <time>2015-10-23T16:23:37Z</time>
      </trkpt>
      <trkpt lat="43.2355124876" lon="-0.2535877749">
        <ele>241.91</ele>
        <time>2015-10-23T16:23:38Z</time>
      </trkpt>
      <trkpt lat="43.2354054507" lon="-0.2537537366">
        <ele>242.39</ele>
        <time>2015-10-23T16:23:42Z</time>
      </trkpt>
      <trkpt lat="43.2349300291" lon="-0.2543672919">
        <ele>242.39</ele>
        <time>2015-10-23T16:23:57Z</time>
      </trkpt>
      <trkpt lat="43.234255705" lon="-0.2547785081">
        <ele>242.87</ele>
        <time>2015-10-23T16:24:14Z</time>
      </trkpt>
      <trkpt lat="43.2337793615" lon="-0.2550551947">
        <ele>242.87</ele>
        <time>2015-10-23T16:24:26Z</time>
      </trkpt>
      <trkpt lat="43.2333628647" lon="-0.2555417642">
        <ele>242.87</ele>
        <time>2015-10-23T16:24:39Z</time>
      </trkpt>
      <trkpt lat="43.2331815641" lon="-0.2557541616">
        <ele>242.87</ele>
        <time>2015-10-23T16:24:44Z</time>
      </trkpt>
      <trkpt lat="43.2326188032" lon="-0.2561305091">
        <ele>243.35</ele>
        <time>2015-10-23T16:24:58Z</time>
      </trkpt>
      <trkpt lat="43.2320226822" lon="-0.2566721477">
        <ele>243.83</ele>
        <time>2015-10-23T16:25:14Z</time>
      </trkpt>
      <trkpt lat="43.2319114543" lon="-0.2567676175">
        <ele>243.35</ele>
        <time>2015-10-23T16:25:17Z</time>
      </trkpt>
      <trkpt lat="43.2316305768" lon="-0.25701195">
        <ele>243.83</ele>
        <time>2015-10-23T16:25:25Z</time>
      </trkpt>
      <trkpt lat="43.230919959" lon="-0.2576384135">
        <ele>243.83</ele>
        <time>2015-10-23T16:25:43Z</time>
      </trkpt>
      <trkpt lat="43.2306901272" lon="-0.2578589413">
        <ele>243.83</ele>
        <time>2015-10-23T16:25:49Z</time>
      </trkpt>
      <trkpt lat="43.2304510754" lon="-0.2580908686">
        <ele>243.83</ele>
        <time>2015-10-23T16:25:56Z</time>
      </trkpt>
      <trkpt lat="43.2303301245" lon="-0.258170329">
        <ele>243.35</ele>
        <time>2015-10-23T16:25:59Z</time>
      </trkpt>
      <trkpt lat="43.2298559602" lon="-0.25859043">
        <ele>240.95</ele>
        <time>2015-10-23T16:26:10Z</time>
      </trkpt>
      <trkpt lat="43.2298016455" lon="-0.25864508">
        <ele>241.91</ele>
        <time>2015-10-23T16:26:11Z</time>
      </trkpt>
      <trkpt lat="43.2295667008" lon="-0.2588268835">
        <ele>242.87</ele>
        <time>2015-10-23T16:26:16Z</time>
      </trkpt>
      <trkpt lat="43.2293221168" lon="-0.2590117883">
        <ele>243.35</ele>
        <time>2015-10-23T16:26:23Z</time>
      </trkpt>
      <trkpt lat="43.229285907" lon="-0.2590393648">
        <ele>243.83</ele>
        <time>2015-10-23T16:26:24Z</time>
      </trkpt>
      <trkpt lat="43.2286355551" lon="-0.2596276067">
        <ele>244.31</ele>
        <time>2015-10-23T16:26:41Z</time>
      </trkpt>
      <trkpt lat="43.2281008735" lon="-0.2601922117">
        <ele>244.31</ele>
        <time>2015-10-23T16:26:57Z</time>
      </trkpt>
      <trkpt lat="43.2278319821" lon="-0.260642739">
        <ele>243.83</ele>
        <time>2015-10-23T16:27:10Z</time>
      </trkpt>
      <trkpt lat="43.2278497517" lon="-0.2606835589">
        <ele>243.35</ele>
        <time>2015-10-23T16:27:11Z</time>
      </trkpt>
      <trkpt lat="43.2278745621" lon="-0.2607179247">
        <ele>243.35</ele>
        <time>2015-10-23T16:27:12Z</time>
      </trkpt>
      <trkpt lat="43.2279054914" lon="-0.2607449982">
        <ele>243.83</ele>
        <time>2015-10-23T16:27:13Z</time>
      </trkpt>
      <trkpt lat="43.2279385161" lon="-0.2607727423">
        <ele>244.31</ele>
        <time>2015-10-23T16:27:14Z</time>
      </trkpt>
      <trkpt lat="43.2279706188" lon="-0.2608065214">
        <ele>244.31</ele>
        <time>2015-10-23T16:27:15Z</time>
      </trkpt>
      <trkpt lat="43.2280059066" lon="-0.2608376183">
        <ele>244.31</ele>
        <time>2015-10-23T16:27:16Z</time>
      </trkpt>
      <trkpt lat="43.2286255807" lon="-0.2613246907">
        <ele>243.83</ele>
        <time>2015-10-23T16:27:32Z</time>
      </trkpt>
      <trkpt lat="43.2293944526" lon="-0.2619400062">
        <ele>243.35</ele>
        <time>2015-10-23T16:27:51Z</time>
      </trkpt>
      <trkpt lat="43.2300971076" lon="-0.2624927089">
        <ele>242.39</ele>
        <time>2015-10-23T16:28:08Z</time>
      </trkpt>
      <trkpt lat="43.2308602799" lon="-0.2630973794">
        <ele>241.43</ele>
        <time>2015-10-23T16:28:26Z</time>
      </trkpt>
      <trkpt lat="43.2308985852" lon="-0.2631305717">
        <ele>241.43</ele>
        <time>2015-10-23T16:28:27Z</time>
      </trkpt>
      <trkpt lat="43.2309390698" lon="-0.2631612495">
        <ele>241.91</ele>
        <time>2015-10-23T16:28:28Z</time>
      </trkpt>
      <trkpt lat="43.231455395" lon="-0.2635567077">
        <ele>240.95</ele>
        <time>2015-10-23T16:28:40Z</time>
      </trkpt>
      <trkpt lat="43.2320281304" lon="-0.264012767">
        <ele>239.99</ele>
        <time>2015-10-23T16:28:55Z</time>
      </trkpt>
      <trkpt lat="43.2325831801" lon="-0.2644503862">
        <ele>239.99</ele>
        <time>2015-10-23T16:29:09Z</time>
      </trkpt>
      <trkpt lat="43.2326593716" lon="-0.2645099815">
        <ele>239.99</ele>
        <time>2015-10-23T16:29:11Z</time>
      </trkpt>
      <trkpt lat="43.2328012772" lon="-0.2646297589">
        <ele>239.51</ele>
        <time>2015-10-23T16:29:15Z</time>
      </trkpt>
      <trkpt lat="43.2328306139" lon="-0.2646677289">
        <ele>239.51</ele>
        <time>2015-10-23T16:29:16Z</time>
      </trkpt>
      <trkpt lat="43.2328551728" lon="-0.2647116501">
        <ele>239.51</ele>
        <time>2015-10-23T16:29:17Z</time>
      </trkpt>
      <trkpt lat="43.2328752894" lon="-0.264755236">
        <ele>239.51</ele>
        <time>2015-10-23T16:29:18Z</time>
      </trkpt>
      <trkpt lat="43.2328929752" lon="-0.2647962235">
        <ele>239.51</ele>
        <time>2015-10-23T16:29:19Z</time>
      </trkpt>
      <trkpt lat="43.2329922169" lon="-0.2649309207">
        <ele>239.02</ele>
        <time>2015-10-23T16:29:23Z</time>
      </trkpt>
      <trkpt lat="43.2336206082" lon="-0.2655195817">
        <ele>238.54</ele>
        <time>2015-10-23T16:29:40Z</time>
      </trkpt>
      <trkpt lat="43.2344411965" lon="-0.2662590332">
        <ele>238.54</ele>
        <time>2015-10-23T16:30:00Z</time>
      </trkpt>
      <trkpt lat="43.2353564166" lon="-0.2670916077">
        <ele>237.1</ele>
        <time>2015-10-23T16:30:22Z</time>
      </trkpt>
      <trkpt lat="43.2353910338" lon="-0.2671268117">
        <ele>237.1</ele>
        <time>2015-10-23T16:30:23Z</time>
      </trkpt>
      <trkpt lat="43.2354276627" lon="-0.2671626862">
        <ele>236.62</ele>
        <time>2015-10-23T16:30:24Z</time>
      </trkpt>
      <trkpt lat="43.2355056144" lon="-0.2672321722">
        <ele>237.1</ele>
        <time>2015-10-23T16:30:26Z</time>
      </trkpt>
      <trkpt lat="43.2355448417" lon="-0.2672588266">
        <ele>236.62</ele>
        <time>2015-10-23T16:30:27Z</time>
      </trkpt>
      <trkpt lat="43.2355854101" lon="-0.267283218">
        <ele>236.62</ele>
        <time>2015-10-23T16:30:28Z</time>
      </trkpt>
      <trkpt lat="43.2356232125" lon="-0.2673148178">
        <ele>237.1</ele>
        <time>2015-10-23T16:30:29Z</time>
      </trkpt>
      <trkpt lat="43.2356592547" lon="-0.267353626">
        <ele>236.62</ele>
        <time>2015-10-23T16:30:30Z</time>
      </trkpt>
      <trkpt lat="43.2356973924" lon="-0.267391596">
        <ele>236.62</ele>
        <time>2015-10-23T16:30:31Z</time>
      </trkpt>
      <trkpt lat="43.2363505103" lon="-0.2680047322">
        <ele>236.14</ele>
        <time>2015-10-23T16:30:48Z</time>
      </trkpt>
      <trkpt lat="43.2366073318" lon="-0.2682276908">
        <ele>236.14</ele>
        <time>2015-10-23T16:31:00Z</time>
      </trkpt>
      <trkpt lat="43.2366070803" lon="-0.2682473883">
        <ele>235.66</ele>
        <time>2015-10-23T16:31:01Z</time>
      </trkpt>
      <trkpt lat="43.2366099302" lon="-0.2682741266">
        <ele>236.14</ele>
        <time>2015-10-23T16:31:02Z</time>
      </trkpt>
      <trkpt lat="43.2366168033" lon="-0.2683048043">
        <ele>236.14</ele>
        <time>2015-10-23T16:31:03Z</time>
      </trkpt>
      <trkpt lat="43.2366231736" lon="-0.2683355659">
        <ele>236.62</ele>
        <time>2015-10-23T16:31:04Z</time>
      </trkpt>
      <trkpt lat="43.2366217487" lon="-0.268367501">
        <ele>235.66</ele>
        <time>2015-10-23T16:31:05Z</time>
      </trkpt>
      <trkpt lat="43.2366149593" lon="-0.2684034593">
        <ele>236.14</ele>
        <time>2015-10-23T16:31:06Z</time>
      </trkpt>
      <trkpt lat="43.2366025541" lon="-0.2684410103">
        <ele>236.14</ele>
        <time>2015-10-23T16:31:07Z</time>
      </trkpt>
      <trkpt lat="43.236588221" lon="-0.2684746217">
        <ele>235.66</ele>
        <time>2015-10-23T16:31:08Z</time>
      </trkpt>
      <trkpt lat="43.2365795877" lon="-0.2684984263">
        <ele>236.14</ele>
        <time>2015-10-23T16:31:09Z</time>
      </trkpt>
      <trkpt lat="43.2364851236" lon="-0.2687510569">
        <ele>236.14</ele>
        <time>2015-10-23T16:31:17Z</time>
      </trkpt>
      <trkpt lat="43.236302482" lon="-0.2693907637">
        <ele>235.18</ele>
        <time>2015-10-23T16:31:30Z</time>
      </trkpt>
      <trkpt lat="43.2365069166" lon="-0.2697184961">
        <ele>235.18</ele>
        <time>2015-10-23T16:31:38Z</time>
      </trkpt>
      <trkpt lat="43.2365163043" lon="-0.269772727">
        <ele>235.18</ele>
        <time>2015-10-23T16:31:39Z</time>
      </trkpt>
      <trkpt lat="43.2365178131" lon="-0.2698289696">
        <ele>235.18</ele>
        <time>2015-10-23T16:31:40Z</time>
      </trkpt>
      <trkpt lat="43.2365140412" lon="-0.2698804345">
        <ele>235.66</ele>
        <time>2015-10-23T16:31:41Z</time>
      </trkpt>
      <trkpt lat="43.2365049887" lon="-0.2699276246">
        <ele>235.18</ele>
        <time>2015-10-23T16:31:42Z</time>
      </trkpt>
      <trkpt lat="43.2364883088" lon="-0.2699710429">
        <ele>235.18</ele>
        <time>2015-10-23T16:31:43Z</time>
      </trkpt>
      <trkpt lat="43.2362723071" lon="-0.2706581075">
        <ele>234.7</ele>
        <time>2015-10-23T16:31:58Z</time>
      </trkpt>
      <trkpt lat="43.2360710576" lon="-0.2710499614">
        <ele>234.7</ele>
        <time>2015-10-23T16:32:11Z</time>
      </trkpt>
    </trkseg>
  </trk>
</gpx>
